<?xml version="1.0" encoding="UTF-8" standalone="no" ?>
<gpx xmlns="http://www.topografix.com/GPX/1/1" xmlns:xsi="http://www.w3.org/2001/XMLSchema-instance" xsi:schemaLocation="http://www.topografix.com/GPX/1/1 http://www.topografix.com/GPX/1/1/gpx.xsd" version="1.1" creator="VisuGPX - https://www.visugpx.com">
  <metadata>
    <name>Saint Maurice - les singles techniques du Bozençon</name>
    <desc><![CDATA[Des descentes caillouteuses aux singles techniques, un festival très varié ! ! ]]></desc>
  </metadata>
  <trk>
    <name><![CDATA[TracÃ© actuel: 08 AOU 2012 07:48]]></name>
    <trkseg>
      <trkpt lat="45.58196" lon="4.6302">
        <ele>478</ele>
        <time>2012-08-08T05:48:53Z</time>
      </trkpt>
      <trkpt lat="45.58196" lon="4.63023">
        <ele>479</ele>
        <time>2012-08-08T05:49:10Z</time>
      </trkpt>
      <trkpt lat="45.58197" lon="4.63033">
        <ele>479</ele>
        <time>2012-08-08T05:49:15Z</time>
      </trkpt>
      <trkpt lat="45.58202" lon="4.6304">
        <ele>478</ele>
        <time>2012-08-08T05:49:20Z</time>
      </trkpt>
      <trkpt lat="45.58208" lon="4.63054">
        <ele>477</ele>
        <time>2012-08-08T05:49:28Z</time>
      </trkpt>
      <trkpt lat="45.58208" lon="4.63056">
        <ele>477</ele>
        <time>2012-08-08T05:49:29Z</time>
      </trkpt>
      <trkpt lat="45.58209" lon="4.63059">
        <ele>477</ele>
        <time>2012-08-08T05:49:30Z</time>
      </trkpt>
      <trkpt lat="45.58209" lon="4.63062">
        <ele>477</ele>
        <time>2012-08-08T05:49:31Z</time>
      </trkpt>
      <trkpt lat="45.5821" lon="4.63065">
        <ele>476</ele>
        <time>2012-08-08T05:49:32Z</time>
      </trkpt>
      <trkpt lat="45.58214" lon="4.63084">
        <ele>476</ele>
        <time>2012-08-08T05:49:37Z</time>
      </trkpt>
      <trkpt lat="45.58209" lon="4.63099">
        <ele>475</ele>
        <time>2012-08-08T05:49:40Z</time>
      </trkpt>
      <trkpt lat="45.58198" lon="4.6312">
        <ele>473</ele>
        <time>2012-08-08T05:49:44Z</time>
      </trkpt>
      <trkpt lat="45.58195" lon="4.63124">
        <ele>473</ele>
        <time>2012-08-08T05:49:45Z</time>
      </trkpt>
      <trkpt lat="45.5819" lon="4.63126">
        <ele>472</ele>
        <time>2012-08-08T05:49:46Z</time>
      </trkpt>
      <trkpt lat="45.58185" lon="4.63126">
        <ele>472</ele>
        <time>2012-08-08T05:49:47Z</time>
      </trkpt>
      <trkpt lat="45.58179" lon="4.63124">
        <ele>471</ele>
        <time>2012-08-08T05:49:48Z</time>
      </trkpt>
      <trkpt lat="45.58174" lon="4.63122">
        <ele>471</ele>
        <time>2012-08-08T05:49:49Z</time>
      </trkpt>
      <trkpt lat="45.58148" lon="4.63109">
        <ele>469</ele>
        <time>2012-08-08T05:49:53Z</time>
      </trkpt>
      <trkpt lat="45.58142" lon="4.63105">
        <ele>469</ele>
        <time>2012-08-08T05:49:54Z</time>
      </trkpt>
      <trkpt lat="45.58135" lon="4.63102">
        <ele>468</ele>
        <time>2012-08-08T05:49:55Z</time>
      </trkpt>
      <trkpt lat="45.58127" lon="4.63099">
        <ele>468</ele>
        <time>2012-08-08T05:49:56Z</time>
      </trkpt>
      <trkpt lat="45.5812" lon="4.63095">
        <ele>467</ele>
        <time>2012-08-08T05:49:57Z</time>
      </trkpt>
      <trkpt lat="45.58113" lon="4.63091">
        <ele>467</ele>
        <time>2012-08-08T05:49:58Z</time>
      </trkpt>
      <trkpt lat="45.58066" lon="4.63065">
        <ele>463</ele>
        <time>2012-08-08T05:50:04Z</time>
      </trkpt>
      <trkpt lat="45.58033" lon="4.63047">
        <ele>462</ele>
        <time>2012-08-08T05:50:08Z</time>
      </trkpt>
      <trkpt lat="45.57997" lon="4.63028">
        <ele>462</ele>
        <time>2012-08-08T05:50:13Z</time>
      </trkpt>
      <trkpt lat="45.57951" lon="4.63014">
        <ele>461</ele>
        <time>2012-08-08T05:50:22Z</time>
      </trkpt>
      <trkpt lat="45.57932" lon="4.63006">
        <ele>460</ele>
        <time>2012-08-08T05:50:28Z</time>
      </trkpt>
      <trkpt lat="45.57924" lon="4.63">
        <ele>460</ele>
        <time>2012-08-08T05:50:34Z</time>
      </trkpt>
      <trkpt lat="45.57922" lon="4.63002">
        <ele>460</ele>
        <time>2012-08-08T05:50:42Z</time>
      </trkpt>
      <trkpt lat="45.57918" lon="4.62998">
        <ele>460</ele>
        <time>2012-08-08T05:50:48Z</time>
      </trkpt>
      <trkpt lat="45.57908" lon="4.62987">
        <ele>461</ele>
        <time>2012-08-08T05:50:55Z</time>
      </trkpt>
      <trkpt lat="45.57895" lon="4.62952">
        <ele>462</ele>
        <time>2012-08-08T05:51:04Z</time>
      </trkpt>
      <trkpt lat="45.57879" lon="4.62928">
        <ele>463</ele>
        <time>2012-08-08T05:51:12Z</time>
      </trkpt>
      <trkpt lat="45.57869" lon="4.6291">
        <ele>463</ele>
        <time>2012-08-08T05:51:19Z</time>
      </trkpt>
      <trkpt lat="45.5786" lon="4.62887">
        <ele>463</ele>
        <time>2012-08-08T05:51:26Z</time>
      </trkpt>
      <trkpt lat="45.57849" lon="4.62854">
        <ele>463</ele>
        <time>2012-08-08T05:51:35Z</time>
      </trkpt>
      <trkpt lat="45.5784" lon="4.62821">
        <ele>462</ele>
        <time>2012-08-08T05:51:42Z</time>
      </trkpt>
      <trkpt lat="45.57831" lon="4.62792">
        <ele>461</ele>
        <time>2012-08-08T05:51:48Z</time>
      </trkpt>
      <trkpt lat="45.57831" lon="4.6279">
        <ele>461</ele>
        <time>2012-08-08T05:51:49Z</time>
      </trkpt>
      <trkpt lat="45.57828" lon="4.62777">
        <ele>461</ele>
        <time>2012-08-08T05:51:55Z</time>
      </trkpt>
      <trkpt lat="45.5782" lon="4.62754">
        <ele>461</ele>
        <time>2012-08-08T05:52:02Z</time>
      </trkpt>
      <trkpt lat="45.57811" lon="4.62727">
        <ele>462</ele>
        <time>2012-08-08T05:52:09Z</time>
      </trkpt>
      <trkpt lat="45.57798" lon="4.62702">
        <ele>463</ele>
        <time>2012-08-08T05:52:17Z</time>
      </trkpt>
      <trkpt lat="45.57788" lon="4.62674">
        <ele>463</ele>
        <time>2012-08-08T05:52:25Z</time>
      </trkpt>
      <trkpt lat="45.57775" lon="4.62637">
        <ele>465</ele>
        <time>2012-08-08T05:52:35Z</time>
      </trkpt>
      <trkpt lat="45.57767" lon="4.6261">
        <ele>466</ele>
        <time>2012-08-08T05:52:43Z</time>
      </trkpt>
      <trkpt lat="45.57761" lon="4.62568">
        <ele>465</ele>
        <time>2012-08-08T05:52:54Z</time>
      </trkpt>
      <trkpt lat="45.57759" lon="4.62517">
        <ele>465</ele>
        <time>2012-08-08T05:53:06Z</time>
      </trkpt>
      <trkpt lat="45.57758" lon="4.62481">
        <ele>465</ele>
        <time>2012-08-08T05:53:14Z</time>
      </trkpt>
      <trkpt lat="45.57762" lon="4.62433">
        <ele>465</ele>
        <time>2012-08-08T05:53:25Z</time>
      </trkpt>
      <trkpt lat="45.57777" lon="4.62392">
        <ele>465</ele>
        <time>2012-08-08T05:53:35Z</time>
      </trkpt>
      <trkpt lat="45.57787" lon="4.62371">
        <ele>465</ele>
        <time>2012-08-08T05:53:39Z</time>
      </trkpt>
      <trkpt lat="45.57796" lon="4.62355">
        <ele>463</ele>
        <time>2012-08-08T05:53:42Z</time>
      </trkpt>
      <trkpt lat="45.57804" lon="4.62347">
        <ele>463</ele>
        <time>2012-08-08T05:53:44Z</time>
      </trkpt>
      <trkpt lat="45.57808" lon="4.62343">
        <ele>463</ele>
        <time>2012-08-08T05:53:45Z</time>
      </trkpt>
      <trkpt lat="45.57813" lon="4.6234">
        <ele>463</ele>
        <time>2012-08-08T05:53:46Z</time>
      </trkpt>
      <trkpt lat="45.57818" lon="4.62338">
        <ele>463</ele>
        <time>2012-08-08T05:53:47Z</time>
      </trkpt>
      <trkpt lat="45.57822" lon="4.62336">
        <ele>463</ele>
        <time>2012-08-08T05:53:48Z</time>
      </trkpt>
      <trkpt lat="45.57846" lon="4.62328">
        <ele>463</ele>
        <time>2012-08-08T05:53:55Z</time>
      </trkpt>
      <trkpt lat="45.57873" lon="4.62321">
        <ele>463</ele>
        <time>2012-08-08T05:54:03Z</time>
      </trkpt>
      <trkpt lat="45.57899" lon="4.62316">
        <ele>464</ele>
        <time>2012-08-08T05:54:12Z</time>
      </trkpt>
      <trkpt lat="45.5793" lon="4.6231">
        <ele>466</ele>
        <time>2012-08-08T05:54:23Z</time>
      </trkpt>
      <trkpt lat="45.5796" lon="4.62304">
        <ele>467</ele>
        <time>2012-08-08T05:54:33Z</time>
      </trkpt>
      <trkpt lat="45.5799" lon="4.62298">
        <ele>468</ele>
        <time>2012-08-08T05:54:43Z</time>
      </trkpt>
      <trkpt lat="45.58018" lon="4.62294">
        <ele>469</ele>
        <time>2012-08-08T05:54:53Z</time>
      </trkpt>
      <trkpt lat="45.58044" lon="4.62293">
        <ele>469</ele>
        <time>2012-08-08T05:55:02Z</time>
      </trkpt>
      <trkpt lat="45.5807" lon="4.62292">
        <ele>470</ele>
        <time>2012-08-08T05:55:11Z</time>
      </trkpt>
      <trkpt lat="45.581" lon="4.62288">
        <ele>470</ele>
        <time>2012-08-08T05:55:22Z</time>
      </trkpt>
      <trkpt lat="45.58123" lon="4.62287">
        <ele>472</ele>
        <time>2012-08-08T05:55:30Z</time>
      </trkpt>
      <trkpt lat="45.58157" lon="4.62291">
        <ele>473</ele>
        <time>2012-08-08T05:55:42Z</time>
      </trkpt>
      <trkpt lat="45.58189" lon="4.62308">
        <ele>474</ele>
        <time>2012-08-08T05:55:54Z</time>
      </trkpt>
      <trkpt lat="45.58218" lon="4.62324">
        <ele>475</ele>
        <time>2012-08-08T05:56:05Z</time>
      </trkpt>
      <trkpt lat="45.58241" lon="4.62336">
        <ele>475</ele>
        <time>2012-08-08T05:56:14Z</time>
      </trkpt>
      <trkpt lat="45.58266" lon="4.62344">
        <ele>476</ele>
        <time>2012-08-08T05:56:23Z</time>
      </trkpt>
      <trkpt lat="45.58291" lon="4.62337">
        <ele>477</ele>
        <time>2012-08-08T05:56:32Z</time>
      </trkpt>
      <trkpt lat="45.58312" lon="4.62321">
        <ele>478</ele>
        <time>2012-08-08T05:56:41Z</time>
      </trkpt>
      <trkpt lat="45.58326" lon="4.62296">
        <ele>478</ele>
        <time>2012-08-08T05:56:48Z</time>
      </trkpt>
      <trkpt lat="45.58336" lon="4.62255">
        <ele>478</ele>
        <time>2012-08-08T05:56:57Z</time>
      </trkpt>
      <trkpt lat="45.58338" lon="4.62212">
        <ele>479</ele>
        <time>2012-08-08T05:57:06Z</time>
      </trkpt>
      <trkpt lat="45.58331" lon="4.62161">
        <ele>480</ele>
        <time>2012-08-08T05:57:17Z</time>
      </trkpt>
      <trkpt lat="45.58323" lon="4.62132">
        <ele>480</ele>
        <time>2012-08-08T05:57:24Z</time>
      </trkpt>
      <trkpt lat="45.58323" lon="4.62127">
        <ele>480</ele>
        <time>2012-08-08T05:57:25Z</time>
      </trkpt>
      <trkpt lat="45.58323" lon="4.62123">
        <ele>481</ele>
        <time>2012-08-08T05:57:26Z</time>
      </trkpt>
      <trkpt lat="45.58322" lon="4.62119">
        <ele>480</ele>
        <time>2012-08-08T05:57:27Z</time>
      </trkpt>
      <trkpt lat="45.58318" lon="4.62092">
        <ele>480</ele>
        <time>2012-08-08T05:57:33Z</time>
      </trkpt>
      <trkpt lat="45.58322" lon="4.6205">
        <ele>481</ele>
        <time>2012-08-08T05:57:42Z</time>
      </trkpt>
      <trkpt lat="45.5833" lon="4.62015">
        <ele>482</ele>
        <time>2012-08-08T05:57:50Z</time>
      </trkpt>
      <trkpt lat="45.58339" lon="4.6196">
        <ele>483</ele>
        <time>2012-08-08T05:58:02Z</time>
      </trkpt>
      <trkpt lat="45.58347" lon="4.6191">
        <ele>484</ele>
        <time>2012-08-08T05:58:13Z</time>
      </trkpt>
      <trkpt lat="45.5836" lon="4.6186">
        <ele>484</ele>
        <time>2012-08-08T05:58:24Z</time>
      </trkpt>
      <trkpt lat="45.58374" lon="4.61828">
        <ele>485</ele>
        <time>2012-08-08T05:58:32Z</time>
      </trkpt>
      <trkpt lat="45.58396" lon="4.61794">
        <ele>486</ele>
        <time>2012-08-08T05:58:42Z</time>
      </trkpt>
      <trkpt lat="45.58419" lon="4.61768">
        <ele>487</ele>
        <time>2012-08-08T05:58:51Z</time>
      </trkpt>
      <trkpt lat="45.58432" lon="4.61747">
        <ele>487</ele>
        <time>2012-08-08T05:58:57Z</time>
      </trkpt>
      <trkpt lat="45.58457" lon="4.61725">
        <ele>488</ele>
        <time>2012-08-08T05:59:06Z</time>
      </trkpt>
      <trkpt lat="45.58483" lon="4.61704">
        <ele>489</ele>
        <time>2012-08-08T05:59:15Z</time>
      </trkpt>
      <trkpt lat="45.58508" lon="4.61679">
        <ele>489</ele>
        <time>2012-08-08T05:59:24Z</time>
      </trkpt>
      <trkpt lat="45.58523" lon="4.61644">
        <ele>489</ele>
        <time>2012-08-08T05:59:32Z</time>
      </trkpt>
      <trkpt lat="45.5853" lon="4.6161">
        <ele>489</ele>
        <time>2012-08-08T05:59:39Z</time>
      </trkpt>
      <trkpt lat="45.58534" lon="4.61563">
        <ele>489</ele>
        <time>2012-08-08T05:59:48Z</time>
      </trkpt>
      <trkpt lat="45.5854" lon="4.61509">
        <ele>490</ele>
        <time>2012-08-08T05:59:58Z</time>
      </trkpt>
      <trkpt lat="45.58543" lon="4.61481">
        <ele>489</ele>
        <time>2012-08-08T06:00:03Z</time>
      </trkpt>
      <trkpt lat="45.58543" lon="4.61475">
        <ele>489</ele>
        <time>2012-08-08T06:00:04Z</time>
      </trkpt>
      <trkpt lat="45.58544" lon="4.61469">
        <ele>489</ele>
        <time>2012-08-08T06:00:05Z</time>
      </trkpt>
      <trkpt lat="45.58544" lon="4.61463">
        <ele>490</ele>
        <time>2012-08-08T06:00:06Z</time>
      </trkpt>
      <trkpt lat="45.58543" lon="4.61457">
        <ele>489</ele>
        <time>2012-08-08T06:00:07Z</time>
      </trkpt>
      <trkpt lat="45.58543" lon="4.61451">
        <ele>490</ele>
        <time>2012-08-08T06:00:08Z</time>
      </trkpt>
      <trkpt lat="45.5854" lon="4.61426">
        <ele>489</ele>
        <time>2012-08-08T06:00:12Z</time>
      </trkpt>
      <trkpt lat="45.58528" lon="4.6137">
        <ele>489</ele>
        <time>2012-08-08T06:00:22Z</time>
      </trkpt>
      <trkpt lat="45.58515" lon="4.6131">
        <ele>490</ele>
        <time>2012-08-08T06:00:32Z</time>
      </trkpt>
      <trkpt lat="45.58506" lon="4.61265">
        <ele>489</ele>
        <time>2012-08-08T06:00:39Z</time>
      </trkpt>
      <trkpt lat="45.58507" lon="4.61218">
        <ele>489</ele>
        <time>2012-08-08T06:00:46Z</time>
      </trkpt>
      <trkpt lat="45.58508" lon="4.61212">
        <ele>489</ele>
        <time>2012-08-08T06:00:47Z</time>
      </trkpt>
      <trkpt lat="45.5851" lon="4.61205">
        <ele>489</ele>
        <time>2012-08-08T06:00:48Z</time>
      </trkpt>
      <trkpt lat="45.58533" lon="4.61153">
        <ele>489</ele>
        <time>2012-08-08T06:00:57Z</time>
      </trkpt>
      <trkpt lat="45.58554" lon="4.61128">
        <ele>488</ele>
        <time>2012-08-08T06:01:03Z</time>
      </trkpt>
      <trkpt lat="45.58567" lon="4.61116">
        <ele>488</ele>
        <time>2012-08-08T06:01:07Z</time>
      </trkpt>
      <trkpt lat="45.58571" lon="4.61114">
        <ele>488</ele>
        <time>2012-08-08T06:01:08Z</time>
      </trkpt>
      <trkpt lat="45.58591" lon="4.61106">
        <ele>488</ele>
        <time>2012-08-08T06:01:12Z</time>
      </trkpt>
      <trkpt lat="45.58618" lon="4.61097">
        <ele>488</ele>
        <time>2012-08-08T06:01:18Z</time>
      </trkpt>
      <trkpt lat="45.58635" lon="4.61093">
        <ele>487</ele>
        <time>2012-08-08T06:01:22Z</time>
      </trkpt>
      <trkpt lat="45.5867" lon="4.61082">
        <ele>486</ele>
        <time>2012-08-08T06:01:30Z</time>
      </trkpt>
      <trkpt lat="45.58713" lon="4.61068">
        <ele>485</ele>
        <time>2012-08-08T06:01:39Z</time>
      </trkpt>
      <trkpt lat="45.58761" lon="4.6105">
        <ele>484</ele>
        <time>2012-08-08T06:01:49Z</time>
      </trkpt>
      <trkpt lat="45.58769" lon="4.61047">
        <ele>484</ele>
        <time>2012-08-08T06:01:51Z</time>
      </trkpt>
      <trkpt lat="45.58779" lon="4.61046">
        <ele>484</ele>
        <time>2012-08-08T06:01:53Z</time>
      </trkpt>
      <trkpt lat="45.58797" lon="4.6105">
        <ele>484</ele>
        <time>2012-08-08T06:01:57Z</time>
      </trkpt>
      <trkpt lat="45.58801" lon="4.61052">
        <ele>484</ele>
        <time>2012-08-08T06:01:58Z</time>
      </trkpt>
      <trkpt lat="45.58806" lon="4.61055">
        <ele>483</ele>
        <time>2012-08-08T06:01:59Z</time>
      </trkpt>
      <trkpt lat="45.58836" lon="4.61083">
        <ele>483</ele>
        <time>2012-08-08T06:02:06Z</time>
      </trkpt>
      <trkpt lat="45.58839" lon="4.61089">
        <ele>483</ele>
        <time>2012-08-08T06:02:07Z</time>
      </trkpt>
      <trkpt lat="45.58855" lon="4.61134">
        <ele>483</ele>
        <time>2012-08-08T06:02:14Z</time>
      </trkpt>
      <trkpt lat="45.58858" lon="4.6114">
        <ele>483</ele>
        <time>2012-08-08T06:02:15Z</time>
      </trkpt>
      <trkpt lat="45.58883" lon="4.61173">
        <ele>483</ele>
        <time>2012-08-08T06:02:22Z</time>
      </trkpt>
      <trkpt lat="45.58888" lon="4.61176">
        <ele>483</ele>
        <time>2012-08-08T06:02:23Z</time>
      </trkpt>
      <trkpt lat="45.58921" lon="4.61186">
        <ele>483</ele>
        <time>2012-08-08T06:02:30Z</time>
      </trkpt>
      <trkpt lat="45.58939" lon="4.61181">
        <ele>482</ele>
        <time>2012-08-08T06:02:34Z</time>
      </trkpt>
      <trkpt lat="45.58944" lon="4.61178">
        <ele>482</ele>
        <time>2012-08-08T06:02:35Z</time>
      </trkpt>
      <trkpt lat="45.58948" lon="4.61175">
        <ele>482</ele>
        <time>2012-08-08T06:02:36Z</time>
      </trkpt>
      <trkpt lat="45.58953" lon="4.61171">
        <ele>482</ele>
        <time>2012-08-08T06:02:37Z</time>
      </trkpt>
      <trkpt lat="45.58957" lon="4.61166">
        <ele>482</ele>
        <time>2012-08-08T06:02:38Z</time>
      </trkpt>
      <trkpt lat="45.58993" lon="4.61128">
        <ele>482</ele>
        <time>2012-08-08T06:02:47Z</time>
      </trkpt>
      <trkpt lat="45.59043" lon="4.61075">
        <ele>482</ele>
        <time>2012-08-08T06:03:00Z</time>
      </trkpt>
      <trkpt lat="45.59083" lon="4.61032">
        <ele>481</ele>
        <time>2012-08-08T06:03:10Z</time>
      </trkpt>
      <trkpt lat="45.59117" lon="4.60999">
        <ele>482</ele>
        <time>2012-08-08T06:03:19Z</time>
      </trkpt>
      <trkpt lat="45.59121" lon="4.60997">
        <ele>482</ele>
        <time>2012-08-08T06:03:20Z</time>
      </trkpt>
      <trkpt lat="45.59133" lon="4.60992">
        <ele>482</ele>
        <time>2012-08-08T06:03:23Z</time>
      </trkpt>
      <trkpt lat="45.5917" lon="4.6099">
        <ele>484</ele>
        <time>2012-08-08T06:03:32Z</time>
      </trkpt>
      <trkpt lat="45.59204" lon="4.60987">
        <ele>485</ele>
        <time>2012-08-08T06:03:41Z</time>
      </trkpt>
      <trkpt lat="45.59229" lon="4.60971">
        <ele>485</ele>
        <time>2012-08-08T06:03:49Z</time>
      </trkpt>
      <trkpt lat="45.59247" lon="4.60947">
        <ele>485</ele>
        <time>2012-08-08T06:03:57Z</time>
      </trkpt>
      <trkpt lat="45.59251" lon="4.60943">
        <ele>485</ele>
        <time>2012-08-08T06:03:59Z</time>
      </trkpt>
      <trkpt lat="45.59253" lon="4.60942">
        <ele>485</ele>
        <time>2012-08-08T06:04:00Z</time>
      </trkpt>
      <trkpt lat="45.59256" lon="4.60943">
        <ele>485</ele>
        <time>2012-08-08T06:04:01Z</time>
      </trkpt>
      <trkpt lat="45.59259" lon="4.60945">
        <ele>485</ele>
        <time>2012-08-08T06:04:02Z</time>
      </trkpt>
      <trkpt lat="45.59261" lon="4.60948">
        <ele>485</ele>
        <time>2012-08-08T06:04:03Z</time>
      </trkpt>
      <trkpt lat="45.59261" lon="4.60952">
        <ele>485</ele>
        <time>2012-08-08T06:04:04Z</time>
      </trkpt>
      <trkpt lat="45.59261" lon="4.60956">
        <ele>486</ele>
        <time>2012-08-08T06:04:05Z</time>
      </trkpt>
      <trkpt lat="45.5926" lon="4.6096">
        <ele>486</ele>
        <time>2012-08-08T06:04:06Z</time>
      </trkpt>
      <trkpt lat="45.59258" lon="4.60964">
        <ele>486</ele>
        <time>2012-08-08T06:04:07Z</time>
      </trkpt>
      <trkpt lat="45.59256" lon="4.60968">
        <ele>486</ele>
        <time>2012-08-08T06:04:08Z</time>
      </trkpt>
      <trkpt lat="45.59245" lon="4.61007">
        <ele>488</ele>
        <time>2012-08-08T06:04:18Z</time>
      </trkpt>
      <trkpt lat="45.59237" lon="4.61053">
        <ele>491</ele>
        <time>2012-08-08T06:04:29Z</time>
      </trkpt>
      <trkpt lat="45.59232" lon="4.6108">
        <ele>492</ele>
        <time>2012-08-08T06:04:36Z</time>
      </trkpt>
      <trkpt lat="45.59232" lon="4.61119">
        <ele>493</ele>
        <time>2012-08-08T06:04:45Z</time>
      </trkpt>
      <trkpt lat="45.59246" lon="4.61145">
        <ele>495</ele>
        <time>2012-08-08T06:04:53Z</time>
      </trkpt>
      <trkpt lat="45.59271" lon="4.61167">
        <ele>496</ele>
        <time>2012-08-08T06:05:03Z</time>
      </trkpt>
      <trkpt lat="45.59294" lon="4.61188">
        <ele>498</ele>
        <time>2012-08-08T06:05:13Z</time>
      </trkpt>
      <trkpt lat="45.59302" lon="4.61194">
        <ele>498</ele>
        <time>2012-08-08T06:05:17Z</time>
      </trkpt>
      <trkpt lat="45.59305" lon="4.61194">
        <ele>499</ele>
        <time>2012-08-08T06:05:18Z</time>
      </trkpt>
      <trkpt lat="45.59308" lon="4.61192">
        <ele>499</ele>
        <time>2012-08-08T06:05:19Z</time>
      </trkpt>
      <trkpt lat="45.59342" lon="4.61165">
        <ele>499</ele>
        <time>2012-08-08T06:05:30Z</time>
      </trkpt>
      <trkpt lat="45.59377" lon="4.61134">
        <ele>500</ele>
        <time>2012-08-08T06:05:42Z</time>
      </trkpt>
      <trkpt lat="45.59398" lon="4.61114">
        <ele>501</ele>
        <time>2012-08-08T06:05:50Z</time>
      </trkpt>
      <trkpt lat="45.59418" lon="4.61082">
        <ele>503</ele>
        <time>2012-08-08T06:06:00Z</time>
      </trkpt>
      <trkpt lat="45.59432" lon="4.61053">
        <ele>504</ele>
        <time>2012-08-08T06:06:09Z</time>
      </trkpt>
      <trkpt lat="45.59448" lon="4.61021">
        <ele>506</ele>
        <time>2012-08-08T06:06:19Z</time>
      </trkpt>
      <trkpt lat="45.59459" lon="4.60998">
        <ele>508</ele>
        <time>2012-08-08T06:06:27Z</time>
      </trkpt>
      <trkpt lat="45.59476" lon="4.60969">
        <ele>509</ele>
        <time>2012-08-08T06:06:38Z</time>
      </trkpt>
      <trkpt lat="45.5948" lon="4.60963">
        <ele>511</ele>
        <time>2012-08-08T06:06:41Z</time>
      </trkpt>
      <trkpt lat="45.59493" lon="4.60959">
        <ele>512</ele>
        <time>2012-08-08T06:06:48Z</time>
      </trkpt>
      <trkpt lat="45.59507" lon="4.60969">
        <ele>513</ele>
        <time>2012-08-08T06:06:55Z</time>
      </trkpt>
      <trkpt lat="45.59526" lon="4.60982">
        <ele>515</ele>
        <time>2012-08-08T06:07:04Z</time>
      </trkpt>
      <trkpt lat="45.59546" lon="4.60992">
        <ele>516</ele>
        <time>2012-08-08T06:07:13Z</time>
      </trkpt>
      <trkpt lat="45.59564" lon="4.60993">
        <ele>517</ele>
        <time>2012-08-08T06:07:21Z</time>
      </trkpt>
      <trkpt lat="45.5958" lon="4.6098">
        <ele>519</ele>
        <time>2012-08-08T06:07:29Z</time>
      </trkpt>
      <trkpt lat="45.59599" lon="4.60958">
        <ele>521</ele>
        <time>2012-08-08T06:07:39Z</time>
      </trkpt>
      <trkpt lat="45.59616" lon="4.60937">
        <ele>522</ele>
        <time>2012-08-08T06:07:48Z</time>
      </trkpt>
      <trkpt lat="45.59634" lon="4.60916">
        <ele>523</ele>
        <time>2012-08-08T06:07:57Z</time>
      </trkpt>
      <trkpt lat="45.59661" lon="4.60884">
        <ele>524</ele>
        <time>2012-08-08T06:08:10Z</time>
      </trkpt>
      <trkpt lat="45.5969" lon="4.60854">
        <ele>524</ele>
        <time>2012-08-08T06:08:23Z</time>
      </trkpt>
      <trkpt lat="45.59714" lon="4.60829">
        <ele>525</ele>
        <time>2012-08-08T06:08:33Z</time>
      </trkpt>
      <trkpt lat="45.59745" lon="4.608">
        <ele>527</ele>
        <time>2012-08-08T06:08:45Z</time>
      </trkpt>
      <trkpt lat="45.59763" lon="4.60777">
        <ele>528</ele>
        <time>2012-08-08T06:08:53Z</time>
      </trkpt>
      <trkpt lat="45.59782" lon="4.60759">
        <ele>529</ele>
        <time>2012-08-08T06:09:01Z</time>
      </trkpt>
      <trkpt lat="45.59799" lon="4.60754">
        <ele>530</ele>
        <time>2012-08-08T06:09:07Z</time>
      </trkpt>
      <trkpt lat="45.5982" lon="4.60742">
        <ele>531</ele>
        <time>2012-08-08T06:09:15Z</time>
      </trkpt>
      <trkpt lat="45.59854" lon="4.60716">
        <ele>531</ele>
        <time>2012-08-08T06:09:27Z</time>
      </trkpt>
      <trkpt lat="45.59883" lon="4.60693">
        <ele>532</ele>
        <time>2012-08-08T06:09:38Z</time>
      </trkpt>
      <trkpt lat="45.59911" lon="4.6069">
        <ele>532</ele>
        <time>2012-08-08T06:09:46Z</time>
      </trkpt>
      <trkpt lat="45.59944" lon="4.60683">
        <ele>532</ele>
        <time>2012-08-08T06:09:55Z</time>
      </trkpt>
      <trkpt lat="45.59978" lon="4.60673">
        <ele>533</ele>
        <time>2012-08-08T06:10:05Z</time>
      </trkpt>
      <trkpt lat="45.59997" lon="4.60668">
        <ele>534</ele>
        <time>2012-08-08T06:10:11Z</time>
      </trkpt>
      <trkpt lat="45.59999" lon="4.60665">
        <ele>534</ele>
        <time>2012-08-08T06:10:12Z</time>
      </trkpt>
      <trkpt lat="45.60002" lon="4.60642">
        <ele>535</ele>
        <time>2012-08-08T06:10:17Z</time>
      </trkpt>
      <trkpt lat="45.60006" lon="4.60595">
        <ele>536</ele>
        <time>2012-08-08T06:10:27Z</time>
      </trkpt>
      <trkpt lat="45.60013" lon="4.60563">
        <ele>535</ele>
        <time>2012-08-08T06:10:34Z</time>
      </trkpt>
      <trkpt lat="45.60027" lon="4.60522">
        <ele>537</ele>
        <time>2012-08-08T06:10:44Z</time>
      </trkpt>
      <trkpt lat="45.60041" lon="4.60499">
        <ele>538</ele>
        <time>2012-08-08T06:10:52Z</time>
      </trkpt>
      <trkpt lat="45.60053" lon="4.6048">
        <ele>540</ele>
        <time>2012-08-08T06:11:00Z</time>
      </trkpt>
      <trkpt lat="45.60059" lon="4.60457">
        <ele>542</ele>
        <time>2012-08-08T06:11:08Z</time>
      </trkpt>
      <trkpt lat="45.60064" lon="4.6043">
        <ele>544</ele>
        <time>2012-08-08T06:11:17Z</time>
      </trkpt>
      <trkpt lat="45.6007" lon="4.60405">
        <ele>548</ele>
        <time>2012-08-08T06:11:26Z</time>
      </trkpt>
      <trkpt lat="45.60071" lon="4.60391">
        <ele>548</ele>
        <time>2012-08-08T06:11:32Z</time>
      </trkpt>
      <trkpt lat="45.60074" lon="4.60363">
        <ele>550</ele>
        <time>2012-08-08T06:11:44Z</time>
      </trkpt>
      <trkpt lat="45.60075" lon="4.60359">
        <ele>551</ele>
        <time>2012-08-08T06:11:46Z</time>
      </trkpt>
      <trkpt lat="45.60075" lon="4.60341">
        <ele>553</ele>
        <time>2012-08-08T06:11:55Z</time>
      </trkpt>
      <trkpt lat="45.60073" lon="4.60326">
        <ele>556</ele>
        <time>2012-08-08T06:12:04Z</time>
      </trkpt>
      <trkpt lat="45.60073" lon="4.60323">
        <ele>556</ele>
        <time>2012-08-08T06:12:06Z</time>
      </trkpt>
      <trkpt lat="45.60072" lon="4.60307">
        <ele>558</ele>
        <time>2012-08-08T06:12:15Z</time>
      </trkpt>
      <trkpt lat="45.6007" lon="4.60292">
        <ele>559</ele>
        <time>2012-08-08T06:12:23Z</time>
      </trkpt>
      <trkpt lat="45.60066" lon="4.60276">
        <ele>560</ele>
        <time>2012-08-08T06:12:31Z</time>
      </trkpt>
      <trkpt lat="45.60057" lon="4.60253">
        <ele>561</ele>
        <time>2012-08-08T06:12:43Z</time>
      </trkpt>
      <trkpt lat="45.60049" lon="4.60231">
        <ele>563</ele>
        <time>2012-08-08T06:12:55Z</time>
      </trkpt>
      <trkpt lat="45.60047" lon="4.60225">
        <ele>563</ele>
        <time>2012-08-08T06:12:58Z</time>
      </trkpt>
      <trkpt lat="45.60046" lon="4.60222">
        <ele>563</ele>
        <time>2012-08-08T06:12:59Z</time>
      </trkpt>
      <trkpt lat="45.60046" lon="4.6022">
        <ele>563</ele>
        <time>2012-08-08T06:13:00Z</time>
      </trkpt>
      <trkpt lat="45.60046" lon="4.60218">
        <ele>563</ele>
        <time>2012-08-08T06:13:01Z</time>
      </trkpt>
      <trkpt lat="45.60045" lon="4.60216">
        <ele>563</ele>
        <time>2012-08-08T06:13:02Z</time>
      </trkpt>
      <trkpt lat="45.60044" lon="4.60194">
        <ele>565</ele>
        <time>2012-08-08T06:13:12Z</time>
      </trkpt>
      <trkpt lat="45.60045" lon="4.60172">
        <ele>567</ele>
        <time>2012-08-08T06:13:22Z</time>
      </trkpt>
      <trkpt lat="45.60046" lon="4.60152">
        <ele>569</ele>
        <time>2012-08-08T06:13:31Z</time>
      </trkpt>
      <trkpt lat="45.60046" lon="4.60133">
        <ele>571</ele>
        <time>2012-08-08T06:13:40Z</time>
      </trkpt>
      <trkpt lat="45.60043" lon="4.6012">
        <ele>572</ele>
        <time>2012-08-08T06:13:47Z</time>
      </trkpt>
      <trkpt lat="45.60037" lon="4.60099">
        <ele>573</ele>
        <time>2012-08-08T06:13:57Z</time>
      </trkpt>
      <trkpt lat="45.60032" lon="4.60076">
        <ele>575</ele>
        <time>2012-08-08T06:14:07Z</time>
      </trkpt>
      <trkpt lat="45.60031" lon="4.60054">
        <ele>575</ele>
        <time>2012-08-08T06:14:16Z</time>
      </trkpt>
      <trkpt lat="45.60038" lon="4.60026">
        <ele>575</ele>
        <time>2012-08-08T06:14:27Z</time>
      </trkpt>
      <trkpt lat="45.60038" lon="4.60024">
        <ele>575</ele>
        <time>2012-08-08T06:14:34Z</time>
      </trkpt>
      <trkpt lat="45.60039" lon="4.60024">
        <ele>576</ele>
        <time>2012-08-08T06:14:52Z</time>
      </trkpt>
      <trkpt lat="45.60038" lon="4.60024">
        <ele>575</ele>
        <time>2012-08-08T06:15:07Z</time>
      </trkpt>
      <trkpt lat="45.6004" lon="4.60015">
        <ele>576</ele>
        <time>2012-08-08T06:15:15Z</time>
      </trkpt>
      <trkpt lat="45.60049" lon="4.5999">
        <ele>577</ele>
        <time>2012-08-08T06:15:24Z</time>
      </trkpt>
      <trkpt lat="45.60058" lon="4.59964">
        <ele>578</ele>
        <time>2012-08-08T06:15:33Z</time>
      </trkpt>
      <trkpt lat="45.60067" lon="4.59936">
        <ele>578</ele>
        <time>2012-08-08T06:15:43Z</time>
      </trkpt>
      <trkpt lat="45.60075" lon="4.59912">
        <ele>580</ele>
        <time>2012-08-08T06:15:52Z</time>
      </trkpt>
      <trkpt lat="45.60082" lon="4.59894">
        <ele>582</ele>
        <time>2012-08-08T06:16:00Z</time>
      </trkpt>
      <trkpt lat="45.60085" lon="4.59877">
        <ele>584</ele>
        <time>2012-08-08T06:16:08Z</time>
      </trkpt>
      <trkpt lat="45.6008" lon="4.59857">
        <ele>585</ele>
        <time>2012-08-08T06:16:16Z</time>
      </trkpt>
      <trkpt lat="45.60076" lon="4.59834">
        <ele>588</ele>
        <time>2012-08-08T06:16:26Z</time>
      </trkpt>
      <trkpt lat="45.60069" lon="4.59819">
        <ele>590</ele>
        <time>2012-08-08T06:16:34Z</time>
      </trkpt>
      <trkpt lat="45.60058" lon="4.5981">
        <ele>590</ele>
        <time>2012-08-08T06:16:41Z</time>
      </trkpt>
      <trkpt lat="45.60046" lon="4.59795">
        <ele>591</ele>
        <time>2012-08-08T06:16:49Z</time>
      </trkpt>
      <trkpt lat="45.60033" lon="4.5977">
        <ele>592</ele>
        <time>2012-08-08T06:17:00Z</time>
      </trkpt>
      <trkpt lat="45.60018" lon="4.59753">
        <ele>593</ele>
        <time>2012-08-08T06:17:08Z</time>
      </trkpt>
      <trkpt lat="45.60007" lon="4.59735">
        <ele>593</ele>
        <time>2012-08-08T06:17:15Z</time>
      </trkpt>
      <trkpt lat="45.59993" lon="4.59708">
        <ele>592</ele>
        <time>2012-08-08T06:17:24Z</time>
      </trkpt>
      <trkpt lat="45.59979" lon="4.59677">
        <ele>593</ele>
        <time>2012-08-08T06:17:34Z</time>
      </trkpt>
      <trkpt lat="45.59969" lon="4.59652">
        <ele>595</ele>
        <time>2012-08-08T06:17:43Z</time>
      </trkpt>
      <trkpt lat="45.59952" lon="4.59631">
        <ele>595</ele>
        <time>2012-08-08T06:17:51Z</time>
      </trkpt>
      <trkpt lat="45.59933" lon="4.59609">
        <ele>594</ele>
        <time>2012-08-08T06:17:58Z</time>
      </trkpt>
      <trkpt lat="45.59915" lon="4.5959">
        <ele>592</ele>
        <time>2012-08-08T06:18:03Z</time>
      </trkpt>
      <trkpt lat="45.59905" lon="4.59579">
        <ele>590</ele>
        <time>2012-08-08T06:18:05Z</time>
      </trkpt>
      <trkpt lat="45.59901" lon="4.59575">
        <ele>590</ele>
        <time>2012-08-08T06:18:06Z</time>
      </trkpt>
      <trkpt lat="45.59884" lon="4.59562">
        <ele>591</ele>
        <time>2012-08-08T06:18:11Z</time>
      </trkpt>
      <trkpt lat="45.59874" lon="4.59557">
        <ele>592</ele>
        <time>2012-08-08T06:18:17Z</time>
      </trkpt>
      <trkpt lat="45.59861" lon="4.59548">
        <ele>595</ele>
        <time>2012-08-08T06:18:27Z</time>
      </trkpt>
      <trkpt lat="45.59848" lon="4.59539">
        <ele>597</ele>
        <time>2012-08-08T06:18:37Z</time>
      </trkpt>
      <trkpt lat="45.59838" lon="4.59537">
        <ele>599</ele>
        <time>2012-08-08T06:18:44Z</time>
      </trkpt>
      <trkpt lat="45.59837" lon="4.59538">
        <ele>599</ele>
        <time>2012-08-08T06:18:45Z</time>
      </trkpt>
      <trkpt lat="45.59835" lon="4.59539">
        <ele>599</ele>
        <time>2012-08-08T06:18:46Z</time>
      </trkpt>
      <trkpt lat="45.59834" lon="4.5954">
        <ele>599</ele>
        <time>2012-08-08T06:18:47Z</time>
      </trkpt>
      <trkpt lat="45.59832" lon="4.59541">
        <ele>600</ele>
        <time>2012-08-08T06:18:48Z</time>
      </trkpt>
      <trkpt lat="45.59826" lon="4.59557">
        <ele>600</ele>
        <time>2012-08-08T06:18:56Z</time>
      </trkpt>
      <trkpt lat="45.59818" lon="4.59571">
        <ele>602</ele>
        <time>2012-08-08T06:19:04Z</time>
      </trkpt>
      <trkpt lat="45.59807" lon="4.59584">
        <ele>603</ele>
        <time>2012-08-08T06:19:13Z</time>
      </trkpt>
      <trkpt lat="45.59796" lon="4.59597">
        <ele>606</ele>
        <time>2012-08-08T06:19:23Z</time>
      </trkpt>
      <trkpt lat="45.59785" lon="4.59605">
        <ele>607</ele>
        <time>2012-08-08T06:19:31Z</time>
      </trkpt>
      <trkpt lat="45.59767" lon="4.5962">
        <ele>608</ele>
        <time>2012-08-08T06:19:43Z</time>
      </trkpt>
      <trkpt lat="45.59751" lon="4.59636">
        <ele>609</ele>
        <time>2012-08-08T06:19:53Z</time>
      </trkpt>
      <trkpt lat="45.5974" lon="4.59646">
        <ele>610</ele>
        <time>2012-08-08T06:20:00Z</time>
      </trkpt>
      <trkpt lat="45.59738" lon="4.59646">
        <ele>611</ele>
        <time>2012-08-08T06:20:01Z</time>
      </trkpt>
      <trkpt lat="45.59736" lon="4.59646">
        <ele>611</ele>
        <time>2012-08-08T06:20:02Z</time>
      </trkpt>
      <trkpt lat="45.59735" lon="4.59645">
        <ele>611</ele>
        <time>2012-08-08T06:20:03Z</time>
      </trkpt>
      <trkpt lat="45.59733" lon="4.59645">
        <ele>612</ele>
        <time>2012-08-08T06:20:04Z</time>
      </trkpt>
      <trkpt lat="45.59732" lon="4.59644">
        <ele>612</ele>
        <time>2012-08-08T06:20:05Z</time>
      </trkpt>
      <trkpt lat="45.5972" lon="4.5964">
        <ele>613</ele>
        <time>2012-08-08T06:20:14Z</time>
      </trkpt>
      <trkpt lat="45.59706" lon="4.59634">
        <ele>615</ele>
        <time>2012-08-08T06:20:23Z</time>
      </trkpt>
      <trkpt lat="45.59693" lon="4.59626">
        <ele>616</ele>
        <time>2012-08-08T06:20:32Z</time>
      </trkpt>
      <trkpt lat="45.5968" lon="4.59618">
        <ele>617</ele>
        <time>2012-08-08T06:20:41Z</time>
      </trkpt>
      <trkpt lat="45.59667" lon="4.59604">
        <ele>618</ele>
        <time>2012-08-08T06:20:51Z</time>
      </trkpt>
      <trkpt lat="45.59654" lon="4.59592">
        <ele>619</ele>
        <time>2012-08-08T06:21:01Z</time>
      </trkpt>
      <trkpt lat="45.59649" lon="4.59584">
        <ele>619</ele>
        <time>2012-08-08T06:21:05Z</time>
      </trkpt>
      <trkpt lat="45.59649" lon="4.59564">
        <ele>620</ele>
        <time>2012-08-08T06:21:13Z</time>
      </trkpt>
      <trkpt lat="45.59651" lon="4.59553">
        <ele>621</ele>
        <time>2012-08-08T06:21:18Z</time>
      </trkpt>
      <trkpt lat="45.59657" lon="4.59532">
        <ele>622</ele>
        <time>2012-08-08T06:21:28Z</time>
      </trkpt>
      <trkpt lat="45.59662" lon="4.59518">
        <ele>624</ele>
        <time>2012-08-08T06:21:36Z</time>
      </trkpt>
      <trkpt lat="45.59668" lon="4.59501">
        <ele>626</ele>
        <time>2012-08-08T06:21:46Z</time>
      </trkpt>
      <trkpt lat="45.5967" lon="4.59485">
        <ele>627</ele>
        <time>2012-08-08T06:21:55Z</time>
      </trkpt>
      <trkpt lat="45.5967" lon="4.59476">
        <ele>628</ele>
        <time>2012-08-08T06:22:00Z</time>
      </trkpt>
      <trkpt lat="45.59673" lon="4.59454">
        <ele>632</ele>
        <time>2012-08-08T06:22:12Z</time>
      </trkpt>
      <trkpt lat="45.59676" lon="4.59436">
        <ele>635</ele>
        <time>2012-08-08T06:22:22Z</time>
      </trkpt>
      <trkpt lat="45.59677" lon="4.59419">
        <ele>637</ele>
        <time>2012-08-08T06:22:32Z</time>
      </trkpt>
      <trkpt lat="45.59679" lon="4.59408">
        <ele>639</ele>
        <time>2012-08-08T06:22:38Z</time>
      </trkpt>
      <trkpt lat="45.59681" lon="4.59395">
        <ele>640</ele>
        <time>2012-08-08T06:22:46Z</time>
      </trkpt>
      <trkpt lat="45.59682" lon="4.59382">
        <ele>642</ele>
        <time>2012-08-08T06:22:53Z</time>
      </trkpt>
      <trkpt lat="45.59683" lon="4.59364">
        <ele>644</ele>
        <time>2012-08-08T06:23:04Z</time>
      </trkpt>
      <trkpt lat="45.59686" lon="4.59344">
        <ele>648</ele>
        <time>2012-08-08T06:23:15Z</time>
      </trkpt>
      <trkpt lat="45.59689" lon="4.59328">
        <ele>650</ele>
        <time>2012-08-08T06:23:24Z</time>
      </trkpt>
      <trkpt lat="45.59687" lon="4.59313">
        <ele>651</ele>
        <time>2012-08-08T06:23:33Z</time>
      </trkpt>
      <trkpt lat="45.59686" lon="4.59311">
        <ele>651</ele>
        <time>2012-08-08T06:23:34Z</time>
      </trkpt>
      <trkpt lat="45.59686" lon="4.59292">
        <ele>653</ele>
        <time>2012-08-08T06:23:45Z</time>
      </trkpt>
      <trkpt lat="45.59689" lon="4.59273">
        <ele>657</ele>
        <time>2012-08-08T06:23:56Z</time>
      </trkpt>
      <trkpt lat="45.59691" lon="4.59255">
        <ele>659</ele>
        <time>2012-08-08T06:24:06Z</time>
      </trkpt>
      <trkpt lat="45.59692" lon="4.59238">
        <ele>661</ele>
        <time>2012-08-08T06:24:16Z</time>
      </trkpt>
      <trkpt lat="45.59692" lon="4.59234">
        <ele>662</ele>
        <time>2012-08-08T06:24:18Z</time>
      </trkpt>
      <trkpt lat="45.59695" lon="4.59213">
        <ele>665</ele>
        <time>2012-08-08T06:24:30Z</time>
      </trkpt>
      <trkpt lat="45.59697" lon="4.59194">
        <ele>668</ele>
        <time>2012-08-08T06:24:41Z</time>
      </trkpt>
      <trkpt lat="45.59699" lon="4.59175">
        <ele>671</ele>
        <time>2012-08-08T06:24:52Z</time>
      </trkpt>
      <trkpt lat="45.59701" lon="4.59159">
        <ele>673</ele>
        <time>2012-08-08T06:25:01Z</time>
      </trkpt>
      <trkpt lat="45.59704" lon="4.59142">
        <ele>675</ele>
        <time>2012-08-08T06:25:11Z</time>
      </trkpt>
      <trkpt lat="45.59709" lon="4.5913">
        <ele>676</ele>
        <time>2012-08-08T06:25:19Z</time>
      </trkpt>
      <trkpt lat="45.59715" lon="4.59115">
        <ele>679</ele>
        <time>2012-08-08T06:25:29Z</time>
      </trkpt>
      <trkpt lat="45.59716" lon="4.5911">
        <ele>680</ele>
        <time>2012-08-08T06:25:32Z</time>
      </trkpt>
      <trkpt lat="45.59721" lon="4.59092">
        <ele>683</ele>
        <time>2012-08-08T06:25:43Z</time>
      </trkpt>
      <trkpt lat="45.59722" lon="4.59091">
        <ele>683</ele>
        <time>2012-08-08T06:25:44Z</time>
      </trkpt>
      <trkpt lat="45.59726" lon="4.59074">
        <ele>684</ele>
        <time>2012-08-08T06:25:54Z</time>
      </trkpt>
      <trkpt lat="45.59726" lon="4.5906">
        <ele>687</ele>
        <time>2012-08-08T06:26:02Z</time>
      </trkpt>
      <trkpt lat="45.59725" lon="4.59046">
        <ele>689</ele>
        <time>2012-08-08T06:26:10Z</time>
      </trkpt>
      <trkpt lat="45.59722" lon="4.59024">
        <ele>693</ele>
        <time>2012-08-08T06:26:22Z</time>
      </trkpt>
      <trkpt lat="45.59722" lon="4.59013">
        <ele>694</ele>
        <time>2012-08-08T06:26:28Z</time>
      </trkpt>
      <trkpt lat="45.59721" lon="4.59001">
        <ele>695</ele>
        <time>2012-08-08T06:26:36Z</time>
      </trkpt>
      <trkpt lat="45.59719" lon="4.58984">
        <ele>695</ele>
        <time>2012-08-08T06:26:48Z</time>
      </trkpt>
      <trkpt lat="45.59717" lon="4.58967">
        <ele>695</ele>
        <time>2012-08-08T06:26:58Z</time>
      </trkpt>
      <trkpt lat="45.59716" lon="4.58954">
        <ele>697</ele>
        <time>2012-08-08T06:27:06Z</time>
      </trkpt>
      <trkpt lat="45.59714" lon="4.58938">
        <ele>697</ele>
        <time>2012-08-08T06:27:16Z</time>
      </trkpt>
      <trkpt lat="45.59714" lon="4.58921">
        <ele>698</ele>
        <time>2012-08-08T06:27:27Z</time>
      </trkpt>
      <trkpt lat="45.59715" lon="4.5892">
        <ele>698</ele>
        <time>2012-08-08T06:27:34Z</time>
      </trkpt>
      <trkpt lat="45.59715" lon="4.58918">
        <ele>697</ele>
        <time>2012-08-08T06:27:49Z</time>
      </trkpt>
      <trkpt lat="45.59715" lon="4.58918">
        <ele>698</ele>
        <time>2012-08-08T06:28:05Z</time>
      </trkpt>
      <trkpt lat="45.59715" lon="4.58918">
        <ele>698</ele>
        <time>2012-08-08T06:28:19Z</time>
      </trkpt>
      <trkpt lat="45.59712" lon="4.58918">
        <ele>698</ele>
        <time>2012-08-08T06:28:33Z</time>
      </trkpt>
      <trkpt lat="45.59712" lon="4.58915">
        <ele>698</ele>
        <time>2012-08-08T06:28:48Z</time>
      </trkpt>
      <trkpt lat="45.59723" lon="4.58909">
        <ele>699</ele>
        <time>2012-08-08T06:28:59Z</time>
      </trkpt>
      <trkpt lat="45.59733" lon="4.589">
        <ele>700</ele>
        <time>2012-08-08T06:29:09Z</time>
      </trkpt>
      <trkpt lat="45.59736" lon="4.58894">
        <ele>700</ele>
        <time>2012-08-08T06:29:13Z</time>
      </trkpt>
      <trkpt lat="45.5975" lon="4.58879">
        <ele>703</ele>
        <time>2012-08-08T06:29:27Z</time>
      </trkpt>
      <trkpt lat="45.59759" lon="4.5887">
        <ele>705</ele>
        <time>2012-08-08T06:29:37Z</time>
      </trkpt>
      <trkpt lat="45.59761" lon="4.58869">
        <ele>705</ele>
        <time>2012-08-08T06:29:39Z</time>
      </trkpt>
      <trkpt lat="45.59771" lon="4.58857">
        <ele>708</ele>
        <time>2012-08-08T06:29:50Z</time>
      </trkpt>
      <trkpt lat="45.59778" lon="4.58844">
        <ele>710</ele>
        <time>2012-08-08T06:30:00Z</time>
      </trkpt>
      <trkpt lat="45.59785" lon="4.58831">
        <ele>712</ele>
        <time>2012-08-08T06:30:10Z</time>
      </trkpt>
      <trkpt lat="45.59791" lon="4.58814">
        <ele>716</ele>
        <time>2012-08-08T06:30:21Z</time>
      </trkpt>
      <trkpt lat="45.59794" lon="4.58801">
        <ele>718</ele>
        <time>2012-08-08T06:30:29Z</time>
      </trkpt>
      <trkpt lat="45.59795" lon="4.58789">
        <ele>719</ele>
        <time>2012-08-08T06:30:39Z</time>
      </trkpt>
      <trkpt lat="45.59795" lon="4.58783">
        <ele>719</ele>
        <time>2012-08-08T06:30:47Z</time>
      </trkpt>
      <trkpt lat="45.59796" lon="4.58782">
        <ele>718</ele>
        <time>2012-08-08T06:31:00Z</time>
      </trkpt>
      <trkpt lat="45.59796" lon="4.58782">
        <ele>719</ele>
        <time>2012-08-08T06:31:10Z</time>
      </trkpt>
      <trkpt lat="45.59795" lon="4.58781">
        <ele>718</ele>
        <time>2012-08-08T06:31:20Z</time>
      </trkpt>
      <trkpt lat="45.59796" lon="4.58781">
        <ele>719</ele>
        <time>2012-08-08T06:31:36Z</time>
      </trkpt>
      <trkpt lat="45.59797" lon="4.58776">
        <ele>719</ele>
        <time>2012-08-08T06:31:45Z</time>
      </trkpt>
      <trkpt lat="45.59799" lon="4.5875">
        <ele>716</ele>
        <time>2012-08-08T06:31:53Z</time>
      </trkpt>
      <trkpt lat="45.59802" lon="4.58723">
        <ele>713</ele>
        <time>2012-08-08T06:32:00Z</time>
      </trkpt>
      <trkpt lat="45.59803" lon="4.58719">
        <ele>713</ele>
        <time>2012-08-08T06:32:01Z</time>
      </trkpt>
      <trkpt lat="45.59806" lon="4.58704">
        <ele>711</ele>
        <time>2012-08-08T06:32:04Z</time>
      </trkpt>
      <trkpt lat="45.5981" lon="4.58685">
        <ele>710</ele>
        <time>2012-08-08T06:32:07Z</time>
      </trkpt>
      <trkpt lat="45.59824" lon="4.58643">
        <ele>707</ele>
        <time>2012-08-08T06:32:15Z</time>
      </trkpt>
      <trkpt lat="45.59831" lon="4.58623">
        <ele>706</ele>
        <time>2012-08-08T06:32:20Z</time>
      </trkpt>
      <trkpt lat="45.59842" lon="4.58592">
        <ele>703</ele>
        <time>2012-08-08T06:32:26Z</time>
      </trkpt>
      <trkpt lat="45.59845" lon="4.58581">
        <ele>702</ele>
        <time>2012-08-08T06:32:28Z</time>
      </trkpt>
      <trkpt lat="45.59848" lon="4.58561">
        <ele>701</ele>
        <time>2012-08-08T06:32:32Z</time>
      </trkpt>
      <trkpt lat="45.5985" lon="4.58558">
        <ele>700</ele>
        <time>2012-08-08T06:32:33Z</time>
      </trkpt>
      <trkpt lat="45.59851" lon="4.58556">
        <ele>701</ele>
        <time>2012-08-08T06:32:34Z</time>
      </trkpt>
      <trkpt lat="45.59853" lon="4.58555">
        <ele>700</ele>
        <time>2012-08-08T06:32:35Z</time>
      </trkpt>
      <trkpt lat="45.59855" lon="4.58554">
        <ele>700</ele>
        <time>2012-08-08T06:32:36Z</time>
      </trkpt>
      <trkpt lat="45.59857" lon="4.58553">
        <ele>699</ele>
        <time>2012-08-08T06:32:37Z</time>
      </trkpt>
      <trkpt lat="45.59859" lon="4.58553">
        <ele>699</ele>
        <time>2012-08-08T06:32:38Z</time>
      </trkpt>
      <trkpt lat="45.59875" lon="4.58553">
        <ele>696</ele>
        <time>2012-08-08T06:32:44Z</time>
      </trkpt>
      <trkpt lat="45.59885" lon="4.58557">
        <ele>692</ele>
        <time>2012-08-08T06:32:48Z</time>
      </trkpt>
      <trkpt lat="45.59886" lon="4.58558">
        <ele>692</ele>
        <time>2012-08-08T06:32:49Z</time>
      </trkpt>
      <trkpt lat="45.59892" lon="4.5856">
        <ele>690</ele>
        <time>2012-08-08T06:32:52Z</time>
      </trkpt>
      <trkpt lat="45.59894" lon="4.5856">
        <ele>690</ele>
        <time>2012-08-08T06:32:53Z</time>
      </trkpt>
      <trkpt lat="45.59896" lon="4.58563">
        <ele>689</ele>
        <time>2012-08-08T06:32:54Z</time>
      </trkpt>
      <trkpt lat="45.59899" lon="4.58564">
        <ele>688</ele>
        <time>2012-08-08T06:32:55Z</time>
      </trkpt>
      <trkpt lat="45.59909" lon="4.58574">
        <ele>686</ele>
        <time>2012-08-08T06:32:59Z</time>
      </trkpt>
      <trkpt lat="45.59919" lon="4.5858">
        <ele>685</ele>
        <time>2012-08-08T06:33:05Z</time>
      </trkpt>
      <trkpt lat="45.59922" lon="4.58581">
        <ele>684</ele>
        <time>2012-08-08T06:33:14Z</time>
      </trkpt>
      <trkpt lat="45.59927" lon="4.58581">
        <ele>684</ele>
        <time>2012-08-08T06:33:24Z</time>
      </trkpt>
      <trkpt lat="45.5993" lon="4.58581">
        <ele>685</ele>
        <time>2012-08-08T06:33:31Z</time>
      </trkpt>
      <trkpt lat="45.59934" lon="4.58582">
        <ele>683</ele>
        <time>2012-08-08T06:33:40Z</time>
      </trkpt>
      <trkpt lat="45.59935" lon="4.58583">
        <ele>683</ele>
        <time>2012-08-08T06:33:41Z</time>
      </trkpt>
      <trkpt lat="45.59944" lon="4.5859">
        <ele>682</ele>
        <time>2012-08-08T06:33:47Z</time>
      </trkpt>
      <trkpt lat="45.59953" lon="4.58601">
        <ele>683</ele>
        <time>2012-08-08T06:33:54Z</time>
      </trkpt>
      <trkpt lat="45.59953" lon="4.58604">
        <ele>683</ele>
        <time>2012-08-08T06:33:55Z</time>
      </trkpt>
      <trkpt lat="45.59953" lon="4.58608">
        <ele>683</ele>
        <time>2012-08-08T06:33:56Z</time>
      </trkpt>
      <trkpt lat="45.59954" lon="4.5861">
        <ele>683</ele>
        <time>2012-08-08T06:33:57Z</time>
      </trkpt>
      <trkpt lat="45.59956" lon="4.58612">
        <ele>683</ele>
        <time>2012-08-08T06:33:58Z</time>
      </trkpt>
      <trkpt lat="45.59957" lon="4.5861">
        <ele>684</ele>
        <time>2012-08-08T06:33:59Z</time>
      </trkpt>
      <trkpt lat="45.59957" lon="4.58607">
        <ele>684</ele>
        <time>2012-08-08T06:34:05Z</time>
      </trkpt>
      <trkpt lat="45.59958" lon="4.58602">
        <ele>682</ele>
        <time>2012-08-08T06:34:08Z</time>
      </trkpt>
      <trkpt lat="45.59962" lon="4.58602">
        <ele>680</ele>
        <time>2012-08-08T06:34:11Z</time>
      </trkpt>
      <trkpt lat="45.59971" lon="4.58605">
        <ele>677</ele>
        <time>2012-08-08T06:34:17Z</time>
      </trkpt>
      <trkpt lat="45.59982" lon="4.58601">
        <ele>673</ele>
        <time>2012-08-08T06:34:22Z</time>
      </trkpt>
      <trkpt lat="45.59991" lon="4.58597">
        <ele>670</ele>
        <time>2012-08-08T06:34:25Z</time>
      </trkpt>
      <trkpt lat="45.59995" lon="4.58595">
        <ele>670</ele>
        <time>2012-08-08T06:34:26Z</time>
      </trkpt>
      <trkpt lat="45.60003" lon="4.58592">
        <ele>668</ele>
        <time>2012-08-08T06:34:28Z</time>
      </trkpt>
      <trkpt lat="45.60016" lon="4.58586">
        <ele>665</ele>
        <time>2012-08-08T06:34:32Z</time>
      </trkpt>
      <trkpt lat="45.60025" lon="4.58585">
        <ele>663</ele>
        <time>2012-08-08T06:34:35Z</time>
      </trkpt>
      <trkpt lat="45.6003" lon="4.58584">
        <ele>662</ele>
        <time>2012-08-08T06:34:37Z</time>
      </trkpt>
      <trkpt lat="45.60032" lon="4.58583">
        <ele>662</ele>
        <time>2012-08-08T06:34:38Z</time>
      </trkpt>
      <trkpt lat="45.60032" lon="4.58581">
        <ele>662</ele>
        <time>2012-08-08T06:34:39Z</time>
      </trkpt>
      <trkpt lat="45.60033" lon="4.58578">
        <ele>662</ele>
        <time>2012-08-08T06:34:40Z</time>
      </trkpt>
      <trkpt lat="45.60032" lon="4.58574">
        <ele>661</ele>
        <time>2012-08-08T06:34:41Z</time>
      </trkpt>
      <trkpt lat="45.6003" lon="4.58569">
        <ele>661</ele>
        <time>2012-08-08T06:34:42Z</time>
      </trkpt>
      <trkpt lat="45.60026" lon="4.58547">
        <ele>661</ele>
        <time>2012-08-08T06:34:48Z</time>
      </trkpt>
      <trkpt lat="45.60025" lon="4.58538">
        <ele>661</ele>
        <time>2012-08-08T06:34:53Z</time>
      </trkpt>
      <trkpt lat="45.60022" lon="4.58531">
        <ele>662</ele>
        <time>2012-08-08T06:34:56Z</time>
      </trkpt>
      <trkpt lat="45.60021" lon="4.58505">
        <ele>662</ele>
        <time>2012-08-08T06:35:03Z</time>
      </trkpt>
      <trkpt lat="45.60022" lon="4.58485">
        <ele>663</ele>
        <time>2012-08-08T06:35:10Z</time>
      </trkpt>
      <trkpt lat="45.6002" lon="4.58458">
        <ele>663</ele>
        <time>2012-08-08T06:35:17Z</time>
      </trkpt>
      <trkpt lat="45.6002" lon="4.58428">
        <ele>664</ele>
        <time>2012-08-08T06:35:26Z</time>
      </trkpt>
      <trkpt lat="45.60019" lon="4.58417">
        <ele>664</ele>
        <time>2012-08-08T06:35:33Z</time>
      </trkpt>
      <trkpt lat="45.60016" lon="4.58415">
        <ele>665</ele>
        <time>2012-08-08T06:35:47Z</time>
      </trkpt>
      <trkpt lat="45.60015" lon="4.58416">
        <ele>665</ele>
        <time>2012-08-08T06:35:59Z</time>
      </trkpt>
      <trkpt lat="45.60016" lon="4.58412">
        <ele>665</ele>
        <time>2012-08-08T06:36:05Z</time>
      </trkpt>
      <trkpt lat="45.6002" lon="4.58392">
        <ele>664</ele>
        <time>2012-08-08T06:36:12Z</time>
      </trkpt>
      <trkpt lat="45.60023" lon="4.58369">
        <ele>666</ele>
        <time>2012-08-08T06:36:20Z</time>
      </trkpt>
      <trkpt lat="45.60022" lon="4.58348">
        <ele>668</ele>
        <time>2012-08-08T06:36:27Z</time>
      </trkpt>
      <trkpt lat="45.60022" lon="4.58329">
        <ele>668</ele>
        <time>2012-08-08T06:36:34Z</time>
      </trkpt>
      <trkpt lat="45.60021" lon="4.58309">
        <ele>669</ele>
        <time>2012-08-08T06:36:42Z</time>
      </trkpt>
      <trkpt lat="45.60021" lon="4.58293">
        <ele>671</ele>
        <time>2012-08-08T06:36:49Z</time>
      </trkpt>
      <trkpt lat="45.60025" lon="4.58275">
        <ele>671</ele>
        <time>2012-08-08T06:36:57Z</time>
      </trkpt>
      <trkpt lat="45.60025" lon="4.58273">
        <ele>672</ele>
        <time>2012-08-08T06:36:58Z</time>
      </trkpt>
      <trkpt lat="45.60027" lon="4.58249">
        <ele>672</ele>
        <time>2012-08-08T06:37:07Z</time>
      </trkpt>
      <trkpt lat="45.60028" lon="4.58246">
        <ele>673</ele>
        <time>2012-08-08T06:37:08Z</time>
      </trkpt>
      <trkpt lat="45.6003" lon="4.58224">
        <ele>673</ele>
        <time>2012-08-08T06:37:16Z</time>
      </trkpt>
      <trkpt lat="45.6003" lon="4.58202">
        <ele>673</ele>
        <time>2012-08-08T06:37:24Z</time>
      </trkpt>
      <trkpt lat="45.60028" lon="4.58191">
        <ele>674</ele>
        <time>2012-08-08T06:37:29Z</time>
      </trkpt>
      <trkpt lat="45.6003" lon="4.58177">
        <ele>675</ele>
        <time>2012-08-08T06:37:34Z</time>
      </trkpt>
      <trkpt lat="45.6003" lon="4.58154">
        <ele>676</ele>
        <time>2012-08-08T06:37:42Z</time>
      </trkpt>
      <trkpt lat="45.60031" lon="4.58143">
        <ele>676</ele>
        <time>2012-08-08T06:37:45Z</time>
      </trkpt>
      <trkpt lat="45.60029" lon="4.58106">
        <ele>675</ele>
        <time>2012-08-08T06:37:54Z</time>
      </trkpt>
      <trkpt lat="45.60029" lon="4.58085">
        <ele>675</ele>
        <time>2012-08-08T06:37:59Z</time>
      </trkpt>
      <trkpt lat="45.60031" lon="4.58062">
        <ele>676</ele>
        <time>2012-08-08T06:38:06Z</time>
      </trkpt>
      <trkpt lat="45.60031" lon="4.58035">
        <ele>675</ele>
        <time>2012-08-08T06:38:13Z</time>
      </trkpt>
      <trkpt lat="45.60028" lon="4.58007">
        <ele>676</ele>
        <time>2012-08-08T06:38:20Z</time>
      </trkpt>
      <trkpt lat="45.60026" lon="4.57981">
        <ele>676</ele>
        <time>2012-08-08T06:38:27Z</time>
      </trkpt>
      <trkpt lat="45.60026" lon="4.5796">
        <ele>677</ele>
        <time>2012-08-08T06:38:32Z</time>
      </trkpt>
      <trkpt lat="45.60028" lon="4.57933">
        <ele>678</ele>
        <time>2012-08-08T06:38:40Z</time>
      </trkpt>
      <trkpt lat="45.60029" lon="4.57903">
        <ele>679</ele>
        <time>2012-08-08T06:38:49Z</time>
      </trkpt>
      <trkpt lat="45.60032" lon="4.57882">
        <ele>679</ele>
        <time>2012-08-08T06:38:55Z</time>
      </trkpt>
      <trkpt lat="45.60036" lon="4.57866">
        <ele>678</ele>
        <time>2012-08-08T06:39:01Z</time>
      </trkpt>
      <trkpt lat="45.60047" lon="4.57847">
        <ele>679</ele>
        <time>2012-08-08T06:39:08Z</time>
      </trkpt>
      <trkpt lat="45.60055" lon="4.57833">
        <ele>680</ele>
        <time>2012-08-08T06:39:14Z</time>
      </trkpt>
      <trkpt lat="45.60065" lon="4.57823">
        <ele>681</ele>
        <time>2012-08-08T06:39:19Z</time>
      </trkpt>
      <trkpt lat="45.60078" lon="4.57814">
        <ele>682</ele>
        <time>2012-08-08T06:39:26Z</time>
      </trkpt>
      <trkpt lat="45.60082" lon="4.57813">
        <ele>683</ele>
        <time>2012-08-08T06:39:28Z</time>
      </trkpt>
      <trkpt lat="45.60087" lon="4.57812">
        <ele>683</ele>
        <time>2012-08-08T06:39:35Z</time>
      </trkpt>
      <trkpt lat="45.60086" lon="4.57811">
        <ele>683</ele>
        <time>2012-08-08T06:39:49Z</time>
      </trkpt>
      <trkpt lat="45.60086" lon="4.57809">
        <ele>683</ele>
        <time>2012-08-08T06:39:53Z</time>
      </trkpt>
      <trkpt lat="45.60093" lon="4.57801">
        <ele>682</ele>
        <time>2012-08-08T06:40:00Z</time>
      </trkpt>
      <trkpt lat="45.60097" lon="4.57793">
        <ele>682</ele>
        <time>2012-08-08T06:40:04Z</time>
      </trkpt>
      <trkpt lat="45.60102" lon="4.57778">
        <ele>681</ele>
        <time>2012-08-08T06:40:10Z</time>
      </trkpt>
      <trkpt lat="45.60102" lon="4.57775">
        <ele>682</ele>
        <time>2012-08-08T06:40:11Z</time>
      </trkpt>
      <trkpt lat="45.60102" lon="4.57772">
        <ele>681</ele>
        <time>2012-08-08T06:40:12Z</time>
      </trkpt>
      <trkpt lat="45.60102" lon="4.57769">
        <ele>682</ele>
        <time>2012-08-08T06:40:13Z</time>
      </trkpt>
      <trkpt lat="45.60102" lon="4.57744">
        <ele>682</ele>
        <time>2012-08-08T06:40:21Z</time>
      </trkpt>
      <trkpt lat="45.60095" lon="4.57714">
        <ele>683</ele>
        <time>2012-08-08T06:40:29Z</time>
      </trkpt>
      <trkpt lat="45.60083" lon="4.57679">
        <ele>682</ele>
        <time>2012-08-08T06:40:39Z</time>
      </trkpt>
      <trkpt lat="45.60071" lon="4.57656">
        <ele>683</ele>
        <time>2012-08-08T06:40:47Z</time>
      </trkpt>
      <trkpt lat="45.60058" lon="4.57633">
        <ele>684</ele>
        <time>2012-08-08T06:40:55Z</time>
      </trkpt>
      <trkpt lat="45.60046" lon="4.57607">
        <ele>685</ele>
        <time>2012-08-08T06:41:04Z</time>
      </trkpt>
      <trkpt lat="45.60035" lon="4.57584">
        <ele>686</ele>
        <time>2012-08-08T06:41:11Z</time>
      </trkpt>
      <trkpt lat="45.60026" lon="4.57562">
        <ele>687</ele>
        <time>2012-08-08T06:41:18Z</time>
      </trkpt>
      <trkpt lat="45.60015" lon="4.57532">
        <ele>688</ele>
        <time>2012-08-08T06:41:27Z</time>
      </trkpt>
      <trkpt lat="45.60008" lon="4.57494">
        <ele>688</ele>
        <time>2012-08-08T06:41:37Z</time>
      </trkpt>
      <trkpt lat="45.60002" lon="4.57449">
        <ele>689</ele>
        <time>2012-08-08T06:41:48Z</time>
      </trkpt>
      <trkpt lat="45.59999" lon="4.57416">
        <ele>690</ele>
        <time>2012-08-08T06:41:57Z</time>
      </trkpt>
      <trkpt lat="45.59993" lon="4.57381">
        <ele>690</ele>
        <time>2012-08-08T06:42:06Z</time>
      </trkpt>
      <trkpt lat="45.59982" lon="4.57347">
        <ele>689</ele>
        <time>2012-08-08T06:42:13Z</time>
      </trkpt>
      <trkpt lat="45.5997" lon="4.5731">
        <ele>687</ele>
        <time>2012-08-08T06:42:19Z</time>
      </trkpt>
      <trkpt lat="45.59969" lon="4.57304">
        <ele>687</ele>
        <time>2012-08-08T06:42:20Z</time>
      </trkpt>
      <trkpt lat="45.59969" lon="4.57298">
        <ele>687</ele>
        <time>2012-08-08T06:42:21Z</time>
      </trkpt>
      <trkpt lat="45.5997" lon="4.57267">
        <ele>688</ele>
        <time>2012-08-08T06:42:28Z</time>
      </trkpt>
      <trkpt lat="45.59969" lon="4.57226">
        <ele>690</ele>
        <time>2012-08-08T06:42:39Z</time>
      </trkpt>
      <trkpt lat="45.59965" lon="4.57199">
        <ele>690</ele>
        <time>2012-08-08T06:42:46Z</time>
      </trkpt>
      <trkpt lat="45.59956" lon="4.57166">
        <ele>690</ele>
        <time>2012-08-08T06:42:55Z</time>
      </trkpt>
      <trkpt lat="45.59948" lon="4.57134">
        <ele>691</ele>
        <time>2012-08-08T06:43:04Z</time>
      </trkpt>
      <trkpt lat="45.59938" lon="4.57108">
        <ele>692</ele>
        <time>2012-08-08T06:43:12Z</time>
      </trkpt>
      <trkpt lat="45.59923" lon="4.57096">
        <ele>693</ele>
        <time>2012-08-08T06:43:19Z</time>
      </trkpt>
      <trkpt lat="45.59903" lon="4.57092">
        <ele>694</ele>
        <time>2012-08-08T06:43:27Z</time>
      </trkpt>
      <trkpt lat="45.59887" lon="4.57088">
        <ele>696</ele>
        <time>2012-08-08T06:43:34Z</time>
      </trkpt>
      <trkpt lat="45.59872" lon="4.57081">
        <ele>696</ele>
        <time>2012-08-08T06:43:40Z</time>
      </trkpt>
      <trkpt lat="45.5985" lon="4.57082">
        <ele>695</ele>
        <time>2012-08-08T06:43:47Z</time>
      </trkpt>
      <trkpt lat="45.59819" lon="4.57097">
        <ele>695</ele>
        <time>2012-08-08T06:43:55Z</time>
      </trkpt>
      <trkpt lat="45.59792" lon="4.57115">
        <ele>694</ele>
        <time>2012-08-08T06:44:02Z</time>
      </trkpt>
      <trkpt lat="45.59788" lon="4.57116">
        <ele>694</ele>
        <time>2012-08-08T06:44:03Z</time>
      </trkpt>
      <trkpt lat="45.59785" lon="4.57116">
        <ele>694</ele>
        <time>2012-08-08T06:44:04Z</time>
      </trkpt>
      <trkpt lat="45.59759" lon="4.57113">
        <ele>694</ele>
        <time>2012-08-08T06:44:12Z</time>
      </trkpt>
      <trkpt lat="45.59737" lon="4.57109">
        <ele>695</ele>
        <time>2012-08-08T06:44:19Z</time>
      </trkpt>
      <trkpt lat="45.59698" lon="4.57101">
        <ele>696</ele>
        <time>2012-08-08T06:44:31Z</time>
      </trkpt>
      <trkpt lat="45.59676" lon="4.57099">
        <ele>697</ele>
        <time>2012-08-08T06:44:38Z</time>
      </trkpt>
      <trkpt lat="45.59641" lon="4.57101">
        <ele>698</ele>
        <time>2012-08-08T06:44:49Z</time>
      </trkpt>
      <trkpt lat="45.59598" lon="4.57102">
        <ele>699</ele>
        <time>2012-08-08T06:45:02Z</time>
      </trkpt>
      <trkpt lat="45.59568" lon="4.57099">
        <ele>700</ele>
        <time>2012-08-08T06:45:11Z</time>
      </trkpt>
      <trkpt lat="45.59548" lon="4.57096">
        <ele>702</ele>
        <time>2012-08-08T06:45:19Z</time>
      </trkpt>
      <trkpt lat="45.59526" lon="4.57091">
        <ele>704</ele>
        <time>2012-08-08T06:45:29Z</time>
      </trkpt>
      <trkpt lat="45.59505" lon="4.57085">
        <ele>707</ele>
        <time>2012-08-08T06:45:39Z</time>
      </trkpt>
      <trkpt lat="45.59485" lon="4.57082">
        <ele>709</ele>
        <time>2012-08-08T06:45:48Z</time>
      </trkpt>
      <trkpt lat="45.59467" lon="4.5709">
        <ele>710</ele>
        <time>2012-08-08T06:45:57Z</time>
      </trkpt>
      <trkpt lat="45.59448" lon="4.57108">
        <ele>711</ele>
        <time>2012-08-08T06:46:07Z</time>
      </trkpt>
      <trkpt lat="45.59438" lon="4.57112">
        <ele>711</ele>
        <time>2012-08-08T06:46:14Z</time>
      </trkpt>
      <trkpt lat="45.59425" lon="4.57114">
        <ele>713</ele>
        <time>2012-08-08T06:46:23Z</time>
      </trkpt>
      <trkpt lat="45.59416" lon="4.57109">
        <ele>715</ele>
        <time>2012-08-08T06:46:30Z</time>
      </trkpt>
      <trkpt lat="45.59415" lon="4.57108">
        <ele>715</ele>
        <time>2012-08-08T06:46:31Z</time>
      </trkpt>
      <trkpt lat="45.59415" lon="4.57106">
        <ele>715</ele>
        <time>2012-08-08T06:46:32Z</time>
      </trkpt>
      <trkpt lat="45.59415" lon="4.57103">
        <ele>716</ele>
        <time>2012-08-08T06:46:33Z</time>
      </trkpt>
      <trkpt lat="45.59414" lon="4.57101">
        <ele>716</ele>
        <time>2012-08-08T06:46:34Z</time>
      </trkpt>
      <trkpt lat="45.59414" lon="4.57099">
        <ele>717</ele>
        <time>2012-08-08T06:46:35Z</time>
      </trkpt>
      <trkpt lat="45.59414" lon="4.57097">
        <ele>717</ele>
        <time>2012-08-08T06:46:36Z</time>
      </trkpt>
      <trkpt lat="45.59413" lon="4.57078">
        <ele>719</ele>
        <time>2012-08-08T06:46:46Z</time>
      </trkpt>
      <trkpt lat="45.59411" lon="4.57063">
        <ele>721</ele>
        <time>2012-08-08T06:46:54Z</time>
      </trkpt>
      <trkpt lat="45.59405" lon="4.57053">
        <ele>723</ele>
        <time>2012-08-08T06:47:01Z</time>
      </trkpt>
      <trkpt lat="45.59396" lon="4.57044">
        <ele>725</ele>
        <time>2012-08-08T06:47:09Z</time>
      </trkpt>
      <trkpt lat="45.59382" lon="4.57033">
        <ele>727</ele>
        <time>2012-08-08T06:47:19Z</time>
      </trkpt>
      <trkpt lat="45.59377" lon="4.57024">
        <ele>728</ele>
        <time>2012-08-08T06:47:24Z</time>
      </trkpt>
      <trkpt lat="45.59376" lon="4.57023">
        <ele>728</ele>
        <time>2012-08-08T06:47:25Z</time>
      </trkpt>
      <trkpt lat="45.59365" lon="4.5701">
        <ele>729</ele>
        <time>2012-08-08T06:47:35Z</time>
      </trkpt>
      <trkpt lat="45.59356" lon="4.57">
        <ele>729</ele>
        <time>2012-08-08T06:47:43Z</time>
      </trkpt>
      <trkpt lat="45.59342" lon="4.56977">
        <ele>729</ele>
        <time>2012-08-08T06:47:49Z</time>
      </trkpt>
      <trkpt lat="45.59318" lon="4.5694">
        <ele>727</ele>
        <time>2012-08-08T06:47:56Z</time>
      </trkpt>
      <trkpt lat="45.59298" lon="4.56899">
        <ele>725</ele>
        <time>2012-08-08T06:48:02Z</time>
      </trkpt>
      <trkpt lat="45.5928" lon="4.56868">
        <ele>724</ele>
        <time>2012-08-08T06:48:07Z</time>
      </trkpt>
      <trkpt lat="45.59278" lon="4.56862">
        <ele>724</ele>
        <time>2012-08-08T06:48:08Z</time>
      </trkpt>
      <trkpt lat="45.59278" lon="4.56854">
        <ele>724</ele>
        <time>2012-08-08T06:48:09Z</time>
      </trkpt>
      <trkpt lat="45.59279" lon="4.56848">
        <ele>724</ele>
        <time>2012-08-08T06:48:10Z</time>
      </trkpt>
      <trkpt lat="45.59279" lon="4.56842">
        <ele>724</ele>
        <time>2012-08-08T06:48:11Z</time>
      </trkpt>
      <trkpt lat="45.59284" lon="4.5681">
        <ele>724</ele>
        <time>2012-08-08T06:48:17Z</time>
      </trkpt>
      <trkpt lat="45.59284" lon="4.56787">
        <ele>724</ele>
        <time>2012-08-08T06:48:24Z</time>
      </trkpt>
      <trkpt lat="45.59281" lon="4.56767">
        <ele>725</ele>
        <time>2012-08-08T06:48:30Z</time>
      </trkpt>
      <trkpt lat="45.59275" lon="4.56745">
        <ele>725</ele>
        <time>2012-08-08T06:48:37Z</time>
      </trkpt>
      <trkpt lat="45.59267" lon="4.56725">
        <ele>727</ele>
        <time>2012-08-08T06:48:44Z</time>
      </trkpt>
      <trkpt lat="45.59256" lon="4.56697">
        <ele>727</ele>
        <time>2012-08-08T06:48:53Z</time>
      </trkpt>
      <trkpt lat="45.59245" lon="4.56676">
        <ele>728</ele>
        <time>2012-08-08T06:49:01Z</time>
      </trkpt>
      <trkpt lat="45.59225" lon="4.56655">
        <ele>727</ele>
        <time>2012-08-08T06:49:09Z</time>
      </trkpt>
      <trkpt lat="45.59207" lon="4.56641">
        <ele>728</ele>
        <time>2012-08-08T06:49:17Z</time>
      </trkpt>
      <trkpt lat="45.59189" lon="4.56625">
        <ele>727</ele>
        <time>2012-08-08T06:49:25Z</time>
      </trkpt>
      <trkpt lat="45.59173" lon="4.5661">
        <ele>727</ele>
        <time>2012-08-08T06:49:30Z</time>
      </trkpt>
      <trkpt lat="45.59158" lon="4.56599">
        <ele>727</ele>
        <time>2012-08-08T06:49:36Z</time>
      </trkpt>
      <trkpt lat="45.59148" lon="4.56596">
        <ele>729</ele>
        <time>2012-08-08T06:49:42Z</time>
      </trkpt>
      <trkpt lat="45.59137" lon="4.5659">
        <ele>731</ele>
        <time>2012-08-08T06:49:48Z</time>
      </trkpt>
      <trkpt lat="45.59136" lon="4.56589">
        <ele>731</ele>
        <time>2012-08-08T06:49:49Z</time>
      </trkpt>
      <trkpt lat="45.59134" lon="4.56588">
        <ele>731</ele>
        <time>2012-08-08T06:49:50Z</time>
      </trkpt>
      <trkpt lat="45.59131" lon="4.56587">
        <ele>731</ele>
        <time>2012-08-08T06:49:51Z</time>
      </trkpt>
      <trkpt lat="45.59128" lon="4.56586">
        <ele>731</ele>
        <time>2012-08-08T06:49:52Z</time>
      </trkpt>
      <trkpt lat="45.59126" lon="4.56585">
        <ele>732</ele>
        <time>2012-08-08T06:49:53Z</time>
      </trkpt>
      <trkpt lat="45.59111" lon="4.56579">
        <ele>733</ele>
        <time>2012-08-08T06:49:59Z</time>
      </trkpt>
      <trkpt lat="45.59088" lon="4.56573">
        <ele>734</ele>
        <time>2012-08-08T06:50:08Z</time>
      </trkpt>
      <trkpt lat="45.5908" lon="4.56573">
        <ele>734</ele>
        <time>2012-08-08T06:50:13Z</time>
      </trkpt>
      <trkpt lat="45.59078" lon="4.56572">
        <ele>734</ele>
        <time>2012-08-08T06:50:14Z</time>
      </trkpt>
      <trkpt lat="45.59068" lon="4.56569">
        <ele>736</ele>
        <time>2012-08-08T06:50:21Z</time>
      </trkpt>
      <trkpt lat="45.59067" lon="4.5657">
        <ele>736</ele>
        <time>2012-08-08T06:50:22Z</time>
      </trkpt>
      <trkpt lat="45.59066" lon="4.5657">
        <ele>736</ele>
        <time>2012-08-08T06:50:23Z</time>
      </trkpt>
      <trkpt lat="45.59064" lon="4.5657">
        <ele>736</ele>
        <time>2012-08-08T06:50:24Z</time>
      </trkpt>
      <trkpt lat="45.59061" lon="4.5657">
        <ele>736</ele>
        <time>2012-08-08T06:50:25Z</time>
      </trkpt>
      <trkpt lat="45.5906" lon="4.5657">
        <ele>736</ele>
        <time>2012-08-08T06:50:26Z</time>
      </trkpt>
      <trkpt lat="45.59058" lon="4.5657">
        <ele>736</ele>
        <time>2012-08-08T06:50:27Z</time>
      </trkpt>
      <trkpt lat="45.59057" lon="4.56569">
        <ele>736</ele>
        <time>2012-08-08T06:50:28Z</time>
      </trkpt>
      <trkpt lat="45.59055" lon="4.56568">
        <ele>736</ele>
        <time>2012-08-08T06:50:29Z</time>
      </trkpt>
      <trkpt lat="45.59053" lon="4.56568">
        <ele>736</ele>
        <time>2012-08-08T06:50:30Z</time>
      </trkpt>
      <trkpt lat="45.5904" lon="4.56564">
        <ele>737</ele>
        <time>2012-08-08T06:50:38Z</time>
      </trkpt>
      <trkpt lat="45.59026" lon="4.56564">
        <ele>739</ele>
        <time>2012-08-08T06:50:46Z</time>
      </trkpt>
      <trkpt lat="45.59008" lon="4.56559">
        <ele>739</ele>
        <time>2012-08-08T06:50:55Z</time>
      </trkpt>
      <trkpt lat="45.58991" lon="4.56555">
        <ele>740</ele>
        <time>2012-08-08T06:51:04Z</time>
      </trkpt>
      <trkpt lat="45.58974" lon="4.56555">
        <ele>742</ele>
        <time>2012-08-08T06:51:12Z</time>
      </trkpt>
      <trkpt lat="45.58968" lon="4.56555">
        <ele>742</ele>
        <time>2012-08-08T06:51:15Z</time>
      </trkpt>
      <trkpt lat="45.58966" lon="4.56554">
        <ele>742</ele>
        <time>2012-08-08T06:51:16Z</time>
      </trkpt>
      <trkpt lat="45.58964" lon="4.56555">
        <ele>742</ele>
        <time>2012-08-08T06:51:17Z</time>
      </trkpt>
      <trkpt lat="45.58962" lon="4.56555">
        <ele>742</ele>
        <time>2012-08-08T06:51:18Z</time>
      </trkpt>
      <trkpt lat="45.58961" lon="4.56555">
        <ele>742</ele>
        <time>2012-08-08T06:51:19Z</time>
      </trkpt>
      <trkpt lat="45.58959" lon="4.56555">
        <ele>742</ele>
        <time>2012-08-08T06:51:20Z</time>
      </trkpt>
      <trkpt lat="45.58957" lon="4.56555">
        <ele>742</ele>
        <time>2012-08-08T06:51:21Z</time>
      </trkpt>
      <trkpt lat="45.58946" lon="4.56554">
        <ele>743</ele>
        <time>2012-08-08T06:51:28Z</time>
      </trkpt>
      <trkpt lat="45.5893" lon="4.56553">
        <ele>744</ele>
        <time>2012-08-08T06:51:37Z</time>
      </trkpt>
      <trkpt lat="45.5892" lon="4.56551">
        <ele>744</ele>
        <time>2012-08-08T06:51:42Z</time>
      </trkpt>
      <trkpt lat="45.58918" lon="4.56551">
        <ele>744</ele>
        <time>2012-08-08T06:51:43Z</time>
      </trkpt>
      <trkpt lat="45.58916" lon="4.56551">
        <ele>745</ele>
        <time>2012-08-08T06:51:44Z</time>
      </trkpt>
      <trkpt lat="45.58914" lon="4.56551">
        <ele>746</ele>
        <time>2012-08-08T06:51:45Z</time>
      </trkpt>
      <trkpt lat="45.58902" lon="4.56553">
        <ele>746</ele>
        <time>2012-08-08T06:51:52Z</time>
      </trkpt>
      <trkpt lat="45.58888" lon="4.56552">
        <ele>747</ele>
        <time>2012-08-08T06:51:59Z</time>
      </trkpt>
      <trkpt lat="45.58881" lon="4.56553">
        <ele>747</ele>
        <time>2012-08-08T06:52:02Z</time>
      </trkpt>
      <trkpt lat="45.5887" lon="4.56554">
        <ele>748</ele>
        <time>2012-08-08T06:52:09Z</time>
      </trkpt>
      <trkpt lat="45.58858" lon="4.56557">
        <ele>749</ele>
        <time>2012-08-08T06:52:16Z</time>
      </trkpt>
      <trkpt lat="45.58845" lon="4.56559">
        <ele>750</ele>
        <time>2012-08-08T06:52:23Z</time>
      </trkpt>
      <trkpt lat="45.58832" lon="4.56559">
        <ele>751</ele>
        <time>2012-08-08T06:52:30Z</time>
      </trkpt>
      <trkpt lat="45.58829" lon="4.5656">
        <ele>751</ele>
        <time>2012-08-08T06:52:32Z</time>
      </trkpt>
      <trkpt lat="45.58822" lon="4.5656">
        <ele>752</ele>
        <time>2012-08-08T06:52:38Z</time>
      </trkpt>
      <trkpt lat="45.58812" lon="4.5656">
        <ele>752</ele>
        <time>2012-08-08T06:52:44Z</time>
      </trkpt>
      <trkpt lat="45.5881" lon="4.56559">
        <ele>752</ele>
        <time>2012-08-08T06:52:46Z</time>
      </trkpt>
      <trkpt lat="45.58806" lon="4.56558">
        <ele>753</ele>
        <time>2012-08-08T06:52:48Z</time>
      </trkpt>
      <trkpt lat="45.58805" lon="4.56557">
        <ele>752</ele>
        <time>2012-08-08T06:52:49Z</time>
      </trkpt>
      <trkpt lat="45.58794" lon="4.56555">
        <ele>753</ele>
        <time>2012-08-08T06:52:55Z</time>
      </trkpt>
      <trkpt lat="45.5878" lon="4.56552">
        <ele>754</ele>
        <time>2012-08-08T06:53:02Z</time>
      </trkpt>
      <trkpt lat="45.5877" lon="4.56549">
        <ele>755</ele>
        <time>2012-08-08T06:53:07Z</time>
      </trkpt>
      <trkpt lat="45.58756" lon="4.56547">
        <ele>756</ele>
        <time>2012-08-08T06:53:15Z</time>
      </trkpt>
      <trkpt lat="45.5874" lon="4.56548">
        <ele>756</ele>
        <time>2012-08-08T06:53:23Z</time>
      </trkpt>
      <trkpt lat="45.58727" lon="4.56548">
        <ele>757</ele>
        <time>2012-08-08T06:53:30Z</time>
      </trkpt>
      <trkpt lat="45.58714" lon="4.56547">
        <ele>757</ele>
        <time>2012-08-08T06:53:36Z</time>
      </trkpt>
      <trkpt lat="45.58698" lon="4.56546">
        <ele>758</ele>
        <time>2012-08-08T06:53:44Z</time>
      </trkpt>
      <trkpt lat="45.58685" lon="4.56541">
        <ele>759</ele>
        <time>2012-08-08T06:53:51Z</time>
      </trkpt>
      <trkpt lat="45.58671" lon="4.56535">
        <ele>759</ele>
        <time>2012-08-08T06:53:58Z</time>
      </trkpt>
      <trkpt lat="45.58662" lon="4.56533">
        <ele>759</ele>
        <time>2012-08-08T06:54:02Z</time>
      </trkpt>
      <trkpt lat="45.5866" lon="4.56532">
        <ele>759</ele>
        <time>2012-08-08T06:54:03Z</time>
      </trkpt>
      <trkpt lat="45.58658" lon="4.56532">
        <ele>759</ele>
        <time>2012-08-08T06:54:04Z</time>
      </trkpt>
      <trkpt lat="45.58656" lon="4.56531">
        <ele>759</ele>
        <time>2012-08-08T06:54:05Z</time>
      </trkpt>
      <trkpt lat="45.58653" lon="4.5653">
        <ele>760</ele>
        <time>2012-08-08T06:54:06Z</time>
      </trkpt>
      <trkpt lat="45.58646" lon="4.56527">
        <ele>760</ele>
        <time>2012-08-08T06:54:10Z</time>
      </trkpt>
      <trkpt lat="45.58644" lon="4.56527">
        <ele>760</ele>
        <time>2012-08-08T06:54:11Z</time>
      </trkpt>
      <trkpt lat="45.58642" lon="4.56526">
        <ele>760</ele>
        <time>2012-08-08T06:54:12Z</time>
      </trkpt>
      <trkpt lat="45.58623" lon="4.56518">
        <ele>761</ele>
        <time>2012-08-08T06:54:21Z</time>
      </trkpt>
      <trkpt lat="45.58612" lon="4.56511">
        <ele>761</ele>
        <time>2012-08-08T06:54:28Z</time>
      </trkpt>
      <trkpt lat="45.58599" lon="4.56504">
        <ele>762</ele>
        <time>2012-08-08T06:54:36Z</time>
      </trkpt>
      <trkpt lat="45.5859" lon="4.565">
        <ele>763</ele>
        <time>2012-08-08T06:54:42Z</time>
      </trkpt>
      <trkpt lat="45.58578" lon="4.56495">
        <ele>764</ele>
        <time>2012-08-08T06:54:49Z</time>
      </trkpt>
      <trkpt lat="45.58568" lon="4.56491">
        <ele>765</ele>
        <time>2012-08-08T06:54:56Z</time>
      </trkpt>
      <trkpt lat="45.5856" lon="4.56488">
        <ele>765</ele>
        <time>2012-08-08T06:55:01Z</time>
      </trkpt>
      <trkpt lat="45.58557" lon="4.56487">
        <ele>766</ele>
        <time>2012-08-08T06:55:03Z</time>
      </trkpt>
      <trkpt lat="45.58547" lon="4.56483">
        <ele>766</ele>
        <time>2012-08-08T06:55:10Z</time>
      </trkpt>
      <trkpt lat="45.58531" lon="4.56476">
        <ele>767</ele>
        <time>2012-08-08T06:55:18Z</time>
      </trkpt>
      <trkpt lat="45.58522" lon="4.56469">
        <ele>768</ele>
        <time>2012-08-08T06:55:24Z</time>
      </trkpt>
      <trkpt lat="45.58512" lon="4.56461">
        <ele>768</ele>
        <time>2012-08-08T06:55:31Z</time>
      </trkpt>
      <trkpt lat="45.58509" lon="4.56459">
        <ele>768</ele>
        <time>2012-08-08T06:55:33Z</time>
      </trkpt>
      <trkpt lat="45.58505" lon="4.56456">
        <ele>768</ele>
        <time>2012-08-08T06:55:35Z</time>
      </trkpt>
      <trkpt lat="45.58494" lon="4.56447">
        <ele>769</ele>
        <time>2012-08-08T06:55:43Z</time>
      </trkpt>
      <trkpt lat="45.58489" lon="4.56441">
        <ele>770</ele>
        <time>2012-08-08T06:55:48Z</time>
      </trkpt>
      <trkpt lat="45.58483" lon="4.56434">
        <ele>770</ele>
        <time>2012-08-08T06:55:53Z</time>
      </trkpt>
      <trkpt lat="45.58477" lon="4.56423">
        <ele>771</ele>
        <time>2012-08-08T06:55:59Z</time>
      </trkpt>
      <trkpt lat="45.58475" lon="4.56421">
        <ele>771</ele>
        <time>2012-08-08T06:56:00Z</time>
      </trkpt>
      <trkpt lat="45.58466" lon="4.56408">
        <ele>772</ele>
        <time>2012-08-08T06:56:06Z</time>
      </trkpt>
      <trkpt lat="45.58455" lon="4.56394">
        <ele>772</ele>
        <time>2012-08-08T06:56:13Z</time>
      </trkpt>
      <trkpt lat="45.58447" lon="4.5638">
        <ele>773</ele>
        <time>2012-08-08T06:56:20Z</time>
      </trkpt>
      <trkpt lat="45.58438" lon="4.56369">
        <ele>774</ele>
        <time>2012-08-08T06:56:26Z</time>
      </trkpt>
      <trkpt lat="45.58425" lon="4.56354">
        <ele>774</ele>
        <time>2012-08-08T06:56:35Z</time>
      </trkpt>
      <trkpt lat="45.58413" lon="4.56338">
        <ele>774</ele>
        <time>2012-08-08T06:56:42Z</time>
      </trkpt>
      <trkpt lat="45.58404" lon="4.56329">
        <ele>775</ele>
        <time>2012-08-08T06:56:48Z</time>
      </trkpt>
      <trkpt lat="45.58392" lon="4.56321">
        <ele>775</ele>
        <time>2012-08-08T06:56:54Z</time>
      </trkpt>
      <trkpt lat="45.58379" lon="4.56311">
        <ele>776</ele>
        <time>2012-08-08T06:57:02Z</time>
      </trkpt>
      <trkpt lat="45.58367" lon="4.56301">
        <ele>777</ele>
        <time>2012-08-08T06:57:09Z</time>
      </trkpt>
      <trkpt lat="45.58356" lon="4.56293">
        <ele>777</ele>
        <time>2012-08-08T06:57:14Z</time>
      </trkpt>
      <trkpt lat="45.58343" lon="4.56283">
        <ele>778</ele>
        <time>2012-08-08T06:57:20Z</time>
      </trkpt>
      <trkpt lat="45.58331" lon="4.56272">
        <ele>779</ele>
        <time>2012-08-08T06:57:26Z</time>
      </trkpt>
      <trkpt lat="45.5832" lon="4.56261">
        <ele>780</ele>
        <time>2012-08-08T06:57:33Z</time>
      </trkpt>
      <trkpt lat="45.58314" lon="4.56252">
        <ele>780</ele>
        <time>2012-08-08T06:57:40Z</time>
      </trkpt>
      <trkpt lat="45.58306" lon="4.56238">
        <ele>780</ele>
        <time>2012-08-08T06:57:46Z</time>
      </trkpt>
      <trkpt lat="45.58292" lon="4.56224">
        <ele>781</ele>
        <time>2012-08-08T06:57:53Z</time>
      </trkpt>
      <trkpt lat="45.58285" lon="4.56212">
        <ele>782</ele>
        <time>2012-08-08T06:57:59Z</time>
      </trkpt>
      <trkpt lat="45.58277" lon="4.56198">
        <ele>782</ele>
        <time>2012-08-08T06:58:04Z</time>
      </trkpt>
      <trkpt lat="45.58275" lon="4.56195">
        <ele>783</ele>
        <time>2012-08-08T06:58:05Z</time>
      </trkpt>
      <trkpt lat="45.58273" lon="4.56192">
        <ele>783</ele>
        <time>2012-08-08T06:58:06Z</time>
      </trkpt>
      <trkpt lat="45.58271" lon="4.56189">
        <ele>783</ele>
        <time>2012-08-08T06:58:07Z</time>
      </trkpt>
      <trkpt lat="45.58268" lon="4.56186">
        <ele>783</ele>
        <time>2012-08-08T06:58:08Z</time>
      </trkpt>
      <trkpt lat="45.58258" lon="4.56167">
        <ele>784</ele>
        <time>2012-08-08T06:58:15Z</time>
      </trkpt>
      <trkpt lat="45.58256" lon="4.56165">
        <ele>784</ele>
        <time>2012-08-08T06:58:16Z</time>
      </trkpt>
      <trkpt lat="45.58254" lon="4.56159">
        <ele>784</ele>
        <time>2012-08-08T06:58:19Z</time>
      </trkpt>
      <trkpt lat="45.58252" lon="4.56152">
        <ele>785</ele>
        <time>2012-08-08T06:58:22Z</time>
      </trkpt>
      <trkpt lat="45.58251" lon="4.56149">
        <ele>785</ele>
        <time>2012-08-08T06:58:23Z</time>
      </trkpt>
      <trkpt lat="45.58248" lon="4.56141">
        <ele>785</ele>
        <time>2012-08-08T06:58:26Z</time>
      </trkpt>
      <trkpt lat="45.58237" lon="4.56125">
        <ele>786</ele>
        <time>2012-08-08T06:58:32Z</time>
      </trkpt>
      <trkpt lat="45.58229" lon="4.56106">
        <ele>786</ele>
        <time>2012-08-08T06:58:39Z</time>
      </trkpt>
      <trkpt lat="45.58223" lon="4.56094">
        <ele>787</ele>
        <time>2012-08-08T06:58:43Z</time>
      </trkpt>
      <trkpt lat="45.58221" lon="4.5609">
        <ele>787</ele>
        <time>2012-08-08T06:58:44Z</time>
      </trkpt>
      <trkpt lat="45.58219" lon="4.56087">
        <ele>788</ele>
        <time>2012-08-08T06:58:45Z</time>
      </trkpt>
      <trkpt lat="45.58213" lon="4.56082">
        <ele>787</ele>
        <time>2012-08-08T06:58:46Z</time>
      </trkpt>
      <trkpt lat="45.5821" lon="4.56078">
        <ele>787</ele>
        <time>2012-08-08T06:58:47Z</time>
      </trkpt>
      <trkpt lat="45.58207" lon="4.56075">
        <ele>788</ele>
        <time>2012-08-08T06:58:48Z</time>
      </trkpt>
      <trkpt lat="45.58204" lon="4.56071">
        <ele>788</ele>
        <time>2012-08-08T06:58:49Z</time>
      </trkpt>
      <trkpt lat="45.58202" lon="4.56067">
        <ele>788</ele>
        <time>2012-08-08T06:58:50Z</time>
      </trkpt>
      <trkpt lat="45.58199" lon="4.56064">
        <ele>788</ele>
        <time>2012-08-08T06:58:51Z</time>
      </trkpt>
      <trkpt lat="45.58183" lon="4.56038">
        <ele>789</ele>
        <time>2012-08-08T06:59:00Z</time>
      </trkpt>
      <trkpt lat="45.58171" lon="4.56019">
        <ele>790</ele>
        <time>2012-08-08T06:59:08Z</time>
      </trkpt>
      <trkpt lat="45.58161" lon="4.56001">
        <ele>791</ele>
        <time>2012-08-08T06:59:15Z</time>
      </trkpt>
      <trkpt lat="45.58151" lon="4.55982">
        <ele>792</ele>
        <time>2012-08-08T06:59:22Z</time>
      </trkpt>
      <trkpt lat="45.58141" lon="4.55961">
        <ele>793</ele>
        <time>2012-08-08T06:59:30Z</time>
      </trkpt>
      <trkpt lat="45.58131" lon="4.55941">
        <ele>793</ele>
        <time>2012-08-08T06:59:38Z</time>
      </trkpt>
      <trkpt lat="45.5812" lon="4.5592">
        <ele>794</ele>
        <time>2012-08-08T06:59:46Z</time>
      </trkpt>
      <trkpt lat="45.58111" lon="4.55903">
        <ele>795</ele>
        <time>2012-08-08T06:59:53Z</time>
      </trkpt>
      <trkpt lat="45.58101" lon="4.5588">
        <ele>797</ele>
        <time>2012-08-08T07:00:01Z</time>
      </trkpt>
      <trkpt lat="45.58092" lon="4.5586">
        <ele>798</ele>
        <time>2012-08-08T07:00:08Z</time>
      </trkpt>
      <trkpt lat="45.58082" lon="4.55833">
        <ele>799</ele>
        <time>2012-08-08T07:00:17Z</time>
      </trkpt>
      <trkpt lat="45.58079" lon="4.55825">
        <ele>799</ele>
        <time>2012-08-08T07:00:20Z</time>
      </trkpt>
      <trkpt lat="45.58078" lon="4.55822">
        <ele>799</ele>
        <time>2012-08-08T07:00:21Z</time>
      </trkpt>
      <trkpt lat="45.58077" lon="4.55819">
        <ele>799</ele>
        <time>2012-08-08T07:00:22Z</time>
      </trkpt>
      <trkpt lat="45.58076" lon="4.55816">
        <ele>799</ele>
        <time>2012-08-08T07:00:23Z</time>
      </trkpt>
      <trkpt lat="45.58075" lon="4.55813">
        <ele>800</ele>
        <time>2012-08-08T07:00:24Z</time>
      </trkpt>
      <trkpt lat="45.58062" lon="4.55791">
        <ele>800</ele>
        <time>2012-08-08T07:00:33Z</time>
      </trkpt>
      <trkpt lat="45.5805" lon="4.55776">
        <ele>802</ele>
        <time>2012-08-08T07:00:41Z</time>
      </trkpt>
      <trkpt lat="45.58038" lon="4.55761">
        <ele>803</ele>
        <time>2012-08-08T07:00:50Z</time>
      </trkpt>
      <trkpt lat="45.58028" lon="4.55751">
        <ele>805</ele>
        <time>2012-08-08T07:00:58Z</time>
      </trkpt>
      <trkpt lat="45.58018" lon="4.55743">
        <ele>806</ele>
        <time>2012-08-08T07:01:06Z</time>
      </trkpt>
      <trkpt lat="45.58005" lon="4.55732">
        <ele>809</ele>
        <time>2012-08-08T07:01:16Z</time>
      </trkpt>
      <trkpt lat="45.57993" lon="4.55727">
        <ele>810</ele>
        <time>2012-08-08T07:01:24Z</time>
      </trkpt>
      <trkpt lat="45.57984" lon="4.55718">
        <ele>811</ele>
        <time>2012-08-08T07:01:31Z</time>
      </trkpt>
      <trkpt lat="45.57975" lon="4.55705">
        <ele>811</ele>
        <time>2012-08-08T07:01:39Z</time>
      </trkpt>
      <trkpt lat="45.57966" lon="4.55688">
        <ele>811</ele>
        <time>2012-08-08T07:01:47Z</time>
      </trkpt>
      <trkpt lat="45.57955" lon="4.55665">
        <ele>812</ele>
        <time>2012-08-08T07:01:55Z</time>
      </trkpt>
      <trkpt lat="45.57945" lon="4.55637">
        <ele>811</ele>
        <time>2012-08-08T07:02:04Z</time>
      </trkpt>
      <trkpt lat="45.57933" lon="4.5561">
        <ele>811</ele>
        <time>2012-08-08T07:02:12Z</time>
      </trkpt>
      <trkpt lat="45.57921" lon="4.55587">
        <ele>811</ele>
        <time>2012-08-08T07:02:20Z</time>
      </trkpt>
      <trkpt lat="45.57915" lon="4.5556">
        <ele>811</ele>
        <time>2012-08-08T07:02:30Z</time>
      </trkpt>
      <trkpt lat="45.57915" lon="4.5556">
        <ele>811</ele>
        <time>2012-08-08T07:02:40Z</time>
      </trkpt>
      <trkpt lat="45.57915" lon="4.55561">
        <ele>811</ele>
        <time>2012-08-08T07:02:51Z</time>
      </trkpt>
      <trkpt lat="45.57915" lon="4.55561">
        <ele>811</ele>
        <time>2012-08-08T07:02:58Z</time>
      </trkpt>
      <trkpt lat="45.57914" lon="4.55561">
        <ele>811</ele>
        <time>2012-08-08T07:03:10Z</time>
      </trkpt>
      <trkpt lat="45.57913" lon="4.5556">
        <ele>811</ele>
        <time>2012-08-08T07:03:27Z</time>
      </trkpt>
      <trkpt lat="45.57914" lon="4.5556">
        <ele>811</ele>
        <time>2012-08-08T07:03:42Z</time>
      </trkpt>
      <trkpt lat="45.57914" lon="4.5556">
        <ele>811</ele>
        <time>2012-08-08T07:04:02Z</time>
      </trkpt>
      <trkpt lat="45.57915" lon="4.55559">
        <ele>811</ele>
        <time>2012-08-08T07:04:24Z</time>
      </trkpt>
      <trkpt lat="45.57914" lon="4.5556">
        <ele>812</ele>
        <time>2012-08-08T07:04:44Z</time>
      </trkpt>
      <trkpt lat="45.57914" lon="4.55561">
        <ele>812</ele>
        <time>2012-08-08T07:05:00Z</time>
      </trkpt>
      <trkpt lat="45.57914" lon="4.55562">
        <ele>811</ele>
        <time>2012-08-08T07:05:19Z</time>
      </trkpt>
      <trkpt lat="45.57913" lon="4.55562">
        <ele>812</ele>
        <time>2012-08-08T07:05:36Z</time>
      </trkpt>
      <trkpt lat="45.57913" lon="4.55561">
        <ele>812</ele>
        <time>2012-08-08T07:05:52Z</time>
      </trkpt>
      <trkpt lat="45.57913" lon="4.55561">
        <ele>812</ele>
        <time>2012-08-08T07:06:10Z</time>
      </trkpt>
      <trkpt lat="45.57914" lon="4.55561">
        <ele>812</ele>
        <time>2012-08-08T07:06:26Z</time>
      </trkpt>
      <trkpt lat="45.57914" lon="4.55561">
        <ele>812</ele>
        <time>2012-08-08T07:06:47Z</time>
      </trkpt>
      <trkpt lat="45.57914" lon="4.55561">
        <ele>812</ele>
        <time>2012-08-08T07:07:06Z</time>
      </trkpt>
      <trkpt lat="45.57914" lon="4.55561">
        <ele>813</ele>
        <time>2012-08-08T07:07:26Z</time>
      </trkpt>
      <trkpt lat="45.57915" lon="4.55562">
        <ele>813</ele>
        <time>2012-08-08T07:07:44Z</time>
      </trkpt>
      <trkpt lat="45.57916" lon="4.55562">
        <ele>812</ele>
        <time>2012-08-08T07:08:00Z</time>
      </trkpt>
      <trkpt lat="45.57915" lon="4.5556">
        <ele>813</ele>
        <time>2012-08-08T07:08:21Z</time>
      </trkpt>
      <trkpt lat="45.57915" lon="4.55561">
        <ele>813</ele>
        <time>2012-08-08T07:08:38Z</time>
      </trkpt>
      <trkpt lat="45.57916" lon="4.55561">
        <ele>813</ele>
        <time>2012-08-08T07:08:59Z</time>
      </trkpt>
      <trkpt lat="45.57916" lon="4.55562">
        <ele>813</ele>
        <time>2012-08-08T07:09:17Z</time>
      </trkpt>
      <trkpt lat="45.57916" lon="4.55562">
        <ele>813</ele>
        <time>2012-08-08T07:09:35Z</time>
      </trkpt>
      <trkpt lat="45.57917" lon="4.55562">
        <ele>813</ele>
        <time>2012-08-08T07:09:59Z</time>
      </trkpt>
      <trkpt lat="45.57916" lon="4.55562">
        <ele>813</ele>
        <time>2012-08-08T07:10:14Z</time>
      </trkpt>
      <trkpt lat="45.57916" lon="4.55561">
        <ele>813</ele>
        <time>2012-08-08T07:10:29Z</time>
      </trkpt>
      <trkpt lat="45.57916" lon="4.55561">
        <ele>813</ele>
        <time>2012-08-08T07:10:43Z</time>
      </trkpt>
      <trkpt lat="45.57914" lon="4.55558">
        <ele>813</ele>
        <time>2012-08-08T07:10:53Z</time>
      </trkpt>
      <trkpt lat="45.57909" lon="4.55543">
        <ele>813</ele>
        <time>2012-08-08T07:11:02Z</time>
      </trkpt>
      <trkpt lat="45.57908" lon="4.5554">
        <ele>814</ele>
        <time>2012-08-08T07:11:09Z</time>
      </trkpt>
      <trkpt lat="45.57908" lon="4.5554">
        <ele>814</ele>
        <time>2012-08-08T07:11:16Z</time>
      </trkpt>
      <trkpt lat="45.57908" lon="4.55539">
        <ele>813</ele>
        <time>2012-08-08T07:11:24Z</time>
      </trkpt>
      <trkpt lat="45.57909" lon="4.55538">
        <ele>813</ele>
        <time>2012-08-08T07:11:47Z</time>
      </trkpt>
      <trkpt lat="45.57909" lon="4.55539">
        <ele>813</ele>
        <time>2012-08-08T07:12:09Z</time>
      </trkpt>
      <trkpt lat="45.57908" lon="4.55541">
        <ele>813</ele>
        <time>2012-08-08T07:12:35Z</time>
      </trkpt>
      <trkpt lat="45.57909" lon="4.5554">
        <ele>813</ele>
        <time>2012-08-08T07:13:01Z</time>
      </trkpt>
      <trkpt lat="45.57908" lon="4.5554">
        <ele>814</ele>
        <time>2012-08-08T07:13:27Z</time>
      </trkpt>
      <trkpt lat="45.57909" lon="4.5554">
        <ele>813</ele>
        <time>2012-08-08T07:13:54Z</time>
      </trkpt>
      <trkpt lat="45.5791" lon="4.5554">
        <ele>813</ele>
        <time>2012-08-08T07:14:19Z</time>
      </trkpt>
      <trkpt lat="45.57909" lon="4.5554">
        <ele>813</ele>
        <time>2012-08-08T07:14:36Z</time>
      </trkpt>
      <trkpt lat="45.57909" lon="4.5554">
        <ele>813</ele>
        <time>2012-08-08T07:14:49Z</time>
      </trkpt>
      <trkpt lat="45.5791" lon="4.55539">
        <ele>813</ele>
        <time>2012-08-08T07:15:08Z</time>
      </trkpt>
      <trkpt lat="45.57909" lon="4.5554">
        <ele>813</ele>
        <time>2012-08-08T07:15:33Z</time>
      </trkpt>
      <trkpt lat="45.5791" lon="4.5554">
        <ele>813</ele>
        <time>2012-08-08T07:15:50Z</time>
      </trkpt>
      <trkpt lat="45.57909" lon="4.5554">
        <ele>813</ele>
        <time>2012-08-08T07:16:12Z</time>
      </trkpt>
      <trkpt lat="45.57909" lon="4.5554">
        <ele>814</ele>
        <time>2012-08-08T07:16:34Z</time>
      </trkpt>
      <trkpt lat="45.57909" lon="4.55542">
        <ele>813</ele>
        <time>2012-08-08T07:17:00Z</time>
      </trkpt>
      <trkpt lat="45.57909" lon="4.5554">
        <ele>813</ele>
        <time>2012-08-08T07:17:22Z</time>
      </trkpt>
      <trkpt lat="45.57909" lon="4.55541">
        <ele>813</ele>
        <time>2012-08-08T07:17:49Z</time>
      </trkpt>
      <trkpt lat="45.57909" lon="4.55541">
        <ele>814</ele>
        <time>2012-08-08T07:18:09Z</time>
      </trkpt>
      <trkpt lat="45.57909" lon="4.5554">
        <ele>813</ele>
        <time>2012-08-08T07:18:32Z</time>
      </trkpt>
      <trkpt lat="45.57908" lon="4.5554">
        <ele>813</ele>
        <time>2012-08-08T07:18:57Z</time>
      </trkpt>
      <trkpt lat="45.57907" lon="4.5554">
        <ele>813</ele>
        <time>2012-08-08T07:19:22Z</time>
      </trkpt>
      <trkpt lat="45.57908" lon="4.55539">
        <ele>814</ele>
        <time>2012-08-08T07:19:42Z</time>
      </trkpt>
      <trkpt lat="45.57908" lon="4.5554">
        <ele>813</ele>
        <time>2012-08-08T07:20:04Z</time>
      </trkpt>
      <trkpt lat="45.57908" lon="4.55539">
        <ele>813</ele>
        <time>2012-08-08T07:20:26Z</time>
      </trkpt>
      <trkpt lat="45.57908" lon="4.55539">
        <ele>813</ele>
        <time>2012-08-08T07:20:50Z</time>
      </trkpt>
      <trkpt lat="45.57909" lon="4.5554">
        <ele>813</ele>
        <time>2012-08-08T07:21:05Z</time>
      </trkpt>
      <trkpt lat="45.57909" lon="4.5554">
        <ele>813</ele>
        <time>2012-08-08T07:21:18Z</time>
      </trkpt>
      <trkpt lat="45.57909" lon="4.5554">
        <ele>813</ele>
        <time>2012-08-08T07:21:33Z</time>
      </trkpt>
      <trkpt lat="45.57908" lon="4.5554">
        <ele>813</ele>
        <time>2012-08-08T07:21:52Z</time>
      </trkpt>
      <trkpt lat="45.57908" lon="4.55541">
        <ele>813</ele>
        <time>2012-08-08T07:22:02Z</time>
      </trkpt>
      <trkpt lat="45.5791" lon="4.55543">
        <ele>814</ele>
        <time>2012-08-08T07:22:11Z</time>
      </trkpt>
      <trkpt lat="45.57913" lon="4.55544">
        <ele>814</ele>
        <time>2012-08-08T07:22:15Z</time>
      </trkpt>
      <trkpt lat="45.57915" lon="4.55544">
        <ele>814</ele>
        <time>2012-08-08T07:22:21Z</time>
      </trkpt>
      <trkpt lat="45.57914" lon="4.55548">
        <ele>814</ele>
        <time>2012-08-08T07:22:32Z</time>
      </trkpt>
      <trkpt lat="45.57914" lon="4.55548">
        <ele>814</ele>
        <time>2012-08-08T07:22:42Z</time>
      </trkpt>
      <trkpt lat="45.57914" lon="4.55546">
        <ele>814</ele>
        <time>2012-08-08T07:22:48Z</time>
      </trkpt>
      <trkpt lat="45.57914" lon="4.55544">
        <ele>814</ele>
        <time>2012-08-08T07:22:49Z</time>
      </trkpt>
      <trkpt lat="45.57914" lon="4.55542">
        <ele>814</ele>
        <time>2012-08-08T07:22:50Z</time>
      </trkpt>
      <trkpt lat="45.57914" lon="4.55539">
        <ele>814</ele>
        <time>2012-08-08T07:22:51Z</time>
      </trkpt>
      <trkpt lat="45.57913" lon="4.55537">
        <ele>814</ele>
        <time>2012-08-08T07:22:52Z</time>
      </trkpt>
      <trkpt lat="45.57913" lon="4.55534">
        <ele>814</ele>
        <time>2012-08-08T07:22:53Z</time>
      </trkpt>
      <trkpt lat="45.57911" lon="4.55515">
        <ele>815</ele>
        <time>2012-08-08T07:22:59Z</time>
      </trkpt>
      <trkpt lat="45.57906" lon="4.55488">
        <ele>815</ele>
        <time>2012-08-08T07:23:07Z</time>
      </trkpt>
      <trkpt lat="45.57904" lon="4.55459">
        <ele>816</ele>
        <time>2012-08-08T07:23:15Z</time>
      </trkpt>
      <trkpt lat="45.57893" lon="4.55437">
        <ele>816</ele>
        <time>2012-08-08T07:23:22Z</time>
      </trkpt>
      <trkpt lat="45.57876" lon="4.5541">
        <ele>817</ele>
        <time>2012-08-08T07:23:31Z</time>
      </trkpt>
      <trkpt lat="45.57867" lon="4.55383">
        <ele>817</ele>
        <time>2012-08-08T07:23:39Z</time>
      </trkpt>
      <trkpt lat="45.57856" lon="4.55347">
        <ele>818</ele>
        <time>2012-08-08T07:23:49Z</time>
      </trkpt>
      <trkpt lat="45.57852" lon="4.55307">
        <ele>819</ele>
        <time>2012-08-08T07:23:59Z</time>
      </trkpt>
      <trkpt lat="45.5785" lon="4.55277">
        <ele>819</ele>
        <time>2012-08-08T07:24:07Z</time>
      </trkpt>
      <trkpt lat="45.57847" lon="4.5525">
        <ele>820</ele>
        <time>2012-08-08T07:24:14Z</time>
      </trkpt>
      <trkpt lat="45.57848" lon="4.55234">
        <ele>820</ele>
        <time>2012-08-08T07:24:18Z</time>
      </trkpt>
      <trkpt lat="45.57849" lon="4.55229">
        <ele>821</ele>
        <time>2012-08-08T07:24:19Z</time>
      </trkpt>
      <trkpt lat="45.5785" lon="4.55224">
        <ele>821</ele>
        <time>2012-08-08T07:24:20Z</time>
      </trkpt>
      <trkpt lat="45.5785" lon="4.5522">
        <ele>821</ele>
        <time>2012-08-08T07:24:21Z</time>
      </trkpt>
      <trkpt lat="45.57851" lon="4.55215">
        <ele>820</ele>
        <time>2012-08-08T07:24:22Z</time>
      </trkpt>
      <trkpt lat="45.57852" lon="4.55211">
        <ele>821</ele>
        <time>2012-08-08T07:24:23Z</time>
      </trkpt>
      <trkpt lat="45.57853" lon="4.55207">
        <ele>821</ele>
        <time>2012-08-08T07:24:24Z</time>
      </trkpt>
      <trkpt lat="45.57853" lon="4.55203">
        <ele>820</ele>
        <time>2012-08-08T07:24:25Z</time>
      </trkpt>
      <trkpt lat="45.57854" lon="4.55198">
        <ele>821</ele>
        <time>2012-08-08T07:24:26Z</time>
      </trkpt>
      <trkpt lat="45.57854" lon="4.55194">
        <ele>820</ele>
        <time>2012-08-08T07:24:27Z</time>
      </trkpt>
      <trkpt lat="45.57854" lon="4.5519">
        <ele>820</ele>
        <time>2012-08-08T07:24:28Z</time>
      </trkpt>
      <trkpt lat="45.57854" lon="4.55185">
        <ele>820</ele>
        <time>2012-08-08T07:24:29Z</time>
      </trkpt>
      <trkpt lat="45.57854" lon="4.55181">
        <ele>820</ele>
        <time>2012-08-08T07:24:30Z</time>
      </trkpt>
      <trkpt lat="45.57854" lon="4.55176">
        <ele>820</ele>
        <time>2012-08-08T07:24:31Z</time>
      </trkpt>
      <trkpt lat="45.57853" lon="4.55172">
        <ele>821</ele>
        <time>2012-08-08T07:24:32Z</time>
      </trkpt>
      <trkpt lat="45.57854" lon="4.55169">
        <ele>820</ele>
        <time>2012-08-08T07:24:33Z</time>
      </trkpt>
      <trkpt lat="45.57855" lon="4.55139">
        <ele>819</ele>
        <time>2012-08-08T07:24:40Z</time>
      </trkpt>
      <trkpt lat="45.57853" lon="4.55134">
        <ele>819</ele>
        <time>2012-08-08T07:24:42Z</time>
      </trkpt>
      <trkpt lat="45.57851" lon="4.55134">
        <ele>819</ele>
        <time>2012-08-08T07:24:43Z</time>
      </trkpt>
      <trkpt lat="45.5785" lon="4.55134">
        <ele>820</ele>
        <time>2012-08-08T07:24:44Z</time>
      </trkpt>
      <trkpt lat="45.57849" lon="4.55135">
        <ele>820</ele>
        <time>2012-08-08T07:24:45Z</time>
      </trkpt>
      <trkpt lat="45.57847" lon="4.55136">
        <ele>820</ele>
        <time>2012-08-08T07:24:46Z</time>
      </trkpt>
      <trkpt lat="45.57846" lon="4.55137">
        <ele>821</ele>
        <time>2012-08-08T07:24:47Z</time>
      </trkpt>
      <trkpt lat="45.57844" lon="4.55137">
        <ele>821</ele>
        <time>2012-08-08T07:24:48Z</time>
      </trkpt>
      <trkpt lat="45.57842" lon="4.55137">
        <ele>821</ele>
        <time>2012-08-08T07:24:49Z</time>
      </trkpt>
      <trkpt lat="45.5784" lon="4.55137">
        <ele>821</ele>
        <time>2012-08-08T07:24:50Z</time>
      </trkpt>
      <trkpt lat="45.57838" lon="4.55137">
        <ele>821</ele>
        <time>2012-08-08T07:24:51Z</time>
      </trkpt>
      <trkpt lat="45.57836" lon="4.55137">
        <ele>821</ele>
        <time>2012-08-08T07:24:52Z</time>
      </trkpt>
      <trkpt lat="45.57835" lon="4.55138">
        <ele>822</ele>
        <time>2012-08-08T07:24:53Z</time>
      </trkpt>
      <trkpt lat="45.57823" lon="4.5514">
        <ele>823</ele>
        <time>2012-08-08T07:25:00Z</time>
      </trkpt>
      <trkpt lat="45.57806" lon="4.55141">
        <ele>823</ele>
        <time>2012-08-08T07:25:08Z</time>
      </trkpt>
      <trkpt lat="45.57788" lon="4.55141">
        <ele>823</ele>
        <time>2012-08-08T07:25:17Z</time>
      </trkpt>
      <trkpt lat="45.5777" lon="4.55138">
        <ele>822</ele>
        <time>2012-08-08T07:25:22Z</time>
      </trkpt>
      <trkpt lat="45.57756" lon="4.55128">
        <ele>821</ele>
        <time>2012-08-08T07:25:26Z</time>
      </trkpt>
      <trkpt lat="45.57735" lon="4.55101">
        <ele>820</ele>
        <time>2012-08-08T07:25:33Z</time>
      </trkpt>
      <trkpt lat="45.57732" lon="4.55096">
        <ele>820</ele>
        <time>2012-08-08T07:25:34Z</time>
      </trkpt>
      <trkpt lat="45.57729" lon="4.55091">
        <ele>820</ele>
        <time>2012-08-08T07:25:35Z</time>
      </trkpt>
      <trkpt lat="45.57727" lon="4.55087">
        <ele>820</ele>
        <time>2012-08-08T07:25:36Z</time>
      </trkpt>
      <trkpt lat="45.57724" lon="4.55082">
        <ele>819</ele>
        <time>2012-08-08T07:25:37Z</time>
      </trkpt>
      <trkpt lat="45.57721" lon="4.55078">
        <ele>820</ele>
        <time>2012-08-08T07:25:38Z</time>
      </trkpt>
      <trkpt lat="45.57718" lon="4.55073">
        <ele>819</ele>
        <time>2012-08-08T07:25:39Z</time>
      </trkpt>
      <trkpt lat="45.57708" lon="4.55059">
        <ele>819</ele>
        <time>2012-08-08T07:25:42Z</time>
      </trkpt>
      <trkpt lat="45.57705" lon="4.55054">
        <ele>818</ele>
        <time>2012-08-08T07:25:43Z</time>
      </trkpt>
      <trkpt lat="45.57701" lon="4.55049">
        <ele>819</ele>
        <time>2012-08-08T07:25:44Z</time>
      </trkpt>
      <trkpt lat="45.57673" lon="4.54999">
        <ele>816</ele>
        <time>2012-08-08T07:25:53Z</time>
      </trkpt>
      <trkpt lat="45.57652" lon="4.54962">
        <ele>815</ele>
        <time>2012-08-08T07:26:00Z</time>
      </trkpt>
      <trkpt lat="45.57632" lon="4.54941">
        <ele>814</ele>
        <time>2012-08-08T07:26:06Z</time>
      </trkpt>
      <trkpt lat="45.57613" lon="4.54929">
        <ele>814</ele>
        <time>2012-08-08T07:26:12Z</time>
      </trkpt>
      <trkpt lat="45.57593" lon="4.54917">
        <ele>814</ele>
        <time>2012-08-08T07:26:19Z</time>
      </trkpt>
      <trkpt lat="45.57575" lon="4.549">
        <ele>812</ele>
        <time>2012-08-08T07:26:25Z</time>
      </trkpt>
      <trkpt lat="45.57558" lon="4.54882">
        <ele>810</ele>
        <time>2012-08-08T07:26:30Z</time>
      </trkpt>
      <trkpt lat="45.57555" lon="4.54878">
        <ele>809</ele>
        <time>2012-08-08T07:26:31Z</time>
      </trkpt>
      <trkpt lat="45.5755" lon="4.54875">
        <ele>808</ele>
        <time>2012-08-08T07:26:32Z</time>
      </trkpt>
      <trkpt lat="45.57546" lon="4.54872">
        <ele>807</ele>
        <time>2012-08-08T07:26:33Z</time>
      </trkpt>
      <trkpt lat="45.57542" lon="4.54868">
        <ele>806</ele>
        <time>2012-08-08T07:26:34Z</time>
      </trkpt>
      <trkpt lat="45.57538" lon="4.54863">
        <ele>805</ele>
        <time>2012-08-08T07:26:35Z</time>
      </trkpt>
      <trkpt lat="45.57534" lon="4.54857">
        <ele>804</ele>
        <time>2012-08-08T07:26:36Z</time>
      </trkpt>
      <trkpt lat="45.57526" lon="4.5485">
        <ele>803</ele>
        <time>2012-08-08T07:26:37Z</time>
      </trkpt>
      <trkpt lat="45.57519" lon="4.54843">
        <ele>802</ele>
        <time>2012-08-08T07:26:38Z</time>
      </trkpt>
      <trkpt lat="45.57502" lon="4.54822">
        <ele>801</ele>
        <time>2012-08-08T07:26:41Z</time>
      </trkpt>
      <trkpt lat="45.57498" lon="4.54816">
        <ele>800</ele>
        <time>2012-08-08T07:26:42Z</time>
      </trkpt>
      <trkpt lat="45.57491" lon="4.54805">
        <ele>800</ele>
        <time>2012-08-08T07:26:44Z</time>
      </trkpt>
      <trkpt lat="45.57481" lon="4.54787">
        <ele>800</ele>
        <time>2012-08-08T07:26:49Z</time>
      </trkpt>
      <trkpt lat="45.5747" lon="4.54771">
        <ele>798</ele>
        <time>2012-08-08T07:26:54Z</time>
      </trkpt>
      <trkpt lat="45.57455" lon="4.54752">
        <ele>797</ele>
        <time>2012-08-08T07:27:00Z</time>
      </trkpt>
      <trkpt lat="45.57432" lon="4.54734">
        <ele>798</ele>
        <time>2012-08-08T07:27:07Z</time>
      </trkpt>
      <trkpt lat="45.57414" lon="4.5472">
        <ele>798</ele>
        <time>2012-08-08T07:27:13Z</time>
      </trkpt>
      <trkpt lat="45.57402" lon="4.54712">
        <ele>798</ele>
        <time>2012-08-08T07:27:20Z</time>
      </trkpt>
      <trkpt lat="45.57394" lon="4.54707">
        <ele>798</ele>
        <time>2012-08-08T07:27:34Z</time>
      </trkpt>
      <trkpt lat="45.57388" lon="4.54704">
        <ele>798</ele>
        <time>2012-08-08T07:27:39Z</time>
      </trkpt>
      <trkpt lat="45.57387" lon="4.54703">
        <ele>797</ele>
        <time>2012-08-08T07:27:40Z</time>
      </trkpt>
      <trkpt lat="45.57385" lon="4.54702">
        <ele>797</ele>
        <time>2012-08-08T07:27:41Z</time>
      </trkpt>
      <trkpt lat="45.57383" lon="4.547">
        <ele>797</ele>
        <time>2012-08-08T07:27:42Z</time>
      </trkpt>
      <trkpt lat="45.5738" lon="4.547">
        <ele>797</ele>
        <time>2012-08-08T07:27:43Z</time>
      </trkpt>
      <trkpt lat="45.57378" lon="4.54699">
        <ele>797</ele>
        <time>2012-08-08T07:27:44Z</time>
      </trkpt>
      <trkpt lat="45.57375" lon="4.54697">
        <ele>796</ele>
        <time>2012-08-08T07:27:45Z</time>
      </trkpt>
      <trkpt lat="45.57365" lon="4.54695">
        <ele>795</ele>
        <time>2012-08-08T07:27:48Z</time>
      </trkpt>
      <trkpt lat="45.57349" lon="4.54687">
        <ele>793</ele>
        <time>2012-08-08T07:27:52Z</time>
      </trkpt>
      <trkpt lat="45.57344" lon="4.54686">
        <ele>792</ele>
        <time>2012-08-08T07:27:53Z</time>
      </trkpt>
      <trkpt lat="45.57328" lon="4.54681">
        <ele>790</ele>
        <time>2012-08-08T07:27:56Z</time>
      </trkpt>
      <trkpt lat="45.57323" lon="4.54679">
        <ele>789</ele>
        <time>2012-08-08T07:27:57Z</time>
      </trkpt>
      <trkpt lat="45.57303" lon="4.54659">
        <ele>787</ele>
        <time>2012-08-08T07:28:03Z</time>
      </trkpt>
      <trkpt lat="45.57292" lon="4.54649">
        <ele>786</ele>
        <time>2012-08-08T07:28:06Z</time>
      </trkpt>
      <trkpt lat="45.57286" lon="4.54639">
        <ele>785</ele>
        <time>2012-08-08T07:28:08Z</time>
      </trkpt>
      <trkpt lat="45.57271" lon="4.54615">
        <ele>784</ele>
        <time>2012-08-08T07:28:13Z</time>
      </trkpt>
      <trkpt lat="45.57256" lon="4.54594">
        <ele>784</ele>
        <time>2012-08-08T07:28:18Z</time>
      </trkpt>
      <trkpt lat="45.57233" lon="4.54571">
        <ele>783</ele>
        <time>2012-08-08T07:28:25Z</time>
      </trkpt>
      <trkpt lat="45.57206" lon="4.54557">
        <ele>783</ele>
        <time>2012-08-08T07:28:32Z</time>
      </trkpt>
      <trkpt lat="45.57176" lon="4.54552">
        <ele>783</ele>
        <time>2012-08-08T07:28:39Z</time>
      </trkpt>
      <trkpt lat="45.57157" lon="4.54554">
        <ele>784</ele>
        <time>2012-08-08T07:28:45Z</time>
      </trkpt>
      <trkpt lat="45.57134" lon="4.54561">
        <ele>785</ele>
        <time>2012-08-08T07:28:53Z</time>
      </trkpt>
      <trkpt lat="45.57113" lon="4.54577">
        <ele>784</ele>
        <time>2012-08-08T07:29:01Z</time>
      </trkpt>
      <trkpt lat="45.57091" lon="4.54587">
        <ele>783</ele>
        <time>2012-08-08T07:29:07Z</time>
      </trkpt>
      <trkpt lat="45.57082" lon="4.5459">
        <ele>783</ele>
        <time>2012-08-08T07:29:09Z</time>
      </trkpt>
      <trkpt lat="45.57079" lon="4.54589">
        <ele>782</ele>
        <time>2012-08-08T07:29:10Z</time>
      </trkpt>
      <trkpt lat="45.57076" lon="4.54588">
        <ele>782</ele>
        <time>2012-08-08T07:29:11Z</time>
      </trkpt>
      <trkpt lat="45.57071" lon="4.54587">
        <ele>781</ele>
        <time>2012-08-08T07:29:12Z</time>
      </trkpt>
      <trkpt lat="45.57067" lon="4.54587">
        <ele>781</ele>
        <time>2012-08-08T07:29:13Z</time>
      </trkpt>
      <trkpt lat="45.57064" lon="4.54588">
        <ele>781</ele>
        <time>2012-08-08T07:29:14Z</time>
      </trkpt>
      <trkpt lat="45.57046" lon="4.54599">
        <ele>778</ele>
        <time>2012-08-08T07:29:19Z</time>
      </trkpt>
      <trkpt lat="45.5703" lon="4.54613">
        <ele>776</ele>
        <time>2012-08-08T07:29:25Z</time>
      </trkpt>
      <trkpt lat="45.57025" lon="4.54618">
        <ele>775</ele>
        <time>2012-08-08T07:29:27Z</time>
      </trkpt>
      <trkpt lat="45.57014" lon="4.54625">
        <ele>773</ele>
        <time>2012-08-08T07:29:31Z</time>
      </trkpt>
      <trkpt lat="45.56999" lon="4.54634">
        <ele>770</ele>
        <time>2012-08-08T07:29:36Z</time>
      </trkpt>
      <trkpt lat="45.56995" lon="4.54636">
        <ele>770</ele>
        <time>2012-08-08T07:29:37Z</time>
      </trkpt>
      <trkpt lat="45.56982" lon="4.54647">
        <ele>768</ele>
        <time>2012-08-08T07:29:41Z</time>
      </trkpt>
      <trkpt lat="45.56961" lon="4.54661">
        <ele>764</ele>
        <time>2012-08-08T07:29:48Z</time>
      </trkpt>
      <trkpt lat="45.56955" lon="4.54665">
        <ele>763</ele>
        <time>2012-08-08T07:29:50Z</time>
      </trkpt>
      <trkpt lat="45.56936" lon="4.54681">
        <ele>759</ele>
        <time>2012-08-08T07:29:56Z</time>
      </trkpt>
      <trkpt lat="45.56933" lon="4.54684">
        <ele>759</ele>
        <time>2012-08-08T07:29:57Z</time>
      </trkpt>
      <trkpt lat="45.56917" lon="4.54701">
        <ele>757</ele>
        <time>2012-08-08T07:30:01Z</time>
      </trkpt>
      <trkpt lat="45.56899" lon="4.5472">
        <ele>754</ele>
        <time>2012-08-08T07:30:06Z</time>
      </trkpt>
      <trkpt lat="45.56884" lon="4.54742">
        <ele>751</ele>
        <time>2012-08-08T07:30:11Z</time>
      </trkpt>
      <trkpt lat="45.56877" lon="4.5475">
        <ele>749</ele>
        <time>2012-08-08T07:30:14Z</time>
      </trkpt>
      <trkpt lat="45.56864" lon="4.5476">
        <ele>747</ele>
        <time>2012-08-08T07:30:18Z</time>
      </trkpt>
      <trkpt lat="45.5686" lon="4.54764">
        <ele>747</ele>
        <time>2012-08-08T07:30:19Z</time>
      </trkpt>
      <trkpt lat="45.56856" lon="4.54768">
        <ele>747</ele>
        <time>2012-08-08T07:30:20Z</time>
      </trkpt>
      <trkpt lat="45.56848" lon="4.54778">
        <ele>745</ele>
        <time>2012-08-08T07:30:23Z</time>
      </trkpt>
      <trkpt lat="45.56832" lon="4.54794">
        <ele>743</ele>
        <time>2012-08-08T07:30:29Z</time>
      </trkpt>
      <trkpt lat="45.56829" lon="4.54797">
        <ele>742</ele>
        <time>2012-08-08T07:30:30Z</time>
      </trkpt>
      <trkpt lat="45.56816" lon="4.5481">
        <ele>739</ele>
        <time>2012-08-08T07:30:35Z</time>
      </trkpt>
      <trkpt lat="45.56797" lon="4.54827">
        <ele>736</ele>
        <time>2012-08-08T07:30:42Z</time>
      </trkpt>
      <trkpt lat="45.56782" lon="4.54839">
        <ele>734</ele>
        <time>2012-08-08T07:30:48Z</time>
      </trkpt>
      <trkpt lat="45.56762" lon="4.54854">
        <ele>730</ele>
        <time>2012-08-08T07:30:53Z</time>
      </trkpt>
      <trkpt lat="45.56747" lon="4.5487">
        <ele>728</ele>
        <time>2012-08-08T07:30:58Z</time>
      </trkpt>
      <trkpt lat="45.56727" lon="4.54887">
        <ele>725</ele>
        <time>2012-08-08T07:31:05Z</time>
      </trkpt>
      <trkpt lat="45.56722" lon="4.54893">
        <ele>724</ele>
        <time>2012-08-08T07:31:07Z</time>
      </trkpt>
      <trkpt lat="45.56709" lon="4.54905">
        <ele>722</ele>
        <time>2012-08-08T07:31:12Z</time>
      </trkpt>
      <trkpt lat="45.56693" lon="4.54918">
        <ele>719</ele>
        <time>2012-08-08T07:31:18Z</time>
      </trkpt>
      <trkpt lat="45.56676" lon="4.54926">
        <ele>715</ele>
        <time>2012-08-08T07:31:23Z</time>
      </trkpt>
      <trkpt lat="45.56655" lon="4.54927">
        <ele>711</ele>
        <time>2012-08-08T07:31:29Z</time>
      </trkpt>
      <trkpt lat="45.56643" lon="4.54928">
        <ele>709</ele>
        <time>2012-08-08T07:31:32Z</time>
      </trkpt>
      <trkpt lat="45.56634" lon="4.5493">
        <ele>707</ele>
        <time>2012-08-08T07:31:35Z</time>
      </trkpt>
      <trkpt lat="45.56622" lon="4.54933">
        <ele>705</ele>
        <time>2012-08-08T07:31:41Z</time>
      </trkpt>
      <trkpt lat="45.56611" lon="4.54933">
        <ele>703</ele>
        <time>2012-08-08T07:31:45Z</time>
      </trkpt>
      <trkpt lat="45.56594" lon="4.54936">
        <ele>700</ele>
        <time>2012-08-08T07:31:50Z</time>
      </trkpt>
      <trkpt lat="45.5659" lon="4.54937">
        <ele>700</ele>
        <time>2012-08-08T07:31:51Z</time>
      </trkpt>
      <trkpt lat="45.56567" lon="4.54937">
        <ele>697</ele>
        <time>2012-08-08T07:31:56Z</time>
      </trkpt>
      <trkpt lat="45.56562" lon="4.54936">
        <ele>698</ele>
        <time>2012-08-08T07:31:57Z</time>
      </trkpt>
      <trkpt lat="45.56558" lon="4.54936">
        <ele>697</ele>
        <time>2012-08-08T07:31:58Z</time>
      </trkpt>
      <trkpt lat="45.56552" lon="4.54939">
        <ele>696</ele>
        <time>2012-08-08T07:31:59Z</time>
      </trkpt>
      <trkpt lat="45.56547" lon="4.54942">
        <ele>696</ele>
        <time>2012-08-08T07:32:00Z</time>
      </trkpt>
      <trkpt lat="45.56541" lon="4.54945">
        <ele>696</ele>
        <time>2012-08-08T07:32:01Z</time>
      </trkpt>
      <trkpt lat="45.56529" lon="4.54952">
        <ele>695</ele>
        <time>2012-08-08T07:32:03Z</time>
      </trkpt>
      <trkpt lat="45.56516" lon="4.54968">
        <ele>694</ele>
        <time>2012-08-08T07:32:07Z</time>
      </trkpt>
      <trkpt lat="45.56514" lon="4.5497">
        <ele>695</ele>
        <time>2012-08-08T07:32:08Z</time>
      </trkpt>
      <trkpt lat="45.56511" lon="4.54971">
        <ele>694</ele>
        <time>2012-08-08T07:32:13Z</time>
      </trkpt>
      <trkpt lat="45.56511" lon="4.54971">
        <ele>694</ele>
        <time>2012-08-08T07:32:23Z</time>
      </trkpt>
      <trkpt lat="45.5651" lon="4.5497">
        <ele>693</ele>
        <time>2012-08-08T07:32:36Z</time>
      </trkpt>
      <trkpt lat="45.5651" lon="4.54971">
        <ele>693</ele>
        <time>2012-08-08T07:32:47Z</time>
      </trkpt>
      <trkpt lat="45.56509" lon="4.54971">
        <ele>694</ele>
        <time>2012-08-08T07:32:52Z</time>
      </trkpt>
      <trkpt lat="45.56497" lon="4.54969">
        <ele>694</ele>
        <time>2012-08-08T07:32:57Z</time>
      </trkpt>
      <trkpt lat="45.56484" lon="4.54973">
        <ele>695</ele>
        <time>2012-08-08T07:33:05Z</time>
      </trkpt>
      <trkpt lat="45.56475" lon="4.54975">
        <ele>694</ele>
        <time>2012-08-08T07:33:12Z</time>
      </trkpt>
      <trkpt lat="45.56459" lon="4.54973">
        <ele>692</ele>
        <time>2012-08-08T07:33:17Z</time>
      </trkpt>
      <trkpt lat="45.56445" lon="4.54978">
        <ele>689</ele>
        <time>2012-08-08T07:33:21Z</time>
      </trkpt>
      <trkpt lat="45.56426" lon="4.54985">
        <ele>687</ele>
        <time>2012-08-08T07:33:27Z</time>
      </trkpt>
      <trkpt lat="45.56409" lon="4.55001">
        <ele>686</ele>
        <time>2012-08-08T07:33:33Z</time>
      </trkpt>
      <trkpt lat="45.56397" lon="4.55011">
        <ele>685</ele>
        <time>2012-08-08T07:33:38Z</time>
      </trkpt>
      <trkpt lat="45.56385" lon="4.55023">
        <ele>682</ele>
        <time>2012-08-08T07:33:43Z</time>
      </trkpt>
      <trkpt lat="45.56379" lon="4.55031">
        <ele>680</ele>
        <time>2012-08-08T07:33:45Z</time>
      </trkpt>
      <trkpt lat="45.56376" lon="4.55034">
        <ele>680</ele>
        <time>2012-08-08T07:33:46Z</time>
      </trkpt>
      <trkpt lat="45.56365" lon="4.55044">
        <ele>678</ele>
        <time>2012-08-08T07:33:50Z</time>
      </trkpt>
      <trkpt lat="45.56363" lon="4.55048">
        <ele>678</ele>
        <time>2012-08-08T07:33:51Z</time>
      </trkpt>
      <trkpt lat="45.56361" lon="4.5505">
        <ele>677</ele>
        <time>2012-08-08T07:33:52Z</time>
      </trkpt>
      <trkpt lat="45.56358" lon="4.55052">
        <ele>676</ele>
        <time>2012-08-08T07:33:53Z</time>
      </trkpt>
      <trkpt lat="45.56356" lon="4.55054">
        <ele>675</ele>
        <time>2012-08-08T07:33:54Z</time>
      </trkpt>
      <trkpt lat="45.56354" lon="4.55055">
        <ele>674</ele>
        <time>2012-08-08T07:33:55Z</time>
      </trkpt>
      <trkpt lat="45.56344" lon="4.55065">
        <ele>673</ele>
        <time>2012-08-08T07:33:59Z</time>
      </trkpt>
      <trkpt lat="45.56339" lon="4.55075">
        <ele>671</ele>
        <time>2012-08-08T07:34:02Z</time>
      </trkpt>
      <trkpt lat="45.56327" lon="4.55083">
        <ele>668</ele>
        <time>2012-08-08T07:34:06Z</time>
      </trkpt>
      <trkpt lat="45.56305" lon="4.55086">
        <ele>666</ele>
        <time>2012-08-08T07:34:12Z</time>
      </trkpt>
      <trkpt lat="45.56303" lon="4.55087">
        <ele>665</ele>
        <time>2012-08-08T07:34:13Z</time>
      </trkpt>
      <trkpt lat="45.563" lon="4.5509">
        <ele>665</ele>
        <time>2012-08-08T07:34:14Z</time>
      </trkpt>
      <trkpt lat="45.56298" lon="4.55093">
        <ele>664</ele>
        <time>2012-08-08T07:34:15Z</time>
      </trkpt>
      <trkpt lat="45.56296" lon="4.55097">
        <ele>664</ele>
        <time>2012-08-08T07:34:16Z</time>
      </trkpt>
      <trkpt lat="45.56295" lon="4.551">
        <ele>663</ele>
        <time>2012-08-08T07:34:17Z</time>
      </trkpt>
      <trkpt lat="45.56294" lon="4.55103">
        <ele>662</ele>
        <time>2012-08-08T07:34:18Z</time>
      </trkpt>
      <trkpt lat="45.56291" lon="4.55105">
        <ele>662</ele>
        <time>2012-08-08T07:34:19Z</time>
      </trkpt>
      <trkpt lat="45.56289" lon="4.55107">
        <ele>662</ele>
        <time>2012-08-08T07:34:20Z</time>
      </trkpt>
      <trkpt lat="45.56279" lon="4.55109">
        <ele>661</ele>
        <time>2012-08-08T07:34:26Z</time>
      </trkpt>
      <trkpt lat="45.56265" lon="4.55114">
        <ele>657</ele>
        <time>2012-08-08T07:34:32Z</time>
      </trkpt>
      <trkpt lat="45.56257" lon="4.55118">
        <ele>656</ele>
        <time>2012-08-08T07:34:35Z</time>
      </trkpt>
      <trkpt lat="45.56255" lon="4.55121">
        <ele>656</ele>
        <time>2012-08-08T07:34:36Z</time>
      </trkpt>
      <trkpt lat="45.56253" lon="4.55125">
        <ele>655</ele>
        <time>2012-08-08T07:34:38Z</time>
      </trkpt>
      <trkpt lat="45.56252" lon="4.55127">
        <ele>654</ele>
        <time>2012-08-08T07:34:39Z</time>
      </trkpt>
      <trkpt lat="45.56251" lon="4.5513">
        <ele>654</ele>
        <time>2012-08-08T07:34:40Z</time>
      </trkpt>
      <trkpt lat="45.56249" lon="4.55131">
        <ele>654</ele>
        <time>2012-08-08T07:34:41Z</time>
      </trkpt>
      <trkpt lat="45.56246" lon="4.55133">
        <ele>653</ele>
        <time>2012-08-08T07:34:42Z</time>
      </trkpt>
      <trkpt lat="45.56244" lon="4.55135">
        <ele>653</ele>
        <time>2012-08-08T07:34:43Z</time>
      </trkpt>
      <trkpt lat="45.56229" lon="4.55143">
        <ele>649</ele>
        <time>2012-08-08T07:34:48Z</time>
      </trkpt>
      <trkpt lat="45.56215" lon="4.55152">
        <ele>646</ele>
        <time>2012-08-08T07:34:53Z</time>
      </trkpt>
      <trkpt lat="45.5621" lon="4.55153">
        <ele>645</ele>
        <time>2012-08-08T07:34:55Z</time>
      </trkpt>
      <trkpt lat="45.56208" lon="4.55154">
        <ele>645</ele>
        <time>2012-08-08T07:34:56Z</time>
      </trkpt>
      <trkpt lat="45.56206" lon="4.55156">
        <ele>644</ele>
        <time>2012-08-08T07:34:57Z</time>
      </trkpt>
      <trkpt lat="45.56205" lon="4.55159">
        <ele>643</ele>
        <time>2012-08-08T07:34:58Z</time>
      </trkpt>
      <trkpt lat="45.56204" lon="4.55161">
        <ele>644</ele>
        <time>2012-08-08T07:34:59Z</time>
      </trkpt>
      <trkpt lat="45.56202" lon="4.55163">
        <ele>642</ele>
        <time>2012-08-08T07:35:00Z</time>
      </trkpt>
      <trkpt lat="45.56201" lon="4.55164">
        <ele>642</ele>
        <time>2012-08-08T07:35:01Z</time>
      </trkpt>
      <trkpt lat="45.56199" lon="4.55165">
        <ele>642</ele>
        <time>2012-08-08T07:35:02Z</time>
      </trkpt>
      <trkpt lat="45.56191" lon="4.55171">
        <ele>639</ele>
        <time>2012-08-08T07:35:08Z</time>
      </trkpt>
      <trkpt lat="45.56182" lon="4.55184">
        <ele>637</ele>
        <time>2012-08-08T07:35:13Z</time>
      </trkpt>
      <trkpt lat="45.56178" lon="4.55197">
        <ele>635</ele>
        <time>2012-08-08T07:35:16Z</time>
      </trkpt>
      <trkpt lat="45.56178" lon="4.55201">
        <ele>635</ele>
        <time>2012-08-08T07:35:17Z</time>
      </trkpt>
      <trkpt lat="45.56179" lon="4.55205">
        <ele>636</ele>
        <time>2012-08-08T07:35:18Z</time>
      </trkpt>
      <trkpt lat="45.5618" lon="4.55209">
        <ele>635</ele>
        <time>2012-08-08T07:35:19Z</time>
      </trkpt>
      <trkpt lat="45.56183" lon="4.55213">
        <ele>634</ele>
        <time>2012-08-08T07:35:20Z</time>
      </trkpt>
      <trkpt lat="45.56185" lon="4.55217">
        <ele>634</ele>
        <time>2012-08-08T07:35:21Z</time>
      </trkpt>
      <trkpt lat="45.56204" lon="4.5524">
        <ele>633</ele>
        <time>2012-08-08T07:35:28Z</time>
      </trkpt>
      <trkpt lat="45.56219" lon="4.55254">
        <ele>632</ele>
        <time>2012-08-08T07:35:34Z</time>
      </trkpt>
      <trkpt lat="45.56241" lon="4.55265">
        <ele>629</ele>
        <time>2012-08-08T07:35:40Z</time>
      </trkpt>
      <trkpt lat="45.56245" lon="4.55266">
        <ele>630</ele>
        <time>2012-08-08T07:35:41Z</time>
      </trkpt>
      <trkpt lat="45.5625" lon="4.55267">
        <ele>630</ele>
        <time>2012-08-08T07:35:42Z</time>
      </trkpt>
      <trkpt lat="45.56283" lon="4.55263">
        <ele>627</ele>
        <time>2012-08-08T07:35:47Z</time>
      </trkpt>
      <trkpt lat="45.56318" lon="4.55256">
        <ele>626</ele>
        <time>2012-08-08T07:35:52Z</time>
      </trkpt>
      <trkpt lat="45.56344" lon="4.55263">
        <ele>627</ele>
        <time>2012-08-08T07:35:57Z</time>
      </trkpt>
      <trkpt lat="45.56365" lon="4.55272">
        <ele>628</ele>
        <time>2012-08-08T07:36:04Z</time>
      </trkpt>
      <trkpt lat="45.56384" lon="4.5528">
        <ele>630</ele>
        <time>2012-08-08T07:36:11Z</time>
      </trkpt>
      <trkpt lat="45.56395" lon="4.55288">
        <ele>631</ele>
        <time>2012-08-08T07:36:18Z</time>
      </trkpt>
      <trkpt lat="45.56392" lon="4.55286">
        <ele>630</ele>
        <time>2012-08-08T07:36:26Z</time>
      </trkpt>
      <trkpt lat="45.56393" lon="4.55287">
        <ele>630</ele>
        <time>2012-08-08T07:36:31Z</time>
      </trkpt>
      <trkpt lat="45.56408" lon="4.55294">
        <ele>630</ele>
        <time>2012-08-08T07:36:39Z</time>
      </trkpt>
      <trkpt lat="45.56427" lon="4.5531">
        <ele>629</ele>
        <time>2012-08-08T07:36:45Z</time>
      </trkpt>
      <trkpt lat="45.56454" lon="4.55343">
        <ele>628</ele>
        <time>2012-08-08T07:36:51Z</time>
      </trkpt>
      <trkpt lat="45.56463" lon="4.55358">
        <ele>627</ele>
        <time>2012-08-08T07:36:53Z</time>
      </trkpt>
      <trkpt lat="45.56467" lon="4.55367">
        <ele>627</ele>
        <time>2012-08-08T07:36:54Z</time>
      </trkpt>
      <trkpt lat="45.5647" lon="4.55376">
        <ele>626</ele>
        <time>2012-08-08T07:36:55Z</time>
      </trkpt>
      <trkpt lat="45.56473" lon="4.55386">
        <ele>626</ele>
        <time>2012-08-08T07:36:56Z</time>
      </trkpt>
      <trkpt lat="45.56476" lon="4.55396">
        <ele>625</ele>
        <time>2012-08-08T07:36:57Z</time>
      </trkpt>
      <trkpt lat="45.56498" lon="4.55477">
        <ele>622</ele>
        <time>2012-08-08T07:37:05Z</time>
      </trkpt>
      <trkpt lat="45.56501" lon="4.55487">
        <ele>622</ele>
        <time>2012-08-08T07:37:06Z</time>
      </trkpt>
      <trkpt lat="45.56503" lon="4.55498">
        <ele>621</ele>
        <time>2012-08-08T07:37:07Z</time>
      </trkpt>
      <trkpt lat="45.56508" lon="4.55518">
        <ele>621</ele>
        <time>2012-08-08T07:37:09Z</time>
      </trkpt>
      <trkpt lat="45.5651" lon="4.55527">
        <ele>621</ele>
        <time>2012-08-08T07:37:10Z</time>
      </trkpt>
      <trkpt lat="45.56517" lon="4.55555">
        <ele>621</ele>
        <time>2012-08-08T07:37:13Z</time>
      </trkpt>
      <trkpt lat="45.56521" lon="4.55562">
        <ele>620</ele>
        <time>2012-08-08T07:37:14Z</time>
      </trkpt>
      <trkpt lat="45.56527" lon="4.55566">
        <ele>620</ele>
        <time>2012-08-08T07:37:15Z</time>
      </trkpt>
      <trkpt lat="45.56533" lon="4.55567">
        <ele>620</ele>
        <time>2012-08-08T07:37:16Z</time>
      </trkpt>
      <trkpt lat="45.56539" lon="4.55566">
        <ele>620</ele>
        <time>2012-08-08T07:37:17Z</time>
      </trkpt>
      <trkpt lat="45.56544" lon="4.55564">
        <ele>620</ele>
        <time>2012-08-08T07:37:18Z</time>
      </trkpt>
      <trkpt lat="45.56566" lon="4.55553">
        <ele>622</ele>
        <time>2012-08-08T07:37:24Z</time>
      </trkpt>
      <trkpt lat="45.56591" lon="4.55542">
        <ele>624</ele>
        <time>2012-08-08T07:37:32Z</time>
      </trkpt>
      <trkpt lat="45.56616" lon="4.55531">
        <ele>625</ele>
        <time>2012-08-08T07:37:41Z</time>
      </trkpt>
      <trkpt lat="45.56645" lon="4.55517">
        <ele>627</ele>
        <time>2012-08-08T07:37:51Z</time>
      </trkpt>
      <trkpt lat="45.56657" lon="4.55508">
        <ele>627</ele>
        <time>2012-08-08T07:37:56Z</time>
      </trkpt>
      <trkpt lat="45.56674" lon="4.55494">
        <ele>629</ele>
        <time>2012-08-08T07:38:03Z</time>
      </trkpt>
      <trkpt lat="45.5669" lon="4.55477">
        <ele>631</ele>
        <time>2012-08-08T07:38:10Z</time>
      </trkpt>
      <trkpt lat="45.56709" lon="4.55448">
        <ele>632</ele>
        <time>2012-08-08T07:38:19Z</time>
      </trkpt>
      <trkpt lat="45.56719" lon="4.55426">
        <ele>633</ele>
        <time>2012-08-08T07:38:25Z</time>
      </trkpt>
      <trkpt lat="45.56728" lon="4.55402">
        <ele>634</ele>
        <time>2012-08-08T07:38:32Z</time>
      </trkpt>
      <trkpt lat="45.56737" lon="4.55387">
        <ele>636</ele>
        <time>2012-08-08T07:38:38Z</time>
      </trkpt>
      <trkpt lat="45.56739" lon="4.55386">
        <ele>636</ele>
        <time>2012-08-08T07:38:39Z</time>
      </trkpt>
      <trkpt lat="45.56741" lon="4.55386">
        <ele>636</ele>
        <time>2012-08-08T07:38:40Z</time>
      </trkpt>
      <trkpt lat="45.56743" lon="4.55386">
        <ele>637</ele>
        <time>2012-08-08T07:38:41Z</time>
      </trkpt>
      <trkpt lat="45.56746" lon="4.55386">
        <ele>637</ele>
        <time>2012-08-08T07:38:42Z</time>
      </trkpt>
      <trkpt lat="45.56747" lon="4.55386">
        <ele>637</ele>
        <time>2012-08-08T07:38:43Z</time>
      </trkpt>
      <trkpt lat="45.56761" lon="4.55398">
        <ele>638</ele>
        <time>2012-08-08T07:38:49Z</time>
      </trkpt>
      <trkpt lat="45.56772" lon="4.55411">
        <ele>639</ele>
        <time>2012-08-08T07:38:56Z</time>
      </trkpt>
      <trkpt lat="45.56785" lon="4.55425">
        <ele>641</ele>
        <time>2012-08-08T07:39:04Z</time>
      </trkpt>
      <trkpt lat="45.56801" lon="4.55442">
        <ele>642</ele>
        <time>2012-08-08T07:39:12Z</time>
      </trkpt>
      <trkpt lat="45.56817" lon="4.5546">
        <ele>643</ele>
        <time>2012-08-08T07:39:20Z</time>
      </trkpt>
      <trkpt lat="45.56835" lon="4.55482">
        <ele>643</ele>
        <time>2012-08-08T07:39:28Z</time>
      </trkpt>
      <trkpt lat="45.56856" lon="4.555">
        <ele>645</ele>
        <time>2012-08-08T07:39:37Z</time>
      </trkpt>
      <trkpt lat="45.56873" lon="4.55512">
        <ele>646</ele>
        <time>2012-08-08T07:39:44Z</time>
      </trkpt>
      <trkpt lat="45.56896" lon="4.55529">
        <ele>647</ele>
        <time>2012-08-08T07:39:53Z</time>
      </trkpt>
      <trkpt lat="45.56915" lon="4.55542">
        <ele>648</ele>
        <time>2012-08-08T07:40:01Z</time>
      </trkpt>
      <trkpt lat="45.56938" lon="4.55555">
        <ele>648</ele>
        <time>2012-08-08T07:40:10Z</time>
      </trkpt>
      <trkpt lat="45.56956" lon="4.55566">
        <ele>648</ele>
        <time>2012-08-08T07:40:17Z</time>
      </trkpt>
      <trkpt lat="45.56969" lon="4.55565">
        <ele>646</ele>
        <time>2012-08-08T07:40:21Z</time>
      </trkpt>
      <trkpt lat="45.56974" lon="4.55562">
        <ele>646</ele>
        <time>2012-08-08T07:40:22Z</time>
      </trkpt>
      <trkpt lat="45.56978" lon="4.55559">
        <ele>645</ele>
        <time>2012-08-08T07:40:23Z</time>
      </trkpt>
      <trkpt lat="45.56982" lon="4.55555">
        <ele>645</ele>
        <time>2012-08-08T07:40:24Z</time>
      </trkpt>
      <trkpt lat="45.56986" lon="4.5555">
        <ele>645</ele>
        <time>2012-08-08T07:40:25Z</time>
      </trkpt>
      <trkpt lat="45.5699" lon="4.55546">
        <ele>645</ele>
        <time>2012-08-08T07:40:26Z</time>
      </trkpt>
      <trkpt lat="45.56999" lon="4.55536">
        <ele>643</ele>
        <time>2012-08-08T07:40:28Z</time>
      </trkpt>
      <trkpt lat="45.57003" lon="4.5553">
        <ele>642</ele>
        <time>2012-08-08T07:40:29Z</time>
      </trkpt>
      <trkpt lat="45.57007" lon="4.55522">
        <ele>642</ele>
        <time>2012-08-08T07:40:30Z</time>
      </trkpt>
      <trkpt lat="45.57023" lon="4.55492">
        <ele>640</ele>
        <time>2012-08-08T07:40:34Z</time>
      </trkpt>
      <trkpt lat="45.57028" lon="4.55478">
        <ele>640</ele>
        <time>2012-08-08T07:40:36Z</time>
      </trkpt>
      <trkpt lat="45.5704" lon="4.55448">
        <ele>640</ele>
        <time>2012-08-08T07:40:42Z</time>
      </trkpt>
      <trkpt lat="45.57051" lon="4.55405">
        <ele>640</ele>
        <time>2012-08-08T07:40:50Z</time>
      </trkpt>
      <trkpt lat="45.57061" lon="4.55365">
        <ele>642</ele>
        <time>2012-08-08T07:40:58Z</time>
      </trkpt>
      <trkpt lat="45.57068" lon="4.55339">
        <ele>643</ele>
        <time>2012-08-08T07:41:04Z</time>
      </trkpt>
      <trkpt lat="45.5708" lon="4.55308">
        <ele>644</ele>
        <time>2012-08-08T07:41:12Z</time>
      </trkpt>
      <trkpt lat="45.57093" lon="4.55287">
        <ele>644</ele>
        <time>2012-08-08T07:41:18Z</time>
      </trkpt>
      <trkpt lat="45.57109" lon="4.55263">
        <ele>643</ele>
        <time>2012-08-08T07:41:25Z</time>
      </trkpt>
      <trkpt lat="45.57128" lon="4.55241">
        <ele>640</ele>
        <time>2012-08-08T07:41:31Z</time>
      </trkpt>
      <trkpt lat="45.57133" lon="4.5524">
        <ele>639</ele>
        <time>2012-08-08T07:41:32Z</time>
      </trkpt>
      <trkpt lat="45.57137" lon="4.55241">
        <ele>639</ele>
        <time>2012-08-08T07:41:33Z</time>
      </trkpt>
      <trkpt lat="45.57141" lon="4.55244">
        <ele>639</ele>
        <time>2012-08-08T07:41:34Z</time>
      </trkpt>
      <trkpt lat="45.57144" lon="4.55247">
        <ele>639</ele>
        <time>2012-08-08T07:41:35Z</time>
      </trkpt>
      <trkpt lat="45.57146" lon="4.5525">
        <ele>639</ele>
        <time>2012-08-08T07:41:36Z</time>
      </trkpt>
      <trkpt lat="45.57157" lon="4.55271">
        <ele>638</ele>
        <time>2012-08-08T07:41:42Z</time>
      </trkpt>
      <trkpt lat="45.57176" lon="4.55307">
        <ele>638</ele>
        <time>2012-08-08T07:41:50Z</time>
      </trkpt>
      <trkpt lat="45.57192" lon="4.55343">
        <ele>638</ele>
        <time>2012-08-08T07:41:58Z</time>
      </trkpt>
      <trkpt lat="45.57207" lon="4.5538">
        <ele>637</ele>
        <time>2012-08-08T07:42:06Z</time>
      </trkpt>
      <trkpt lat="45.57217" lon="4.55395">
        <ele>637</ele>
        <time>2012-08-08T07:42:11Z</time>
      </trkpt>
      <trkpt lat="45.57219" lon="4.55397">
        <ele>638</ele>
        <time>2012-08-08T07:42:12Z</time>
      </trkpt>
      <trkpt lat="45.57221" lon="4.55398">
        <ele>638</ele>
        <time>2012-08-08T07:42:13Z</time>
      </trkpt>
      <trkpt lat="45.57223" lon="4.554">
        <ele>638</ele>
        <time>2012-08-08T07:42:14Z</time>
      </trkpt>
      <trkpt lat="45.57241" lon="4.55407">
        <ele>639</ele>
        <time>2012-08-08T07:42:20Z</time>
      </trkpt>
      <trkpt lat="45.57263" lon="4.55405">
        <ele>641</ele>
        <time>2012-08-08T07:42:29Z</time>
      </trkpt>
      <trkpt lat="45.57281" lon="4.55398">
        <ele>643</ele>
        <time>2012-08-08T07:42:37Z</time>
      </trkpt>
      <trkpt lat="45.57286" lon="4.55397">
        <ele>643</ele>
        <time>2012-08-08T07:42:39Z</time>
      </trkpt>
      <trkpt lat="45.57305" lon="4.55397">
        <ele>645</ele>
        <time>2012-08-08T07:42:48Z</time>
      </trkpt>
      <trkpt lat="45.57319" lon="4.55399">
        <ele>646</ele>
        <time>2012-08-08T07:42:56Z</time>
      </trkpt>
      <trkpt lat="45.57324" lon="4.55401">
        <ele>647</ele>
        <time>2012-08-08T07:43:03Z</time>
      </trkpt>
      <trkpt lat="45.57325" lon="4.55402">
        <ele>647</ele>
        <time>2012-08-08T07:43:04Z</time>
      </trkpt>
      <trkpt lat="45.57326" lon="4.55404">
        <ele>648</ele>
        <time>2012-08-08T07:43:05Z</time>
      </trkpt>
      <trkpt lat="45.57327" lon="4.55412">
        <ele>648</ele>
        <time>2012-08-08T07:43:09Z</time>
      </trkpt>
      <trkpt lat="45.57326" lon="4.55414">
        <ele>648</ele>
        <time>2012-08-08T07:43:10Z</time>
      </trkpt>
      <trkpt lat="45.57323" lon="4.55427">
        <ele>649</ele>
        <time>2012-08-08T07:43:16Z</time>
      </trkpt>
      <trkpt lat="45.57316" lon="4.55444">
        <ele>650</ele>
        <time>2012-08-08T07:43:24Z</time>
      </trkpt>
      <trkpt lat="45.57311" lon="4.55466">
        <ele>650</ele>
        <time>2012-08-08T07:43:33Z</time>
      </trkpt>
      <trkpt lat="45.57312" lon="4.55486">
        <ele>651</ele>
        <time>2012-08-08T07:43:41Z</time>
      </trkpt>
      <trkpt lat="45.57312" lon="4.55488">
        <ele>651</ele>
        <time>2012-08-08T07:43:42Z</time>
      </trkpt>
      <trkpt lat="45.57315" lon="4.55512">
        <ele>653</ele>
        <time>2012-08-08T07:43:51Z</time>
      </trkpt>
      <trkpt lat="45.57318" lon="4.55529">
        <ele>655</ele>
        <time>2012-08-08T07:43:59Z</time>
      </trkpt>
      <trkpt lat="45.57321" lon="4.55544">
        <ele>656</ele>
        <time>2012-08-08T07:44:07Z</time>
      </trkpt>
      <trkpt lat="45.57326" lon="4.55563">
        <ele>657</ele>
        <time>2012-08-08T07:44:16Z</time>
      </trkpt>
      <trkpt lat="45.57332" lon="4.55578">
        <ele>659</ele>
        <time>2012-08-08T07:44:24Z</time>
      </trkpt>
      <trkpt lat="45.57339" lon="4.55592">
        <ele>661</ele>
        <time>2012-08-08T07:44:32Z</time>
      </trkpt>
      <trkpt lat="45.57349" lon="4.55608">
        <ele>662</ele>
        <time>2012-08-08T07:44:41Z</time>
      </trkpt>
      <trkpt lat="45.57355" lon="4.55616">
        <ele>663</ele>
        <time>2012-08-08T07:44:46Z</time>
      </trkpt>
      <trkpt lat="45.57367" lon="4.55628">
        <ele>665</ele>
        <time>2012-08-08T07:44:56Z</time>
      </trkpt>
      <trkpt lat="45.57368" lon="4.55628">
        <ele>665</ele>
        <time>2012-08-08T07:44:57Z</time>
      </trkpt>
      <trkpt lat="45.57369" lon="4.55629">
        <ele>665</ele>
        <time>2012-08-08T07:44:58Z</time>
      </trkpt>
      <trkpt lat="45.5737" lon="4.5563">
        <ele>665</ele>
        <time>2012-08-08T07:44:59Z</time>
      </trkpt>
      <trkpt lat="45.57372" lon="4.55632">
        <ele>666</ele>
        <time>2012-08-08T07:45:01Z</time>
      </trkpt>
      <trkpt lat="45.57373" lon="4.55634">
        <ele>666</ele>
        <time>2012-08-08T07:45:02Z</time>
      </trkpt>
      <trkpt lat="45.57373" lon="4.55635">
        <ele>666</ele>
        <time>2012-08-08T07:45:03Z</time>
      </trkpt>
      <trkpt lat="45.57374" lon="4.55637">
        <ele>666</ele>
        <time>2012-08-08T07:45:04Z</time>
      </trkpt>
      <trkpt lat="45.57375" lon="4.55639">
        <ele>667</ele>
        <time>2012-08-08T07:45:05Z</time>
      </trkpt>
      <trkpt lat="45.57384" lon="4.55646">
        <ele>668</ele>
        <time>2012-08-08T07:45:12Z</time>
      </trkpt>
      <trkpt lat="45.57385" lon="4.55645">
        <ele>669</ele>
        <time>2012-08-08T07:45:13Z</time>
      </trkpt>
      <trkpt lat="45.57386" lon="4.55644">
        <ele>669</ele>
        <time>2012-08-08T07:45:14Z</time>
      </trkpt>
      <trkpt lat="45.57387" lon="4.55641">
        <ele>668</ele>
        <time>2012-08-08T07:45:15Z</time>
      </trkpt>
      <trkpt lat="45.57387" lon="4.55639">
        <ele>669</ele>
        <time>2012-08-08T07:45:16Z</time>
      </trkpt>
      <trkpt lat="45.57387" lon="4.55637">
        <ele>670</ele>
        <time>2012-08-08T07:45:17Z</time>
      </trkpt>
      <trkpt lat="45.57387" lon="4.55635">
        <ele>670</ele>
        <time>2012-08-08T07:45:18Z</time>
      </trkpt>
      <trkpt lat="45.57387" lon="4.55633">
        <ele>670</ele>
        <time>2012-08-08T07:45:19Z</time>
      </trkpt>
      <trkpt lat="45.57387" lon="4.55632">
        <ele>670</ele>
        <time>2012-08-08T07:45:20Z</time>
      </trkpt>
      <trkpt lat="45.57388" lon="4.55629">
        <ele>671</ele>
        <time>2012-08-08T07:45:22Z</time>
      </trkpt>
      <trkpt lat="45.5739" lon="4.55622">
        <ele>672</ele>
        <time>2012-08-08T07:45:26Z</time>
      </trkpt>
      <trkpt lat="45.57389" lon="4.5562">
        <ele>672</ele>
        <time>2012-08-08T07:45:27Z</time>
      </trkpt>
      <trkpt lat="45.57389" lon="4.55618">
        <ele>672</ele>
        <time>2012-08-08T07:45:28Z</time>
      </trkpt>
      <trkpt lat="45.5739" lon="4.55617">
        <ele>672</ele>
        <time>2012-08-08T07:45:29Z</time>
      </trkpt>
      <trkpt lat="45.5739" lon="4.55615">
        <ele>672</ele>
        <time>2012-08-08T07:45:30Z</time>
      </trkpt>
      <trkpt lat="45.5739" lon="4.55613">
        <ele>672</ele>
        <time>2012-08-08T07:45:31Z</time>
      </trkpt>
      <trkpt lat="45.5739" lon="4.55611">
        <ele>673</ele>
        <time>2012-08-08T07:45:32Z</time>
      </trkpt>
      <trkpt lat="45.5739" lon="4.55603">
        <ele>674</ele>
        <time>2012-08-08T07:45:37Z</time>
      </trkpt>
      <trkpt lat="45.5739" lon="4.55601">
        <ele>674</ele>
        <time>2012-08-08T07:45:38Z</time>
      </trkpt>
      <trkpt lat="45.5739" lon="4.55599">
        <ele>674</ele>
        <time>2012-08-08T07:45:39Z</time>
      </trkpt>
      <trkpt lat="45.57389" lon="4.55595">
        <ele>675</ele>
        <time>2012-08-08T07:45:41Z</time>
      </trkpt>
      <trkpt lat="45.57391" lon="4.55578">
        <ele>678</ele>
        <time>2012-08-08T07:45:48Z</time>
      </trkpt>
      <trkpt lat="45.5739" lon="4.55576">
        <ele>678</ele>
        <time>2012-08-08T07:45:53Z</time>
      </trkpt>
      <trkpt lat="45.5739" lon="4.55574">
        <ele>678</ele>
        <time>2012-08-08T07:45:59Z</time>
      </trkpt>
      <trkpt lat="45.5739" lon="4.55572">
        <ele>679</ele>
        <time>2012-08-08T07:46:07Z</time>
      </trkpt>
      <trkpt lat="45.5739" lon="4.5557">
        <ele>679</ele>
        <time>2012-08-08T07:46:23Z</time>
      </trkpt>
      <trkpt lat="45.57391" lon="4.55569">
        <ele>679</ele>
        <time>2012-08-08T07:46:32Z</time>
      </trkpt>
      <trkpt lat="45.57391" lon="4.55565">
        <ele>679</ele>
        <time>2012-08-08T07:46:35Z</time>
      </trkpt>
      <trkpt lat="45.57391" lon="4.55563">
        <ele>679</ele>
        <time>2012-08-08T07:46:36Z</time>
      </trkpt>
      <trkpt lat="45.57392" lon="4.5556">
        <ele>679</ele>
        <time>2012-08-08T07:46:37Z</time>
      </trkpt>
      <trkpt lat="45.57392" lon="4.55558">
        <ele>680</ele>
        <time>2012-08-08T07:46:38Z</time>
      </trkpt>
      <trkpt lat="45.57392" lon="4.55556">
        <ele>680</ele>
        <time>2012-08-08T07:46:39Z</time>
      </trkpt>
      <trkpt lat="45.57393" lon="4.55554">
        <ele>680</ele>
        <time>2012-08-08T07:46:40Z</time>
      </trkpt>
      <trkpt lat="45.57393" lon="4.55553">
        <ele>680</ele>
        <time>2012-08-08T07:46:41Z</time>
      </trkpt>
      <trkpt lat="45.57398" lon="4.55538">
        <ele>682</ele>
        <time>2012-08-08T07:46:49Z</time>
      </trkpt>
      <trkpt lat="45.57398" lon="4.55536">
        <ele>682</ele>
        <time>2012-08-08T07:46:50Z</time>
      </trkpt>
      <trkpt lat="45.57398" lon="4.55535">
        <ele>683</ele>
        <time>2012-08-08T07:46:51Z</time>
      </trkpt>
      <trkpt lat="45.57399" lon="4.55533">
        <ele>683</ele>
        <time>2012-08-08T07:46:52Z</time>
      </trkpt>
      <trkpt lat="45.574" lon="4.55531">
        <ele>682</ele>
        <time>2012-08-08T07:46:53Z</time>
      </trkpt>
      <trkpt lat="45.574" lon="4.5553">
        <ele>683</ele>
        <time>2012-08-08T07:46:54Z</time>
      </trkpt>
      <trkpt lat="45.57401" lon="4.55528">
        <ele>684</ele>
        <time>2012-08-08T07:46:55Z</time>
      </trkpt>
      <trkpt lat="45.57402" lon="4.55526">
        <ele>684</ele>
        <time>2012-08-08T07:46:56Z</time>
      </trkpt>
      <trkpt lat="45.57403" lon="4.55524">
        <ele>684</ele>
        <time>2012-08-08T07:46:57Z</time>
      </trkpt>
      <trkpt lat="45.57406" lon="4.55518">
        <ele>685</ele>
        <time>2012-08-08T07:47:01Z</time>
      </trkpt>
      <trkpt lat="45.57406" lon="4.55516">
        <ele>686</ele>
        <time>2012-08-08T07:47:02Z</time>
      </trkpt>
      <trkpt lat="45.57407" lon="4.55515">
        <ele>686</ele>
        <time>2012-08-08T07:47:03Z</time>
      </trkpt>
      <trkpt lat="45.57408" lon="4.55514">
        <ele>686</ele>
        <time>2012-08-08T07:47:04Z</time>
      </trkpt>
      <trkpt lat="45.57409" lon="4.55512">
        <ele>686</ele>
        <time>2012-08-08T07:47:05Z</time>
      </trkpt>
      <trkpt lat="45.57415" lon="4.55501">
        <ele>687</ele>
        <time>2012-08-08T07:47:12Z</time>
      </trkpt>
      <trkpt lat="45.5742" lon="4.55489">
        <ele>688</ele>
        <time>2012-08-08T07:47:20Z</time>
      </trkpt>
      <trkpt lat="45.5743" lon="4.55474">
        <ele>691</ele>
        <time>2012-08-08T07:47:29Z</time>
      </trkpt>
      <trkpt lat="45.57434" lon="4.55466">
        <ele>693</ele>
        <time>2012-08-08T07:47:33Z</time>
      </trkpt>
      <trkpt lat="45.57435" lon="4.55461">
        <ele>694</ele>
        <time>2012-08-08T07:47:36Z</time>
      </trkpt>
      <trkpt lat="45.57436" lon="4.55459">
        <ele>694</ele>
        <time>2012-08-08T07:47:37Z</time>
      </trkpt>
      <trkpt lat="45.57437" lon="4.55458">
        <ele>694</ele>
        <time>2012-08-08T07:47:38Z</time>
      </trkpt>
      <trkpt lat="45.57438" lon="4.55457">
        <ele>695</ele>
        <time>2012-08-08T07:47:39Z</time>
      </trkpt>
      <trkpt lat="45.57439" lon="4.55455">
        <ele>695</ele>
        <time>2012-08-08T07:47:40Z</time>
      </trkpt>
      <trkpt lat="45.57445" lon="4.55449">
        <ele>696</ele>
        <time>2012-08-08T07:47:46Z</time>
      </trkpt>
      <trkpt lat="45.57448" lon="4.55453">
        <ele>697</ele>
        <time>2012-08-08T07:47:52Z</time>
      </trkpt>
      <trkpt lat="45.57447" lon="4.55455">
        <ele>697</ele>
        <time>2012-08-08T07:47:54Z</time>
      </trkpt>
      <trkpt lat="45.57443" lon="4.55466">
        <ele>698</ele>
        <time>2012-08-08T07:48:00Z</time>
      </trkpt>
      <trkpt lat="45.5745" lon="4.55479">
        <ele>699</ele>
        <time>2012-08-08T07:48:08Z</time>
      </trkpt>
      <trkpt lat="45.57453" lon="4.55491">
        <ele>701</ele>
        <time>2012-08-08T07:48:15Z</time>
      </trkpt>
      <trkpt lat="45.57454" lon="4.55494">
        <ele>702</ele>
        <time>2012-08-08T07:48:17Z</time>
      </trkpt>
      <trkpt lat="45.57455" lon="4.55495">
        <ele>702</ele>
        <time>2012-08-08T07:48:18Z</time>
      </trkpt>
      <trkpt lat="45.57455" lon="4.55497">
        <ele>703</ele>
        <time>2012-08-08T07:48:19Z</time>
      </trkpt>
      <trkpt lat="45.57459" lon="4.55506">
        <ele>704</ele>
        <time>2012-08-08T07:48:26Z</time>
      </trkpt>
      <trkpt lat="45.57465" lon="4.55502">
        <ele>706</ele>
        <time>2012-08-08T07:48:33Z</time>
      </trkpt>
      <trkpt lat="45.57466" lon="4.55499">
        <ele>706</ele>
        <time>2012-08-08T07:48:35Z</time>
      </trkpt>
      <trkpt lat="45.57466" lon="4.55498">
        <ele>706</ele>
        <time>2012-08-08T07:48:36Z</time>
      </trkpt>
      <trkpt lat="45.57466" lon="4.55496">
        <ele>706</ele>
        <time>2012-08-08T07:48:37Z</time>
      </trkpt>
      <trkpt lat="45.57466" lon="4.55494">
        <ele>706</ele>
        <time>2012-08-08T07:48:38Z</time>
      </trkpt>
      <trkpt lat="45.57466" lon="4.55492">
        <ele>707</ele>
        <time>2012-08-08T07:48:39Z</time>
      </trkpt>
      <trkpt lat="45.57466" lon="4.5549">
        <ele>707</ele>
        <time>2012-08-08T07:48:40Z</time>
      </trkpt>
      <trkpt lat="45.57467" lon="4.55488">
        <ele>707</ele>
        <time>2012-08-08T07:48:41Z</time>
      </trkpt>
      <trkpt lat="45.5747" lon="4.55484">
        <ele>708</ele>
        <time>2012-08-08T07:48:47Z</time>
      </trkpt>
      <trkpt lat="45.57472" lon="4.55487">
        <ele>709</ele>
        <time>2012-08-08T07:48:49Z</time>
      </trkpt>
      <trkpt lat="45.57472" lon="4.55488">
        <ele>709</ele>
        <time>2012-08-08T07:48:50Z</time>
      </trkpt>
      <trkpt lat="45.57473" lon="4.55493">
        <ele>709</ele>
        <time>2012-08-08T07:48:53Z</time>
      </trkpt>
      <trkpt lat="45.57473" lon="4.55494">
        <ele>709</ele>
        <time>2012-08-08T07:48:54Z</time>
      </trkpt>
      <trkpt lat="45.57473" lon="4.55496">
        <ele>709</ele>
        <time>2012-08-08T07:48:55Z</time>
      </trkpt>
      <trkpt lat="45.57478" lon="4.55508">
        <ele>710</ele>
        <time>2012-08-08T07:49:05Z</time>
      </trkpt>
      <trkpt lat="45.57488" lon="4.55519">
        <ele>712</ele>
        <time>2012-08-08T07:49:17Z</time>
      </trkpt>
      <trkpt lat="45.57498" lon="4.55529">
        <ele>712</ele>
        <time>2012-08-08T07:49:28Z</time>
      </trkpt>
      <trkpt lat="45.57505" lon="4.55535">
        <ele>713</ele>
        <time>2012-08-08T07:49:36Z</time>
      </trkpt>
      <trkpt lat="45.57507" lon="4.5554">
        <ele>713</ele>
        <time>2012-08-08T07:49:41Z</time>
      </trkpt>
      <trkpt lat="45.57508" lon="4.55541">
        <ele>714</ele>
        <time>2012-08-08T07:49:42Z</time>
      </trkpt>
      <trkpt lat="45.57521" lon="4.55554">
        <ele>713</ele>
        <time>2012-08-08T07:49:52Z</time>
      </trkpt>
      <trkpt lat="45.57529" lon="4.55562">
        <ele>713</ele>
        <time>2012-08-08T07:49:55Z</time>
      </trkpt>
      <trkpt lat="45.57533" lon="4.55565">
        <ele>712</ele>
        <time>2012-08-08T07:49:56Z</time>
      </trkpt>
      <trkpt lat="45.57537" lon="4.55568">
        <ele>712</ele>
        <time>2012-08-08T07:49:57Z</time>
      </trkpt>
      <trkpt lat="45.57541" lon="4.55572">
        <ele>712</ele>
        <time>2012-08-08T07:49:58Z</time>
      </trkpt>
      <trkpt lat="45.57546" lon="4.55576">
        <ele>712</ele>
        <time>2012-08-08T07:49:59Z</time>
      </trkpt>
      <trkpt lat="45.5755" lon="4.55579">
        <ele>711</ele>
        <time>2012-08-08T07:50:00Z</time>
      </trkpt>
      <trkpt lat="45.57592" lon="4.55611">
        <ele>711</ele>
        <time>2012-08-08T07:50:09Z</time>
      </trkpt>
      <trkpt lat="45.57595" lon="4.55616">
        <ele>711</ele>
        <time>2012-08-08T07:50:10Z</time>
      </trkpt>
      <trkpt lat="45.57599" lon="4.5562">
        <ele>711</ele>
        <time>2012-08-08T07:50:11Z</time>
      </trkpt>
      <trkpt lat="45.57604" lon="4.55631">
        <ele>710</ele>
        <time>2012-08-08T07:50:13Z</time>
      </trkpt>
      <trkpt lat="45.57607" lon="4.55638">
        <ele>710</ele>
        <time>2012-08-08T07:50:14Z</time>
      </trkpt>
      <trkpt lat="45.57621" lon="4.55677">
        <ele>708</ele>
        <time>2012-08-08T07:50:19Z</time>
      </trkpt>
      <trkpt lat="45.57624" lon="4.55686">
        <ele>707</ele>
        <time>2012-08-08T07:50:20Z</time>
      </trkpt>
      <trkpt lat="45.57628" lon="4.55695">
        <ele>707</ele>
        <time>2012-08-08T07:50:21Z</time>
      </trkpt>
      <trkpt lat="45.57647" lon="4.55761">
        <ele>705</ele>
        <time>2012-08-08T07:50:28Z</time>
      </trkpt>
      <trkpt lat="45.57654" lon="4.55798">
        <ele>706</ele>
        <time>2012-08-08T07:50:33Z</time>
      </trkpt>
      <trkpt lat="45.57658" lon="4.55844">
        <ele>707</ele>
        <time>2012-08-08T07:50:42Z</time>
      </trkpt>
      <trkpt lat="45.57668" lon="4.55873">
        <ele>707</ele>
        <time>2012-08-08T07:50:48Z</time>
      </trkpt>
      <trkpt lat="45.57675" lon="4.55916">
        <ele>708</ele>
        <time>2012-08-08T07:50:57Z</time>
      </trkpt>
      <trkpt lat="45.57677" lon="4.5595">
        <ele>709</ele>
        <time>2012-08-08T07:51:04Z</time>
      </trkpt>
      <trkpt lat="45.57678" lon="4.55962">
        <ele>709</ele>
        <time>2012-08-08T07:51:06Z</time>
      </trkpt>
      <trkpt lat="45.5768" lon="4.55968">
        <ele>708</ele>
        <time>2012-08-08T07:51:07Z</time>
      </trkpt>
      <trkpt lat="45.57687" lon="4.56001">
        <ele>708</ele>
        <time>2012-08-08T07:51:12Z</time>
      </trkpt>
      <trkpt lat="45.57687" lon="4.56007">
        <ele>708</ele>
        <time>2012-08-08T07:51:13Z</time>
      </trkpt>
      <trkpt lat="45.57688" lon="4.56014">
        <ele>708</ele>
        <time>2012-08-08T07:51:14Z</time>
      </trkpt>
      <trkpt lat="45.57688" lon="4.5602">
        <ele>708</ele>
        <time>2012-08-08T07:51:15Z</time>
      </trkpt>
      <trkpt lat="45.57688" lon="4.56025">
        <ele>708</ele>
        <time>2012-08-08T07:51:16Z</time>
      </trkpt>
      <trkpt lat="45.57694" lon="4.56091">
        <ele>708</ele>
        <time>2012-08-08T07:51:28Z</time>
      </trkpt>
      <trkpt lat="45.57696" lon="4.56146">
        <ele>708</ele>
        <time>2012-08-08T07:51:38Z</time>
      </trkpt>
      <trkpt lat="45.57699" lon="4.56187">
        <ele>709</ele>
        <time>2012-08-08T07:51:46Z</time>
      </trkpt>
      <trkpt lat="45.57701" lon="4.56225">
        <ele>710</ele>
        <time>2012-08-08T07:51:54Z</time>
      </trkpt>
      <trkpt lat="45.57705" lon="4.56259">
        <ele>709</ele>
        <time>2012-08-08T07:52:02Z</time>
      </trkpt>
      <trkpt lat="45.5771" lon="4.56295">
        <ele>709</ele>
        <time>2012-08-08T07:52:09Z</time>
      </trkpt>
      <trkpt lat="45.57713" lon="4.56338">
        <ele>709</ele>
        <time>2012-08-08T07:52:17Z</time>
      </trkpt>
      <trkpt lat="45.57707" lon="4.56382">
        <ele>709</ele>
        <time>2012-08-08T07:52:25Z</time>
      </trkpt>
      <trkpt lat="45.57703" lon="4.56419">
        <ele>709</ele>
        <time>2012-08-08T07:52:32Z</time>
      </trkpt>
      <trkpt lat="45.57708" lon="4.5645">
        <ele>710</ele>
        <time>2012-08-08T07:52:39Z</time>
      </trkpt>
      <trkpt lat="45.57713" lon="4.56472">
        <ele>711</ele>
        <time>2012-08-08T07:52:45Z</time>
      </trkpt>
      <trkpt lat="45.57725" lon="4.56496">
        <ele>711</ele>
        <time>2012-08-08T07:52:52Z</time>
      </trkpt>
      <trkpt lat="45.57738" lon="4.56517">
        <ele>712</ele>
        <time>2012-08-08T07:52:59Z</time>
      </trkpt>
      <trkpt lat="45.57752" lon="4.56544">
        <ele>712</ele>
        <time>2012-08-08T07:53:07Z</time>
      </trkpt>
      <trkpt lat="45.57762" lon="4.56569">
        <ele>713</ele>
        <time>2012-08-08T07:53:14Z</time>
      </trkpt>
      <trkpt lat="45.57769" lon="4.56586">
        <ele>714</ele>
        <time>2012-08-08T07:53:20Z</time>
      </trkpt>
      <trkpt lat="45.57776" lon="4.56606">
        <ele>716</ele>
        <time>2012-08-08T07:53:27Z</time>
      </trkpt>
      <trkpt lat="45.57785" lon="4.56632">
        <ele>717</ele>
        <time>2012-08-08T07:53:36Z</time>
      </trkpt>
      <trkpt lat="45.57797" lon="4.56663">
        <ele>719</ele>
        <time>2012-08-08T07:53:47Z</time>
      </trkpt>
      <trkpt lat="45.57813" lon="4.56676">
        <ele>720</ele>
        <time>2012-08-08T07:53:56Z</time>
      </trkpt>
      <trkpt lat="45.57829" lon="4.56678">
        <ele>721</ele>
        <time>2012-08-08T07:54:04Z</time>
      </trkpt>
      <trkpt lat="45.57839" lon="4.56679">
        <ele>722</ele>
        <time>2012-08-08T07:54:11Z</time>
      </trkpt>
      <trkpt lat="45.57854" lon="4.56682">
        <ele>724</ele>
        <time>2012-08-08T07:54:20Z</time>
      </trkpt>
      <trkpt lat="45.57868" lon="4.56683">
        <ele>725</ele>
        <time>2012-08-08T07:54:29Z</time>
      </trkpt>
      <trkpt lat="45.57882" lon="4.56683">
        <ele>727</ele>
        <time>2012-08-08T07:54:39Z</time>
      </trkpt>
      <trkpt lat="45.57891" lon="4.56683">
        <ele>730</ele>
        <time>2012-08-08T07:54:47Z</time>
      </trkpt>
      <trkpt lat="45.57897" lon="4.56683">
        <ele>730</ele>
        <time>2012-08-08T07:54:52Z</time>
      </trkpt>
      <trkpt lat="45.5791" lon="4.56685">
        <ele>732</ele>
        <time>2012-08-08T07:55:02Z</time>
      </trkpt>
      <trkpt lat="45.57914" lon="4.56685">
        <ele>732</ele>
        <time>2012-08-08T07:55:05Z</time>
      </trkpt>
      <trkpt lat="45.57915" lon="4.56685">
        <ele>733</ele>
        <time>2012-08-08T07:55:06Z</time>
      </trkpt>
      <trkpt lat="45.57917" lon="4.56686">
        <ele>733</ele>
        <time>2012-08-08T07:55:07Z</time>
      </trkpt>
      <trkpt lat="45.57928" lon="4.56685">
        <ele>733</ele>
        <time>2012-08-08T07:55:15Z</time>
      </trkpt>
      <trkpt lat="45.57931" lon="4.56685">
        <ele>734</ele>
        <time>2012-08-08T07:55:18Z</time>
      </trkpt>
      <trkpt lat="45.57945" lon="4.56688">
        <ele>735</ele>
        <time>2012-08-08T07:55:28Z</time>
      </trkpt>
      <trkpt lat="45.57955" lon="4.56691">
        <ele>736</ele>
        <time>2012-08-08T07:55:36Z</time>
      </trkpt>
      <trkpt lat="45.5796" lon="4.56691">
        <ele>736</ele>
        <time>2012-08-08T07:55:44Z</time>
      </trkpt>
      <trkpt lat="45.57957" lon="4.56698">
        <ele>736</ele>
        <time>2012-08-08T07:56:04Z</time>
      </trkpt>
      <trkpt lat="45.57955" lon="4.56697">
        <ele>736</ele>
        <time>2012-08-08T07:56:20Z</time>
      </trkpt>
      <trkpt lat="45.57957" lon="4.56693">
        <ele>737</ele>
        <time>2012-08-08T07:56:40Z</time>
      </trkpt>
      <trkpt lat="45.57966" lon="4.5669">
        <ele>737</ele>
        <time>2012-08-08T07:57:00Z</time>
      </trkpt>
      <trkpt lat="45.57963" lon="4.5669">
        <ele>737</ele>
        <time>2012-08-08T07:57:20Z</time>
      </trkpt>
      <trkpt lat="45.57964" lon="4.56691">
        <ele>738</ele>
        <time>2012-08-08T07:57:38Z</time>
      </trkpt>
      <trkpt lat="45.57966" lon="4.56692">
        <ele>738</ele>
        <time>2012-08-08T07:57:54Z</time>
      </trkpt>
      <trkpt lat="45.57965" lon="4.56691">
        <ele>737</ele>
        <time>2012-08-08T07:58:02Z</time>
      </trkpt>
      <trkpt lat="45.57968" lon="4.56694">
        <ele>737</ele>
        <time>2012-08-08T07:58:07Z</time>
      </trkpt>
      <trkpt lat="45.57969" lon="4.56696">
        <ele>737</ele>
        <time>2012-08-08T07:58:08Z</time>
      </trkpt>
      <trkpt lat="45.5797" lon="4.56697">
        <ele>736</ele>
        <time>2012-08-08T07:58:09Z</time>
      </trkpt>
      <trkpt lat="45.57973" lon="4.56699">
        <ele>735</ele>
        <time>2012-08-08T07:58:12Z</time>
      </trkpt>
      <trkpt lat="45.57976" lon="4.56703">
        <ele>735</ele>
        <time>2012-08-08T07:58:16Z</time>
      </trkpt>
      <trkpt lat="45.57978" lon="4.56704">
        <ele>734</ele>
        <time>2012-08-08T07:58:17Z</time>
      </trkpt>
      <trkpt lat="45.57988" lon="4.56711">
        <ele>733</ele>
        <time>2012-08-08T07:58:21Z</time>
      </trkpt>
      <trkpt lat="45.57999" lon="4.56725">
        <ele>729</ele>
        <time>2012-08-08T07:58:26Z</time>
      </trkpt>
      <trkpt lat="45.58014" lon="4.56738">
        <ele>726</ele>
        <time>2012-08-08T07:58:31Z</time>
      </trkpt>
      <trkpt lat="45.58021" lon="4.56744">
        <ele>724</ele>
        <time>2012-08-08T07:58:33Z</time>
      </trkpt>
      <trkpt lat="45.58037" lon="4.56757">
        <ele>723</ele>
        <time>2012-08-08T07:58:36Z</time>
      </trkpt>
      <trkpt lat="45.58047" lon="4.56767">
        <ele>723</ele>
        <time>2012-08-08T07:58:38Z</time>
      </trkpt>
      <trkpt lat="45.58051" lon="4.56771">
        <ele>722</ele>
        <time>2012-08-08T07:58:39Z</time>
      </trkpt>
      <trkpt lat="45.58056" lon="4.56775">
        <ele>722</ele>
        <time>2012-08-08T07:58:40Z</time>
      </trkpt>
      <trkpt lat="45.5806" lon="4.56778">
        <ele>722</ele>
        <time>2012-08-08T07:58:41Z</time>
      </trkpt>
      <trkpt lat="45.58065" lon="4.5678">
        <ele>721</ele>
        <time>2012-08-08T07:58:42Z</time>
      </trkpt>
      <trkpt lat="45.58069" lon="4.56783">
        <ele>721</ele>
        <time>2012-08-08T07:58:43Z</time>
      </trkpt>
      <trkpt lat="45.58079" lon="4.56788">
        <ele>721</ele>
        <time>2012-08-08T07:58:47Z</time>
      </trkpt>
      <trkpt lat="45.58088" lon="4.56795">
        <ele>721</ele>
        <time>2012-08-08T07:58:54Z</time>
      </trkpt>
      <trkpt lat="45.58094" lon="4.56801">
        <ele>720</ele>
        <time>2012-08-08T07:59:00Z</time>
      </trkpt>
      <trkpt lat="45.58104" lon="4.56813">
        <ele>720</ele>
        <time>2012-08-08T07:59:05Z</time>
      </trkpt>
      <trkpt lat="45.58119" lon="4.5683">
        <ele>719</ele>
        <time>2012-08-08T07:59:10Z</time>
      </trkpt>
      <trkpt lat="45.58127" lon="4.56843">
        <ele>718</ele>
        <time>2012-08-08T07:59:13Z</time>
      </trkpt>
      <trkpt lat="45.58131" lon="4.56847">
        <ele>718</ele>
        <time>2012-08-08T07:59:14Z</time>
      </trkpt>
      <trkpt lat="45.5814" lon="4.5686">
        <ele>718</ele>
        <time>2012-08-08T07:59:17Z</time>
      </trkpt>
      <trkpt lat="45.58156" lon="4.56891">
        <ele>717</ele>
        <time>2012-08-08T07:59:24Z</time>
      </trkpt>
      <trkpt lat="45.58159" lon="4.56897">
        <ele>717</ele>
        <time>2012-08-08T07:59:26Z</time>
      </trkpt>
      <trkpt lat="45.58162" lon="4.569">
        <ele>717</ele>
        <time>2012-08-08T07:59:27Z</time>
      </trkpt>
      <trkpt lat="45.58164" lon="4.56904">
        <ele>717</ele>
        <time>2012-08-08T07:59:28Z</time>
      </trkpt>
      <trkpt lat="45.58175" lon="4.56924">
        <ele>719</ele>
        <time>2012-08-08T07:59:35Z</time>
      </trkpt>
      <trkpt lat="45.58183" lon="4.56936">
        <ele>720</ele>
        <time>2012-08-08T07:59:42Z</time>
      </trkpt>
      <trkpt lat="45.58184" lon="4.56938">
        <ele>721</ele>
        <time>2012-08-08T07:59:43Z</time>
      </trkpt>
      <trkpt lat="45.58185" lon="4.5694">
        <ele>721</ele>
        <time>2012-08-08T07:59:44Z</time>
      </trkpt>
      <trkpt lat="45.58194" lon="4.56955">
        <ele>723</ele>
        <time>2012-08-08T07:59:51Z</time>
      </trkpt>
      <trkpt lat="45.58203" lon="4.56971">
        <ele>724</ele>
        <time>2012-08-08T07:59:58Z</time>
      </trkpt>
      <trkpt lat="45.58213" lon="4.56983">
        <ele>726</ele>
        <time>2012-08-08T08:00:05Z</time>
      </trkpt>
      <trkpt lat="45.58222" lon="4.56998">
        <ele>726</ele>
        <time>2012-08-08T08:00:12Z</time>
      </trkpt>
      <trkpt lat="45.58239" lon="4.57016">
        <ele>725</ele>
        <time>2012-08-08T08:00:20Z</time>
      </trkpt>
      <trkpt lat="45.58257" lon="4.57037">
        <ele>724</ele>
        <time>2012-08-08T08:00:25Z</time>
      </trkpt>
      <trkpt lat="45.58266" lon="4.57048">
        <ele>723</ele>
        <time>2012-08-08T08:00:27Z</time>
      </trkpt>
      <trkpt lat="45.58294" lon="4.57082">
        <ele>720</ele>
        <time>2012-08-08T08:00:33Z</time>
      </trkpt>
      <trkpt lat="45.58299" lon="4.57088">
        <ele>720</ele>
        <time>2012-08-08T08:00:34Z</time>
      </trkpt>
      <trkpt lat="45.58303" lon="4.57095">
        <ele>719</ele>
        <time>2012-08-08T08:00:35Z</time>
      </trkpt>
      <trkpt lat="45.58308" lon="4.57102">
        <ele>718</ele>
        <time>2012-08-08T08:00:36Z</time>
      </trkpt>
      <trkpt lat="45.58322" lon="4.57126">
        <ele>714</ele>
        <time>2012-08-08T08:00:39Z</time>
      </trkpt>
      <trkpt lat="45.58327" lon="4.57133">
        <ele>714</ele>
        <time>2012-08-08T08:00:40Z</time>
      </trkpt>
      <trkpt lat="45.58336" lon="4.57147">
        <ele>713</ele>
        <time>2012-08-08T08:00:42Z</time>
      </trkpt>
      <trkpt lat="45.58341" lon="4.57159">
        <ele>711</ele>
        <time>2012-08-08T08:00:44Z</time>
      </trkpt>
      <trkpt lat="45.58344" lon="4.57164">
        <ele>711</ele>
        <time>2012-08-08T08:00:45Z</time>
      </trkpt>
      <trkpt lat="45.58346" lon="4.57169">
        <ele>710</ele>
        <time>2012-08-08T08:00:46Z</time>
      </trkpt>
      <trkpt lat="45.58353" lon="4.57186">
        <ele>707</ele>
        <time>2012-08-08T08:00:50Z</time>
      </trkpt>
      <trkpt lat="45.58357" lon="4.57196">
        <ele>706</ele>
        <time>2012-08-08T08:00:53Z</time>
      </trkpt>
      <trkpt lat="45.58362" lon="4.57209">
        <ele>705</ele>
        <time>2012-08-08T08:00:56Z</time>
      </trkpt>
      <trkpt lat="45.58369" lon="4.57232">
        <ele>701</ele>
        <time>2012-08-08T08:01:01Z</time>
      </trkpt>
      <trkpt lat="45.58374" lon="4.57258">
        <ele>698</ele>
        <time>2012-08-08T08:01:07Z</time>
      </trkpt>
      <trkpt lat="45.58375" lon="4.57263">
        <ele>698</ele>
        <time>2012-08-08T08:01:08Z</time>
      </trkpt>
      <trkpt lat="45.58376" lon="4.57271">
        <ele>697</ele>
        <time>2012-08-08T08:01:10Z</time>
      </trkpt>
      <trkpt lat="45.58377" lon="4.57275">
        <ele>697</ele>
        <time>2012-08-08T08:01:11Z</time>
      </trkpt>
      <trkpt lat="45.58382" lon="4.5729">
        <ele>694</ele>
        <time>2012-08-08T08:01:15Z</time>
      </trkpt>
      <trkpt lat="45.58387" lon="4.57305">
        <ele>692</ele>
        <time>2012-08-08T08:01:19Z</time>
      </trkpt>
      <trkpt lat="45.58392" lon="4.57322">
        <ele>689</ele>
        <time>2012-08-08T08:01:23Z</time>
      </trkpt>
      <trkpt lat="45.58394" lon="4.57326">
        <ele>688</ele>
        <time>2012-08-08T08:01:24Z</time>
      </trkpt>
      <trkpt lat="45.58401" lon="4.57338">
        <ele>687</ele>
        <time>2012-08-08T08:01:27Z</time>
      </trkpt>
      <trkpt lat="45.58405" lon="4.57353">
        <ele>685</ele>
        <time>2012-08-08T08:01:32Z</time>
      </trkpt>
      <trkpt lat="45.58405" lon="4.57358">
        <ele>684</ele>
        <time>2012-08-08T08:01:34Z</time>
      </trkpt>
      <trkpt lat="45.58405" lon="4.57361">
        <ele>684</ele>
        <time>2012-08-08T08:01:35Z</time>
      </trkpt>
      <trkpt lat="45.58407" lon="4.57368">
        <ele>684</ele>
        <time>2012-08-08T08:01:37Z</time>
      </trkpt>
      <trkpt lat="45.58408" lon="4.57372">
        <ele>684</ele>
        <time>2012-08-08T08:01:38Z</time>
      </trkpt>
      <trkpt lat="45.58408" lon="4.57375">
        <ele>684</ele>
        <time>2012-08-08T08:01:39Z</time>
      </trkpt>
      <trkpt lat="45.58409" lon="4.57378">
        <ele>683</ele>
        <time>2012-08-08T08:01:40Z</time>
      </trkpt>
      <trkpt lat="45.58409" lon="4.57382">
        <ele>683</ele>
        <time>2012-08-08T08:01:41Z</time>
      </trkpt>
      <trkpt lat="45.58409" lon="4.57391">
        <ele>681</ele>
        <time>2012-08-08T08:01:44Z</time>
      </trkpt>
      <trkpt lat="45.58408" lon="4.57395">
        <ele>681</ele>
        <time>2012-08-08T08:01:46Z</time>
      </trkpt>
      <trkpt lat="45.58408" lon="4.57403">
        <ele>681</ele>
        <time>2012-08-08T08:01:50Z</time>
      </trkpt>
      <trkpt lat="45.58407" lon="4.57409">
        <ele>680</ele>
        <time>2012-08-08T08:01:52Z</time>
      </trkpt>
      <trkpt lat="45.58396" lon="4.57434">
        <ele>680</ele>
        <time>2012-08-08T08:01:58Z</time>
      </trkpt>
      <trkpt lat="45.58384" lon="4.57454">
        <ele>679</ele>
        <time>2012-08-08T08:02:03Z</time>
      </trkpt>
      <trkpt lat="45.58374" lon="4.57473">
        <ele>680</ele>
        <time>2012-08-08T08:02:08Z</time>
      </trkpt>
      <trkpt lat="45.58366" lon="4.57486">
        <ele>681</ele>
        <time>2012-08-08T08:02:14Z</time>
      </trkpt>
      <trkpt lat="45.58364" lon="4.57488">
        <ele>681</ele>
        <time>2012-08-08T08:02:15Z</time>
      </trkpt>
      <trkpt lat="45.58363" lon="4.5749">
        <ele>681</ele>
        <time>2012-08-08T08:02:16Z</time>
      </trkpt>
      <trkpt lat="45.58361" lon="4.57492">
        <ele>681</ele>
        <time>2012-08-08T08:02:17Z</time>
      </trkpt>
      <trkpt lat="45.58351" lon="4.5751">
        <ele>680</ele>
        <time>2012-08-08T08:02:23Z</time>
      </trkpt>
      <trkpt lat="45.5835" lon="4.57521">
        <ele>680</ele>
        <time>2012-08-08T08:02:24Z</time>
      </trkpt>
      <trkpt lat="45.58343" lon="4.57558">
        <ele>679</ele>
        <time>2012-08-08T08:02:30Z</time>
      </trkpt>
      <trkpt lat="45.58336" lon="4.5757">
        <ele>679</ele>
        <time>2012-08-08T08:02:32Z</time>
      </trkpt>
      <trkpt lat="45.58317" lon="4.57604">
        <ele>678</ele>
        <time>2012-08-08T08:02:39Z</time>
      </trkpt>
      <trkpt lat="45.58312" lon="4.57627">
        <ele>680</ele>
        <time>2012-08-08T08:02:44Z</time>
      </trkpt>
      <trkpt lat="45.583" lon="4.57649">
        <ele>681</ele>
        <time>2012-08-08T08:02:50Z</time>
      </trkpt>
      <trkpt lat="45.58292" lon="4.5767">
        <ele>681</ele>
        <time>2012-08-08T08:02:54Z</time>
      </trkpt>
      <trkpt lat="45.58285" lon="4.57706">
        <ele>680</ele>
        <time>2012-08-08T08:03:01Z</time>
      </trkpt>
      <trkpt lat="45.58279" lon="4.57727">
        <ele>679</ele>
        <time>2012-08-08T08:03:06Z</time>
      </trkpt>
      <trkpt lat="45.58277" lon="4.57738">
        <ele>678</ele>
        <time>2012-08-08T08:03:08Z</time>
      </trkpt>
      <trkpt lat="45.58274" lon="4.57761">
        <ele>676</ele>
        <time>2012-08-08T08:03:12Z</time>
      </trkpt>
      <trkpt lat="45.58275" lon="4.57769">
        <ele>676</ele>
        <time>2012-08-08T08:03:13Z</time>
      </trkpt>
      <trkpt lat="45.58278" lon="4.57785">
        <ele>675</ele>
        <time>2012-08-08T08:03:15Z</time>
      </trkpt>
      <trkpt lat="45.58278" lon="4.57793">
        <ele>675</ele>
        <time>2012-08-08T08:03:16Z</time>
      </trkpt>
      <trkpt lat="45.58277" lon="4.578">
        <ele>675</ele>
        <time>2012-08-08T08:03:17Z</time>
      </trkpt>
      <trkpt lat="45.58274" lon="4.57815">
        <ele>674</ele>
        <time>2012-08-08T08:03:19Z</time>
      </trkpt>
      <trkpt lat="45.58267" lon="4.5784">
        <ele>672</ele>
        <time>2012-08-08T08:03:22Z</time>
      </trkpt>
      <trkpt lat="45.58258" lon="4.57883">
        <ele>668</ele>
        <time>2012-08-08T08:03:27Z</time>
      </trkpt>
      <trkpt lat="45.58253" lon="4.5791">
        <ele>667</ele>
        <time>2012-08-08T08:03:30Z</time>
      </trkpt>
      <trkpt lat="45.58247" lon="4.57945">
        <ele>663</ele>
        <time>2012-08-08T08:03:34Z</time>
      </trkpt>
      <trkpt lat="45.58243" lon="4.57969">
        <ele>662</ele>
        <time>2012-08-08T08:03:37Z</time>
      </trkpt>
      <trkpt lat="45.58242" lon="4.57976">
        <ele>662</ele>
        <time>2012-08-08T08:03:38Z</time>
      </trkpt>
      <trkpt lat="45.5824" lon="4.5799">
        <ele>660</ele>
        <time>2012-08-08T08:03:40Z</time>
      </trkpt>
      <trkpt lat="45.58238" lon="4.58003">
        <ele>659</ele>
        <time>2012-08-08T08:03:42Z</time>
      </trkpt>
      <trkpt lat="45.58237" lon="4.58011">
        <ele>658</ele>
        <time>2012-08-08T08:03:43Z</time>
      </trkpt>
      <trkpt lat="45.58234" lon="4.5804">
        <ele>656</ele>
        <time>2012-08-08T08:03:47Z</time>
      </trkpt>
      <trkpt lat="45.58234" lon="4.58047">
        <ele>655</ele>
        <time>2012-08-08T08:03:48Z</time>
      </trkpt>
      <trkpt lat="45.58234" lon="4.58055">
        <ele>655</ele>
        <time>2012-08-08T08:03:49Z</time>
      </trkpt>
      <trkpt lat="45.58234" lon="4.58079">
        <ele>652</ele>
        <time>2012-08-08T08:03:52Z</time>
      </trkpt>
      <trkpt lat="45.58232" lon="4.58098">
        <ele>650</ele>
        <time>2012-08-08T08:03:54Z</time>
      </trkpt>
      <trkpt lat="45.58225" lon="4.58131">
        <ele>648</ele>
        <time>2012-08-08T08:03:58Z</time>
      </trkpt>
      <trkpt lat="45.58223" lon="4.5816">
        <ele>645</ele>
        <time>2012-08-08T08:04:03Z</time>
      </trkpt>
      <trkpt lat="45.58222" lon="4.58168">
        <ele>643</ele>
        <time>2012-08-08T08:04:05Z</time>
      </trkpt>
      <trkpt lat="45.58221" lon="4.58174">
        <ele>641</ele>
        <time>2012-08-08T08:04:06Z</time>
      </trkpt>
      <trkpt lat="45.58211" lon="4.58211">
        <ele>638</ele>
        <time>2012-08-08T08:04:11Z</time>
      </trkpt>
      <trkpt lat="45.58207" lon="4.58238">
        <ele>635</ele>
        <time>2012-08-08T08:04:14Z</time>
      </trkpt>
      <trkpt lat="45.58204" lon="4.58245">
        <ele>634</ele>
        <time>2012-08-08T08:04:15Z</time>
      </trkpt>
      <trkpt lat="45.58201" lon="4.5825">
        <ele>634</ele>
        <time>2012-08-08T08:04:16Z</time>
      </trkpt>
      <trkpt lat="45.58197" lon="4.58254">
        <ele>633</ele>
        <time>2012-08-08T08:04:17Z</time>
      </trkpt>
      <trkpt lat="45.58193" lon="4.58255">
        <ele>632</ele>
        <time>2012-08-08T08:04:18Z</time>
      </trkpt>
      <trkpt lat="45.58191" lon="4.58256">
        <ele>631</ele>
        <time>2012-08-08T08:04:19Z</time>
      </trkpt>
      <trkpt lat="45.5819" lon="4.58258">
        <ele>630</ele>
        <time>2012-08-08T08:04:21Z</time>
      </trkpt>
      <trkpt lat="45.5819" lon="4.5826">
        <ele>631</ele>
        <time>2012-08-08T08:04:22Z</time>
      </trkpt>
      <trkpt lat="45.5819" lon="4.58262">
        <ele>631</ele>
        <time>2012-08-08T08:04:23Z</time>
      </trkpt>
      <trkpt lat="45.5819" lon="4.58265">
        <ele>629</ele>
        <time>2012-08-08T08:04:24Z</time>
      </trkpt>
      <trkpt lat="45.58189" lon="4.58272">
        <ele>628</ele>
        <time>2012-08-08T08:04:26Z</time>
      </trkpt>
      <trkpt lat="45.58187" lon="4.58279">
        <ele>626</ele>
        <time>2012-08-08T08:04:28Z</time>
      </trkpt>
      <trkpt lat="45.58187" lon="4.58284">
        <ele>625</ele>
        <time>2012-08-08T08:04:30Z</time>
      </trkpt>
      <trkpt lat="45.58182" lon="4.58291">
        <ele>624</ele>
        <time>2012-08-08T08:04:34Z</time>
      </trkpt>
      <trkpt lat="45.5818" lon="4.58293">
        <ele>624</ele>
        <time>2012-08-08T08:04:35Z</time>
      </trkpt>
      <trkpt lat="45.58178" lon="4.58295">
        <ele>624</ele>
        <time>2012-08-08T08:04:36Z</time>
      </trkpt>
      <trkpt lat="45.58177" lon="4.58298">
        <ele>624</ele>
        <time>2012-08-08T08:04:37Z</time>
      </trkpt>
      <trkpt lat="45.58175" lon="4.58301">
        <ele>624</ele>
        <time>2012-08-08T08:04:38Z</time>
      </trkpt>
      <trkpt lat="45.58173" lon="4.58303">
        <ele>624</ele>
        <time>2012-08-08T08:04:39Z</time>
      </trkpt>
      <trkpt lat="45.58172" lon="4.58305">
        <ele>624</ele>
        <time>2012-08-08T08:04:40Z</time>
      </trkpt>
      <trkpt lat="45.58171" lon="4.58307">
        <ele>624</ele>
        <time>2012-08-08T08:04:41Z</time>
      </trkpt>
      <trkpt lat="45.5817" lon="4.58308">
        <ele>623</ele>
        <time>2012-08-08T08:04:42Z</time>
      </trkpt>
      <trkpt lat="45.58168" lon="4.58309">
        <ele>623</ele>
        <time>2012-08-08T08:04:47Z</time>
      </trkpt>
      <trkpt lat="45.58169" lon="4.58309">
        <ele>623</ele>
        <time>2012-08-08T08:04:59Z</time>
      </trkpt>
      <trkpt lat="45.58169" lon="4.5831">
        <ele>623</ele>
        <time>2012-08-08T08:05:11Z</time>
      </trkpt>
      <trkpt lat="45.58169" lon="4.5831">
        <ele>623</ele>
        <time>2012-08-08T08:05:21Z</time>
      </trkpt>
      <trkpt lat="45.58169" lon="4.5831">
        <ele>623</ele>
        <time>2012-08-08T08:05:29Z</time>
      </trkpt>
      <trkpt lat="45.58169" lon="4.58311">
        <ele>624</ele>
        <time>2012-08-08T08:05:35Z</time>
      </trkpt>
      <trkpt lat="45.58169" lon="4.5831">
        <ele>624</ele>
        <time>2012-08-08T08:05:50Z</time>
      </trkpt>
      <trkpt lat="45.58168" lon="4.58309">
        <ele>623</ele>
        <time>2012-08-08T08:06:02Z</time>
      </trkpt>
      <trkpt lat="45.58167" lon="4.58311">
        <ele>623</ele>
        <time>2012-08-08T08:06:07Z</time>
      </trkpt>
      <trkpt lat="45.58156" lon="4.5833">
        <ele>623</ele>
        <time>2012-08-08T08:06:13Z</time>
      </trkpt>
      <trkpt lat="45.5815" lon="4.58338">
        <ele>622</ele>
        <time>2012-08-08T08:06:15Z</time>
      </trkpt>
      <trkpt lat="45.58148" lon="4.58343">
        <ele>622</ele>
        <time>2012-08-08T08:06:16Z</time>
      </trkpt>
      <trkpt lat="45.58145" lon="4.58348">
        <ele>622</ele>
        <time>2012-08-08T08:06:17Z</time>
      </trkpt>
      <trkpt lat="45.58119" lon="4.58379">
        <ele>622</ele>
        <time>2012-08-08T08:06:26Z</time>
      </trkpt>
      <trkpt lat="45.58102" lon="4.58398">
        <ele>621</ele>
        <time>2012-08-08T08:06:33Z</time>
      </trkpt>
      <trkpt lat="45.581" lon="4.58401">
        <ele>621</ele>
        <time>2012-08-08T08:06:34Z</time>
      </trkpt>
      <trkpt lat="45.58098" lon="4.58404">
        <ele>621</ele>
        <time>2012-08-08T08:06:35Z</time>
      </trkpt>
      <trkpt lat="45.58088" lon="4.58417">
        <ele>622</ele>
        <time>2012-08-08T08:06:42Z</time>
      </trkpt>
      <trkpt lat="45.58088" lon="4.58416">
        <ele>622</ele>
        <time>2012-08-08T08:06:55Z</time>
      </trkpt>
      <trkpt lat="45.58087" lon="4.58417">
        <ele>622</ele>
        <time>2012-08-08T08:07:08Z</time>
      </trkpt>
      <trkpt lat="45.58087" lon="4.58417">
        <ele>622</ele>
        <time>2012-08-08T08:07:18Z</time>
      </trkpt>
      <trkpt lat="45.58084" lon="4.58424">
        <ele>622</ele>
        <time>2012-08-08T08:07:24Z</time>
      </trkpt>
      <trkpt lat="45.58079" lon="4.58442">
        <ele>622</ele>
        <time>2012-08-08T08:07:30Z</time>
      </trkpt>
      <trkpt lat="45.58075" lon="4.58469">
        <ele>624</ele>
        <time>2012-08-08T08:07:38Z</time>
      </trkpt>
      <trkpt lat="45.58068" lon="4.58492">
        <ele>624</ele>
        <time>2012-08-08T08:07:44Z</time>
      </trkpt>
      <trkpt lat="45.58057" lon="4.58525">
        <ele>623</ele>
        <time>2012-08-08T08:07:53Z</time>
      </trkpt>
      <trkpt lat="45.58046" lon="4.58556">
        <ele>624</ele>
        <time>2012-08-08T08:08:02Z</time>
      </trkpt>
      <trkpt lat="45.58033" lon="4.58588">
        <ele>623</ele>
        <time>2012-08-08T08:08:11Z</time>
      </trkpt>
      <trkpt lat="45.58023" lon="4.58612">
        <ele>621</ele>
        <time>2012-08-08T08:08:18Z</time>
      </trkpt>
      <trkpt lat="45.5802" lon="4.58638">
        <ele>618</ele>
        <time>2012-08-08T08:08:25Z</time>
      </trkpt>
      <trkpt lat="45.5802" lon="4.58656">
        <ele>615</ele>
        <time>2012-08-08T08:08:32Z</time>
      </trkpt>
      <trkpt lat="45.58019" lon="4.58681">
        <ele>612</ele>
        <time>2012-08-08T08:08:38Z</time>
      </trkpt>
      <trkpt lat="45.58009" lon="4.58694">
        <ele>610</ele>
        <time>2012-08-08T08:08:43Z</time>
      </trkpt>
      <trkpt lat="45.58006" lon="4.58694">
        <ele>610</ele>
        <time>2012-08-08T08:08:44Z</time>
      </trkpt>
      <trkpt lat="45.58003" lon="4.58694">
        <ele>609</ele>
        <time>2012-08-08T08:08:45Z</time>
      </trkpt>
      <trkpt lat="45.57998" lon="4.58693">
        <ele>608</ele>
        <time>2012-08-08T08:08:47Z</time>
      </trkpt>
      <trkpt lat="45.57988" lon="4.58692">
        <ele>606</ele>
        <time>2012-08-08T08:08:51Z</time>
      </trkpt>
      <trkpt lat="45.57975" lon="4.58691">
        <ele>603</ele>
        <time>2012-08-08T08:08:56Z</time>
      </trkpt>
      <trkpt lat="45.57972" lon="4.5869">
        <ele>603</ele>
        <time>2012-08-08T08:08:57Z</time>
      </trkpt>
      <trkpt lat="45.57953" lon="4.58691">
        <ele>599</ele>
        <time>2012-08-08T08:09:04Z</time>
      </trkpt>
      <trkpt lat="45.57947" lon="4.5869">
        <ele>597</ele>
        <time>2012-08-08T08:09:07Z</time>
      </trkpt>
      <trkpt lat="45.57946" lon="4.58688">
        <ele>597</ele>
        <time>2012-08-08T08:09:08Z</time>
      </trkpt>
      <trkpt lat="45.57945" lon="4.58685">
        <ele>597</ele>
        <time>2012-08-08T08:09:09Z</time>
      </trkpt>
      <trkpt lat="45.57945" lon="4.5866">
        <ele>598</ele>
        <time>2012-08-08T08:09:16Z</time>
      </trkpt>
      <trkpt lat="45.57942" lon="4.58617">
        <ele>600</ele>
        <time>2012-08-08T08:09:27Z</time>
      </trkpt>
      <trkpt lat="45.5794" lon="4.58575">
        <ele>602</ele>
        <time>2012-08-08T08:09:37Z</time>
      </trkpt>
      <trkpt lat="45.57938" lon="4.58536">
        <ele>604</ele>
        <time>2012-08-08T08:09:47Z</time>
      </trkpt>
      <trkpt lat="45.57937" lon="4.58511">
        <ele>605</ele>
        <time>2012-08-08T08:09:55Z</time>
      </trkpt>
      <trkpt lat="45.57937" lon="4.58508">
        <ele>605</ele>
        <time>2012-08-08T08:09:57Z</time>
      </trkpt>
      <trkpt lat="45.57937" lon="4.58506">
        <ele>606</ele>
        <time>2012-08-08T08:09:58Z</time>
      </trkpt>
      <trkpt lat="45.57936" lon="4.58505">
        <ele>606</ele>
        <time>2012-08-08T08:09:59Z</time>
      </trkpt>
      <trkpt lat="45.57935" lon="4.58506">
        <ele>606</ele>
        <time>2012-08-08T08:10:00Z</time>
      </trkpt>
      <trkpt lat="45.57934" lon="4.58507">
        <ele>606</ele>
        <time>2012-08-08T08:10:01Z</time>
      </trkpt>
      <trkpt lat="45.57933" lon="4.58508">
        <ele>606</ele>
        <time>2012-08-08T08:10:02Z</time>
      </trkpt>
      <trkpt lat="45.57932" lon="4.58508">
        <ele>606</ele>
        <time>2012-08-08T08:10:03Z</time>
      </trkpt>
      <trkpt lat="45.57931" lon="4.58508">
        <ele>605</ele>
        <time>2012-08-08T08:10:04Z</time>
      </trkpt>
      <trkpt lat="45.5793" lon="4.58506">
        <ele>605</ele>
        <time>2012-08-08T08:10:05Z</time>
      </trkpt>
      <trkpt lat="45.57929" lon="4.58504">
        <ele>605</ele>
        <time>2012-08-08T08:10:06Z</time>
      </trkpt>
      <trkpt lat="45.57929" lon="4.58502">
        <ele>604</ele>
        <time>2012-08-08T08:10:07Z</time>
      </trkpt>
      <trkpt lat="45.57928" lon="4.585">
        <ele>604</ele>
        <time>2012-08-08T08:10:08Z</time>
      </trkpt>
      <trkpt lat="45.57928" lon="4.58497">
        <ele>604</ele>
        <time>2012-08-08T08:10:09Z</time>
      </trkpt>
      <trkpt lat="45.57927" lon="4.58493">
        <ele>603</ele>
        <time>2012-08-08T08:10:10Z</time>
      </trkpt>
      <trkpt lat="45.57926" lon="4.58489">
        <ele>603</ele>
        <time>2012-08-08T08:10:11Z</time>
      </trkpt>
      <trkpt lat="45.57925" lon="4.58485">
        <ele>602</ele>
        <time>2012-08-08T08:10:12Z</time>
      </trkpt>
      <trkpt lat="45.57924" lon="4.58481">
        <ele>602</ele>
        <time>2012-08-08T08:10:13Z</time>
      </trkpt>
      <trkpt lat="45.57921" lon="4.58468">
        <ele>599</ele>
        <time>2012-08-08T08:10:17Z</time>
      </trkpt>
      <trkpt lat="45.57919" lon="4.58468">
        <ele>599</ele>
        <time>2012-08-08T08:10:18Z</time>
      </trkpt>
      <trkpt lat="45.57918" lon="4.5847">
        <ele>599</ele>
        <time>2012-08-08T08:10:19Z</time>
      </trkpt>
      <trkpt lat="45.5791" lon="4.58489">
        <ele>596</ele>
        <time>2012-08-08T08:10:25Z</time>
      </trkpt>
      <trkpt lat="45.57907" lon="4.58501">
        <ele>594</ele>
        <time>2012-08-08T08:10:28Z</time>
      </trkpt>
      <trkpt lat="45.57905" lon="4.5851">
        <ele>593</ele>
        <time>2012-08-08T08:10:30Z</time>
      </trkpt>
      <trkpt lat="45.57901" lon="4.58524">
        <ele>591</ele>
        <time>2012-08-08T08:10:33Z</time>
      </trkpt>
      <trkpt lat="45.579" lon="4.58529">
        <ele>591</ele>
        <time>2012-08-08T08:10:34Z</time>
      </trkpt>
      <trkpt lat="45.57898" lon="4.58534">
        <ele>590</ele>
        <time>2012-08-08T08:10:35Z</time>
      </trkpt>
      <trkpt lat="45.57897" lon="4.58538">
        <ele>589</ele>
        <time>2012-08-08T08:10:36Z</time>
      </trkpt>
      <trkpt lat="45.57896" lon="4.58543">
        <ele>588</ele>
        <time>2012-08-08T08:10:37Z</time>
      </trkpt>
      <trkpt lat="45.57895" lon="4.58547">
        <ele>587</ele>
        <time>2012-08-08T08:10:38Z</time>
      </trkpt>
      <trkpt lat="45.57886" lon="4.58574">
        <ele>585</ele>
        <time>2012-08-08T08:10:44Z</time>
      </trkpt>
      <trkpt lat="45.57883" lon="4.58584">
        <ele>584</ele>
        <time>2012-08-08T08:10:46Z</time>
      </trkpt>
      <trkpt lat="45.57877" lon="4.58608">
        <ele>581</ele>
        <time>2012-08-08T08:10:51Z</time>
      </trkpt>
      <trkpt lat="45.57873" lon="4.58621">
        <ele>580</ele>
        <time>2012-08-08T08:10:53Z</time>
      </trkpt>
      <trkpt lat="45.5787" lon="4.58632">
        <ele>579</ele>
        <time>2012-08-08T08:10:55Z</time>
      </trkpt>
      <trkpt lat="45.57868" lon="4.58638">
        <ele>579</ele>
        <time>2012-08-08T08:10:56Z</time>
      </trkpt>
      <trkpt lat="45.57866" lon="4.58643">
        <ele>578</ele>
        <time>2012-08-08T08:10:57Z</time>
      </trkpt>
      <trkpt lat="45.57864" lon="4.58646">
        <ele>578</ele>
        <time>2012-08-08T08:10:58Z</time>
      </trkpt>
      <trkpt lat="45.57857" lon="4.58645">
        <ele>576</ele>
        <time>2012-08-08T08:11:02Z</time>
      </trkpt>
      <trkpt lat="45.5784" lon="4.58631">
        <ele>572</ele>
        <time>2012-08-08T08:11:07Z</time>
      </trkpt>
      <trkpt lat="45.57826" lon="4.5862">
        <ele>568</ele>
        <time>2012-08-08T08:11:11Z</time>
      </trkpt>
      <trkpt lat="45.57815" lon="4.58611">
        <ele>565</ele>
        <time>2012-08-08T08:11:14Z</time>
      </trkpt>
      <trkpt lat="45.57805" lon="4.58601">
        <ele>561</ele>
        <time>2012-08-08T08:11:17Z</time>
      </trkpt>
      <trkpt lat="45.57795" lon="4.5859">
        <ele>557</ele>
        <time>2012-08-08T08:11:20Z</time>
      </trkpt>
      <trkpt lat="45.57783" lon="4.58587">
        <ele>554</ele>
        <time>2012-08-08T08:11:24Z</time>
      </trkpt>
      <trkpt lat="45.57775" lon="4.58592">
        <ele>553</ele>
        <time>2012-08-08T08:11:28Z</time>
      </trkpt>
      <trkpt lat="45.57775" lon="4.58584">
        <ele>552</ele>
        <time>2012-08-08T08:11:32Z</time>
      </trkpt>
      <trkpt lat="45.57777" lon="4.58582">
        <ele>551</ele>
        <time>2012-08-08T08:11:33Z</time>
      </trkpt>
      <trkpt lat="45.57789" lon="4.58566">
        <ele>550</ele>
        <time>2012-08-08T08:11:38Z</time>
      </trkpt>
      <trkpt lat="45.57798" lon="4.58542">
        <ele>550</ele>
        <time>2012-08-08T08:11:43Z</time>
      </trkpt>
      <trkpt lat="45.57801" lon="4.58511">
        <ele>550</ele>
        <time>2012-08-08T08:11:49Z</time>
      </trkpt>
      <trkpt lat="45.57798" lon="4.58487">
        <ele>550</ele>
        <time>2012-08-08T08:11:55Z</time>
      </trkpt>
      <trkpt lat="45.57783" lon="4.58458">
        <ele>551</ele>
        <time>2012-08-08T08:12:03Z</time>
      </trkpt>
      <trkpt lat="45.57769" lon="4.58435">
        <ele>550</ele>
        <time>2012-08-08T08:12:09Z</time>
      </trkpt>
      <trkpt lat="45.5775" lon="4.58405">
        <ele>548</ele>
        <time>2012-08-08T08:12:16Z</time>
      </trkpt>
      <trkpt lat="45.57734" lon="4.58382">
        <ele>546</ele>
        <time>2012-08-08T08:12:22Z</time>
      </trkpt>
      <trkpt lat="45.5772" lon="4.58369">
        <ele>543</ele>
        <time>2012-08-08T08:12:26Z</time>
      </trkpt>
      <trkpt lat="45.57717" lon="4.58365">
        <ele>543</ele>
        <time>2012-08-08T08:12:27Z</time>
      </trkpt>
      <trkpt lat="45.57715" lon="4.58361">
        <ele>543</ele>
        <time>2012-08-08T08:12:28Z</time>
      </trkpt>
      <trkpt lat="45.57713" lon="4.58358">
        <ele>542</ele>
        <time>2012-08-08T08:12:29Z</time>
      </trkpt>
      <trkpt lat="45.57712" lon="4.58355">
        <ele>541</ele>
        <time>2012-08-08T08:12:30Z</time>
      </trkpt>
      <trkpt lat="45.5771" lon="4.58353">
        <ele>541</ele>
        <time>2012-08-08T08:12:31Z</time>
      </trkpt>
      <trkpt lat="45.57708" lon="4.5835">
        <ele>541</ele>
        <time>2012-08-08T08:12:32Z</time>
      </trkpt>
      <trkpt lat="45.57704" lon="4.58344">
        <ele>540</ele>
        <time>2012-08-08T08:12:34Z</time>
      </trkpt>
      <trkpt lat="45.57704" lon="4.58339">
        <ele>540</ele>
        <time>2012-08-08T08:12:35Z</time>
      </trkpt>
      <trkpt lat="45.57705" lon="4.58335">
        <ele>538</ele>
        <time>2012-08-08T08:12:36Z</time>
      </trkpt>
      <trkpt lat="45.57708" lon="4.58331">
        <ele>539</ele>
        <time>2012-08-08T08:12:37Z</time>
      </trkpt>
      <trkpt lat="45.57711" lon="4.58327">
        <ele>538</ele>
        <time>2012-08-08T08:12:38Z</time>
      </trkpt>
      <trkpt lat="45.57714" lon="4.58323">
        <ele>537</ele>
        <time>2012-08-08T08:12:39Z</time>
      </trkpt>
      <trkpt lat="45.57718" lon="4.5832">
        <ele>537</ele>
        <time>2012-08-08T08:12:40Z</time>
      </trkpt>
      <trkpt lat="45.57722" lon="4.58318">
        <ele>537</ele>
        <time>2012-08-08T08:12:41Z</time>
      </trkpt>
      <trkpt lat="45.57725" lon="4.58315">
        <ele>537</ele>
        <time>2012-08-08T08:12:42Z</time>
      </trkpt>
      <trkpt lat="45.57728" lon="4.58312">
        <ele>536</ele>
        <time>2012-08-08T08:12:43Z</time>
      </trkpt>
      <trkpt lat="45.57733" lon="4.58308">
        <ele>536</ele>
        <time>2012-08-08T08:12:44Z</time>
      </trkpt>
      <trkpt lat="45.57743" lon="4.583">
        <ele>535</ele>
        <time>2012-08-08T08:12:46Z</time>
      </trkpt>
      <trkpt lat="45.57765" lon="4.58279">
        <ele>531</ele>
        <time>2012-08-08T08:12:50Z</time>
      </trkpt>
      <trkpt lat="45.57794" lon="4.58251">
        <ele>527</ele>
        <time>2012-08-08T08:12:55Z</time>
      </trkpt>
      <trkpt lat="45.57802" lon="4.58242">
        <ele>526</ele>
        <time>2012-08-08T08:12:57Z</time>
      </trkpt>
      <trkpt lat="45.57803" lon="4.58237">
        <ele>526</ele>
        <time>2012-08-08T08:12:58Z</time>
      </trkpt>
      <trkpt lat="45.57803" lon="4.58232">
        <ele>525</ele>
        <time>2012-08-08T08:12:59Z</time>
      </trkpt>
      <trkpt lat="45.57802" lon="4.58227">
        <ele>525</ele>
        <time>2012-08-08T08:13:00Z</time>
      </trkpt>
      <trkpt lat="45.578" lon="4.58223">
        <ele>525</ele>
        <time>2012-08-08T08:13:01Z</time>
      </trkpt>
      <trkpt lat="45.57797" lon="4.58219">
        <ele>525</ele>
        <time>2012-08-08T08:13:02Z</time>
      </trkpt>
      <trkpt lat="45.57796" lon="4.58216">
        <ele>525</ele>
        <time>2012-08-08T08:13:03Z</time>
      </trkpt>
      <trkpt lat="45.57787" lon="4.58192">
        <ele>525</ele>
        <time>2012-08-08T08:13:10Z</time>
      </trkpt>
      <trkpt lat="45.57776" lon="4.58158">
        <ele>525</ele>
        <time>2012-08-08T08:13:17Z</time>
      </trkpt>
      <trkpt lat="45.5777" lon="4.5812">
        <ele>525</ele>
        <time>2012-08-08T08:13:24Z</time>
      </trkpt>
      <trkpt lat="45.57774" lon="4.58084">
        <ele>525</ele>
        <time>2012-08-08T08:13:31Z</time>
      </trkpt>
      <trkpt lat="45.57779" lon="4.58054">
        <ele>524</ele>
        <time>2012-08-08T08:13:37Z</time>
      </trkpt>
      <trkpt lat="45.57782" lon="4.58026">
        <ele>524</ele>
        <time>2012-08-08T08:13:43Z</time>
      </trkpt>
      <trkpt lat="45.57782" lon="4.58019">
        <ele>524</ele>
        <time>2012-08-08T08:13:44Z</time>
      </trkpt>
      <trkpt lat="45.57781" lon="4.57989">
        <ele>522</ele>
        <time>2012-08-08T08:13:48Z</time>
      </trkpt>
      <trkpt lat="45.5778" lon="4.57972">
        <ele>520</ele>
        <time>2012-08-08T08:13:50Z</time>
      </trkpt>
      <trkpt lat="45.57781" lon="4.57963">
        <ele>520</ele>
        <time>2012-08-08T08:13:51Z</time>
      </trkpt>
      <trkpt lat="45.57783" lon="4.57955">
        <ele>520</ele>
        <time>2012-08-08T08:13:52Z</time>
      </trkpt>
      <trkpt lat="45.57793" lon="4.57923">
        <ele>517</ele>
        <time>2012-08-08T08:13:56Z</time>
      </trkpt>
      <trkpt lat="45.57796" lon="4.57916">
        <ele>516</ele>
        <time>2012-08-08T08:13:57Z</time>
      </trkpt>
      <trkpt lat="45.57798" lon="4.5791">
        <ele>516</ele>
        <time>2012-08-08T08:13:58Z</time>
      </trkpt>
      <trkpt lat="45.57797" lon="4.57906">
        <ele>515</ele>
        <time>2012-08-08T08:13:59Z</time>
      </trkpt>
      <trkpt lat="45.57794" lon="4.57903">
        <ele>516</ele>
        <time>2012-08-08T08:14:00Z</time>
      </trkpt>
      <trkpt lat="45.57792" lon="4.579">
        <ele>516</ele>
        <time>2012-08-08T08:14:01Z</time>
      </trkpt>
      <trkpt lat="45.5779" lon="4.57899">
        <ele>516</ele>
        <time>2012-08-08T08:14:02Z</time>
      </trkpt>
      <trkpt lat="45.57787" lon="4.57897">
        <ele>516</ele>
        <time>2012-08-08T08:14:03Z</time>
      </trkpt>
      <trkpt lat="45.57785" lon="4.57895">
        <ele>516</ele>
        <time>2012-08-08T08:14:04Z</time>
      </trkpt>
      <trkpt lat="45.57783" lon="4.57892">
        <ele>516</ele>
        <time>2012-08-08T08:14:05Z</time>
      </trkpt>
      <trkpt lat="45.57772" lon="4.5788">
        <ele>515</ele>
        <time>2012-08-08T08:14:12Z</time>
      </trkpt>
      <trkpt lat="45.5777" lon="4.57877">
        <ele>516</ele>
        <time>2012-08-08T08:14:20Z</time>
      </trkpt>
      <trkpt lat="45.57771" lon="4.5788">
        <ele>516</ele>
        <time>2012-08-08T08:14:26Z</time>
      </trkpt>
      <trkpt lat="45.57772" lon="4.57881">
        <ele>516</ele>
        <time>2012-08-08T08:14:27Z</time>
      </trkpt>
      <trkpt lat="45.57774" lon="4.57882">
        <ele>516</ele>
        <time>2012-08-08T08:14:28Z</time>
      </trkpt>
      <trkpt lat="45.57775" lon="4.57882">
        <ele>516</ele>
        <time>2012-08-08T08:14:29Z</time>
      </trkpt>
      <trkpt lat="45.57779" lon="4.57885">
        <ele>516</ele>
        <time>2012-08-08T08:14:33Z</time>
      </trkpt>
      <trkpt lat="45.5778" lon="4.57886">
        <ele>516</ele>
        <time>2012-08-08T08:14:34Z</time>
      </trkpt>
      <trkpt lat="45.5778" lon="4.57888">
        <ele>516</ele>
        <time>2012-08-08T08:14:40Z</time>
      </trkpt>
      <trkpt lat="45.57776" lon="4.57888">
        <ele>516</ele>
        <time>2012-08-08T08:14:47Z</time>
      </trkpt>
      <trkpt lat="45.57775" lon="4.57889">
        <ele>515</ele>
        <time>2012-08-08T08:14:54Z</time>
      </trkpt>
      <trkpt lat="45.57772" lon="4.57889">
        <ele>514</ele>
        <time>2012-08-08T08:14:58Z</time>
      </trkpt>
      <trkpt lat="45.57771" lon="4.57889">
        <ele>514</ele>
        <time>2012-08-08T08:14:59Z</time>
      </trkpt>
      <trkpt lat="45.57762" lon="4.57891">
        <ele>511</ele>
        <time>2012-08-08T08:15:05Z</time>
      </trkpt>
      <trkpt lat="45.57761" lon="4.57892">
        <ele>511</ele>
        <time>2012-08-08T08:15:06Z</time>
      </trkpt>
      <trkpt lat="45.57758" lon="4.57899">
        <ele>509</ele>
        <time>2012-08-08T08:15:12Z</time>
      </trkpt>
      <trkpt lat="45.57758" lon="4.57902">
        <ele>508</ele>
        <time>2012-08-08T08:15:13Z</time>
      </trkpt>
      <trkpt lat="45.57757" lon="4.57905">
        <ele>508</ele>
        <time>2012-08-08T08:15:14Z</time>
      </trkpt>
      <trkpt lat="45.57756" lon="4.57908">
        <ele>508</ele>
        <time>2012-08-08T08:15:15Z</time>
      </trkpt>
      <trkpt lat="45.57754" lon="4.57911">
        <ele>508</ele>
        <time>2012-08-08T08:15:16Z</time>
      </trkpt>
      <trkpt lat="45.57752" lon="4.57912">
        <ele>508</ele>
        <time>2012-08-08T08:15:17Z</time>
      </trkpt>
      <trkpt lat="45.57751" lon="4.57914">
        <ele>507</ele>
        <time>2012-08-08T08:15:18Z</time>
      </trkpt>
      <trkpt lat="45.5774" lon="4.57924">
        <ele>504</ele>
        <time>2012-08-08T08:15:23Z</time>
      </trkpt>
      <trkpt lat="45.57739" lon="4.5793">
        <ele>503</ele>
        <time>2012-08-08T08:15:26Z</time>
      </trkpt>
      <trkpt lat="45.57741" lon="4.5793">
        <ele>503</ele>
        <time>2012-08-08T08:15:39Z</time>
      </trkpt>
      <trkpt lat="45.57741" lon="4.57934">
        <ele>503</ele>
        <time>2012-08-08T08:15:55Z</time>
      </trkpt>
      <trkpt lat="45.57741" lon="4.57936">
        <ele>503</ele>
        <time>2012-08-08T08:16:07Z</time>
      </trkpt>
      <trkpt lat="45.57742" lon="4.57938">
        <ele>503</ele>
        <time>2012-08-08T08:16:25Z</time>
      </trkpt>
      <trkpt lat="45.57741" lon="4.57944">
        <ele>502</ele>
        <time>2012-08-08T08:16:29Z</time>
      </trkpt>
      <trkpt lat="45.57734" lon="4.57964">
        <ele>500</ele>
        <time>2012-08-08T08:16:36Z</time>
      </trkpt>
      <trkpt lat="45.57733" lon="4.57967">
        <ele>500</ele>
        <time>2012-08-08T08:16:37Z</time>
      </trkpt>
      <trkpt lat="45.57727" lon="4.57984">
        <ele>499</ele>
        <time>2012-08-08T08:16:43Z</time>
      </trkpt>
      <trkpt lat="45.57725" lon="4.5799">
        <ele>500</ele>
        <time>2012-08-08T08:16:45Z</time>
      </trkpt>
      <trkpt lat="45.57724" lon="4.57995">
        <ele>500</ele>
        <time>2012-08-08T08:16:46Z</time>
      </trkpt>
      <trkpt lat="45.57723" lon="4.58">
        <ele>499</ele>
        <time>2012-08-08T08:16:47Z</time>
      </trkpt>
      <trkpt lat="45.57721" lon="4.58002">
        <ele>498</ele>
        <time>2012-08-08T08:16:48Z</time>
      </trkpt>
      <trkpt lat="45.57717" lon="4.58008">
        <ele>497</ele>
        <time>2012-08-08T08:16:50Z</time>
      </trkpt>
      <trkpt lat="45.57715" lon="4.58014">
        <ele>497</ele>
        <time>2012-08-08T08:16:52Z</time>
      </trkpt>
      <trkpt lat="45.57711" lon="4.58036">
        <ele>494</ele>
        <time>2012-08-08T08:16:58Z</time>
      </trkpt>
      <trkpt lat="45.57711" lon="4.58042">
        <ele>495</ele>
        <time>2012-08-08T08:17:00Z</time>
      </trkpt>
      <trkpt lat="45.5771" lon="4.58052">
        <ele>495</ele>
        <time>2012-08-08T08:17:03Z</time>
      </trkpt>
      <trkpt lat="45.57707" lon="4.5806">
        <ele>495</ele>
        <time>2012-08-08T08:17:06Z</time>
      </trkpt>
      <trkpt lat="45.57707" lon="4.58062">
        <ele>495</ele>
        <time>2012-08-08T08:17:07Z</time>
      </trkpt>
      <trkpt lat="45.57707" lon="4.58074">
        <ele>496</ele>
        <time>2012-08-08T08:17:12Z</time>
      </trkpt>
      <trkpt lat="45.57707" lon="4.58078">
        <ele>496</ele>
        <time>2012-08-08T08:17:14Z</time>
      </trkpt>
      <trkpt lat="45.57704" lon="4.58093">
        <ele>494</ele>
        <time>2012-08-08T08:17:21Z</time>
      </trkpt>
      <trkpt lat="45.57697" lon="4.58114">
        <ele>490</ele>
        <time>2012-08-08T08:17:27Z</time>
      </trkpt>
      <trkpt lat="45.57695" lon="4.58118">
        <ele>490</ele>
        <time>2012-08-08T08:17:28Z</time>
      </trkpt>
      <trkpt lat="45.57689" lon="4.58131">
        <ele>489</ele>
        <time>2012-08-08T08:17:33Z</time>
      </trkpt>
      <trkpt lat="45.57686" lon="4.58142">
        <ele>488</ele>
        <time>2012-08-08T08:17:39Z</time>
      </trkpt>
      <trkpt lat="45.57684" lon="4.58158">
        <ele>488</ele>
        <time>2012-08-08T08:17:47Z</time>
      </trkpt>
      <trkpt lat="45.57683" lon="4.5816">
        <ele>488</ele>
        <time>2012-08-08T08:17:48Z</time>
      </trkpt>
      <trkpt lat="45.57682" lon="4.58162">
        <ele>487</ele>
        <time>2012-08-08T08:17:49Z</time>
      </trkpt>
      <trkpt lat="45.57678" lon="4.58169">
        <ele>487</ele>
        <time>2012-08-08T08:17:55Z</time>
      </trkpt>
      <trkpt lat="45.57678" lon="4.58176">
        <ele>487</ele>
        <time>2012-08-08T08:18:03Z</time>
      </trkpt>
      <trkpt lat="45.57676" lon="4.58179">
        <ele>487</ele>
        <time>2012-08-08T08:18:12Z</time>
      </trkpt>
      <trkpt lat="45.57672" lon="4.58182">
        <ele>486</ele>
        <time>2012-08-08T08:18:18Z</time>
      </trkpt>
      <trkpt lat="45.57666" lon="4.58186">
        <ele>485</ele>
        <time>2012-08-08T08:18:22Z</time>
      </trkpt>
      <trkpt lat="45.57664" lon="4.58186">
        <ele>485</ele>
        <time>2012-08-08T08:18:23Z</time>
      </trkpt>
      <trkpt lat="45.57662" lon="4.58186">
        <ele>485</ele>
        <time>2012-08-08T08:18:24Z</time>
      </trkpt>
      <trkpt lat="45.57657" lon="4.58191">
        <ele>485</ele>
        <time>2012-08-08T08:18:28Z</time>
      </trkpt>
      <trkpt lat="45.5765" lon="4.58198">
        <ele>484</ele>
        <time>2012-08-08T08:18:38Z</time>
      </trkpt>
      <trkpt lat="45.57648" lon="4.58207">
        <ele>486</ele>
        <time>2012-08-08T08:18:44Z</time>
      </trkpt>
      <trkpt lat="45.57647" lon="4.58208">
        <ele>486</ele>
        <time>2012-08-08T08:18:45Z</time>
      </trkpt>
      <trkpt lat="45.57646" lon="4.5821">
        <ele>487</ele>
        <time>2012-08-08T08:18:46Z</time>
      </trkpt>
      <trkpt lat="45.57642" lon="4.58217">
        <ele>488</ele>
        <time>2012-08-08T08:18:52Z</time>
      </trkpt>
      <trkpt lat="45.57634" lon="4.58223">
        <ele>488</ele>
        <time>2012-08-08T08:18:59Z</time>
      </trkpt>
      <trkpt lat="45.57632" lon="4.58224">
        <ele>488</ele>
        <time>2012-08-08T08:19:00Z</time>
      </trkpt>
      <trkpt lat="45.5763" lon="4.58225">
        <ele>488</ele>
        <time>2012-08-08T08:19:01Z</time>
      </trkpt>
      <trkpt lat="45.57629" lon="4.58225">
        <ele>487</ele>
        <time>2012-08-08T08:19:02Z</time>
      </trkpt>
      <trkpt lat="45.57627" lon="4.58224">
        <ele>487</ele>
        <time>2012-08-08T08:19:03Z</time>
      </trkpt>
      <trkpt lat="45.57625" lon="4.58223">
        <ele>485</ele>
        <time>2012-08-08T08:19:05Z</time>
      </trkpt>
      <trkpt lat="45.57624" lon="4.58224">
        <ele>485</ele>
        <time>2012-08-08T08:19:06Z</time>
      </trkpt>
      <trkpt lat="45.57609" lon="4.58236">
        <ele>484</ele>
        <time>2012-08-08T08:19:12Z</time>
      </trkpt>
      <trkpt lat="45.57595" lon="4.58246">
        <ele>482</ele>
        <time>2012-08-08T08:19:18Z</time>
      </trkpt>
      <trkpt lat="45.57582" lon="4.58253">
        <ele>480</ele>
        <time>2012-08-08T08:19:24Z</time>
      </trkpt>
      <trkpt lat="45.57572" lon="4.58263">
        <ele>477</ele>
        <time>2012-08-08T08:19:29Z</time>
      </trkpt>
      <trkpt lat="45.57564" lon="4.58273">
        <ele>476</ele>
        <time>2012-08-08T08:19:34Z</time>
      </trkpt>
      <trkpt lat="45.57561" lon="4.58274">
        <ele>475</ele>
        <time>2012-08-08T08:19:35Z</time>
      </trkpt>
      <trkpt lat="45.57558" lon="4.58276">
        <ele>474</ele>
        <time>2012-08-08T08:19:36Z</time>
      </trkpt>
      <trkpt lat="45.57546" lon="4.58282">
        <ele>473</ele>
        <time>2012-08-08T08:19:40Z</time>
      </trkpt>
      <trkpt lat="45.57536" lon="4.58282">
        <ele>470</ele>
        <time>2012-08-08T08:19:46Z</time>
      </trkpt>
      <trkpt lat="45.5753" lon="4.58283">
        <ele>470</ele>
        <time>2012-08-08T08:19:49Z</time>
      </trkpt>
      <trkpt lat="45.57527" lon="4.58281">
        <ele>471</ele>
        <time>2012-08-08T08:19:53Z</time>
      </trkpt>
      <trkpt lat="45.57524" lon="4.5828">
        <ele>471</ele>
        <time>2012-08-08T08:19:55Z</time>
      </trkpt>
      <trkpt lat="45.57519" lon="4.58278">
        <ele>471</ele>
        <time>2012-08-08T08:20:02Z</time>
      </trkpt>
      <trkpt lat="45.57515" lon="4.58279">
        <ele>473</ele>
        <time>2012-08-08T08:20:12Z</time>
      </trkpt>
      <trkpt lat="45.57516" lon="4.58281">
        <ele>471</ele>
        <time>2012-08-08T08:20:23Z</time>
      </trkpt>
      <trkpt lat="45.57517" lon="4.58282">
        <ele>471</ele>
        <time>2012-08-08T08:20:24Z</time>
      </trkpt>
      <trkpt lat="45.57519" lon="4.58283">
        <ele>471</ele>
        <time>2012-08-08T08:20:31Z</time>
      </trkpt>
      <trkpt lat="45.57518" lon="4.58284">
        <ele>471</ele>
        <time>2012-08-08T08:20:44Z</time>
      </trkpt>
      <trkpt lat="45.57517" lon="4.58286">
        <ele>471</ele>
        <time>2012-08-08T08:20:54Z</time>
      </trkpt>
      <trkpt lat="45.57515" lon="4.58287">
        <ele>470</ele>
        <time>2012-08-08T08:21:01Z</time>
      </trkpt>
      <trkpt lat="45.57517" lon="4.58287">
        <ele>470</ele>
        <time>2012-08-08T08:21:16Z</time>
      </trkpt>
      <trkpt lat="45.57519" lon="4.58293">
        <ele>471</ele>
        <time>2012-08-08T08:21:26Z</time>
      </trkpt>
      <trkpt lat="45.57518" lon="4.58291">
        <ele>471</ele>
        <time>2012-08-08T08:21:33Z</time>
      </trkpt>
      <trkpt lat="45.57518" lon="4.5829">
        <ele>472</ele>
        <time>2012-08-08T08:21:42Z</time>
      </trkpt>
      <trkpt lat="45.57518" lon="4.58289">
        <ele>472</ele>
        <time>2012-08-08T08:21:52Z</time>
      </trkpt>
      <trkpt lat="45.5752" lon="4.58291">
        <ele>474</ele>
        <time>2012-08-08T08:21:59Z</time>
      </trkpt>
      <trkpt lat="45.57521" lon="4.58285">
        <ele>473</ele>
        <time>2012-08-08T08:22:06Z</time>
      </trkpt>
      <trkpt lat="45.57525" lon="4.58283">
        <ele>473</ele>
        <time>2012-08-08T08:22:13Z</time>
      </trkpt>
      <trkpt lat="45.57526" lon="4.58287">
        <ele>475</ele>
        <time>2012-08-08T08:22:21Z</time>
      </trkpt>
      <trkpt lat="45.57527" lon="4.58289">
        <ele>474</ele>
        <time>2012-08-08T08:22:35Z</time>
      </trkpt>
      <trkpt lat="45.57529" lon="4.58287">
        <ele>475</ele>
        <time>2012-08-08T08:22:42Z</time>
      </trkpt>
      <trkpt lat="45.5753" lon="4.58292">
        <ele>475</ele>
        <time>2012-08-08T08:22:48Z</time>
      </trkpt>
      <trkpt lat="45.5753" lon="4.58294">
        <ele>476</ele>
        <time>2012-08-08T08:22:52Z</time>
      </trkpt>
      <trkpt lat="45.57527" lon="4.58299">
        <ele>478</ele>
        <time>2012-08-08T08:23:00Z</time>
      </trkpt>
      <trkpt lat="45.57524" lon="4.58305">
        <ele>479</ele>
        <time>2012-08-08T08:23:10Z</time>
      </trkpt>
      <trkpt lat="45.57522" lon="4.58313">
        <ele>479</ele>
        <time>2012-08-08T08:23:25Z</time>
      </trkpt>
      <trkpt lat="45.5752" lon="4.58312">
        <ele>477</ele>
        <time>2012-08-08T08:23:28Z</time>
      </trkpt>
      <trkpt lat="45.57519" lon="4.58312">
        <ele>478</ele>
        <time>2012-08-08T08:23:29Z</time>
      </trkpt>
      <trkpt lat="45.57518" lon="4.5831">
        <ele>477</ele>
        <time>2012-08-08T08:23:30Z</time>
      </trkpt>
      <trkpt lat="45.57518" lon="4.58305">
        <ele>474</ele>
        <time>2012-08-08T08:23:36Z</time>
      </trkpt>
      <trkpt lat="45.57519" lon="4.583">
        <ele>473</ele>
        <time>2012-08-08T08:23:44Z</time>
      </trkpt>
      <trkpt lat="45.57519" lon="4.58299">
        <ele>473</ele>
        <time>2012-08-08T08:23:45Z</time>
      </trkpt>
      <trkpt lat="45.57518" lon="4.58298">
        <ele>472</ele>
        <time>2012-08-08T08:23:46Z</time>
      </trkpt>
      <trkpt lat="45.57514" lon="4.58292">
        <ele>473</ele>
        <time>2012-08-08T08:23:53Z</time>
      </trkpt>
      <trkpt lat="45.57511" lon="4.58285">
        <ele>472</ele>
        <time>2012-08-08T08:24:01Z</time>
      </trkpt>
      <trkpt lat="45.57508" lon="4.58282">
        <ele>474</ele>
        <time>2012-08-08T08:24:04Z</time>
      </trkpt>
      <trkpt lat="45.57506" lon="4.58281">
        <ele>474</ele>
        <time>2012-08-08T08:24:05Z</time>
      </trkpt>
      <trkpt lat="45.57505" lon="4.58281">
        <ele>473</ele>
        <time>2012-08-08T08:24:06Z</time>
      </trkpt>
      <trkpt lat="45.57503" lon="4.5828">
        <ele>473</ele>
        <time>2012-08-08T08:24:07Z</time>
      </trkpt>
      <trkpt lat="45.57501" lon="4.58279">
        <ele>473</ele>
        <time>2012-08-08T08:24:08Z</time>
      </trkpt>
      <trkpt lat="45.57498" lon="4.58278">
        <ele>473</ele>
        <time>2012-08-08T08:24:09Z</time>
      </trkpt>
      <trkpt lat="45.57495" lon="4.58276">
        <ele>473</ele>
        <time>2012-08-08T08:24:10Z</time>
      </trkpt>
      <trkpt lat="45.57493" lon="4.58274">
        <ele>473</ele>
        <time>2012-08-08T08:24:11Z</time>
      </trkpt>
      <trkpt lat="45.5749" lon="4.58272">
        <ele>473</ele>
        <time>2012-08-08T08:24:12Z</time>
      </trkpt>
      <trkpt lat="45.57488" lon="4.5827">
        <ele>474</ele>
        <time>2012-08-08T08:24:13Z</time>
      </trkpt>
      <trkpt lat="45.57486" lon="4.58269">
        <ele>474</ele>
        <time>2012-08-08T08:24:14Z</time>
      </trkpt>
      <trkpt lat="45.57484" lon="4.58267">
        <ele>473</ele>
        <time>2012-08-08T08:24:15Z</time>
      </trkpt>
      <trkpt lat="45.57482" lon="4.58266">
        <ele>472</ele>
        <time>2012-08-08T08:24:16Z</time>
      </trkpt>
      <trkpt lat="45.57479" lon="4.58266">
        <ele>472</ele>
        <time>2012-08-08T08:24:17Z</time>
      </trkpt>
      <trkpt lat="45.57476" lon="4.58265">
        <ele>473</ele>
        <time>2012-08-08T08:24:18Z</time>
      </trkpt>
      <trkpt lat="45.57473" lon="4.58264">
        <ele>472</ele>
        <time>2012-08-08T08:24:19Z</time>
      </trkpt>
      <trkpt lat="45.57471" lon="4.58263">
        <ele>472</ele>
        <time>2012-08-08T08:24:20Z</time>
      </trkpt>
      <trkpt lat="45.57468" lon="4.58261">
        <ele>472</ele>
        <time>2012-08-08T08:24:21Z</time>
      </trkpt>
      <trkpt lat="45.5746" lon="4.58258">
        <ele>472</ele>
        <time>2012-08-08T08:24:24Z</time>
      </trkpt>
      <trkpt lat="45.57458" lon="4.58256">
        <ele>473</ele>
        <time>2012-08-08T08:24:25Z</time>
      </trkpt>
      <trkpt lat="45.57449" lon="4.58241">
        <ele>473</ele>
        <time>2012-08-08T08:24:31Z</time>
      </trkpt>
      <trkpt lat="45.57447" lon="4.5824">
        <ele>472</ele>
        <time>2012-08-08T08:24:32Z</time>
      </trkpt>
      <trkpt lat="45.57445" lon="4.5824">
        <ele>472</ele>
        <time>2012-08-08T08:24:33Z</time>
      </trkpt>
      <trkpt lat="45.57444" lon="4.58241">
        <ele>473</ele>
        <time>2012-08-08T08:24:34Z</time>
      </trkpt>
      <trkpt lat="45.57443" lon="4.58243">
        <ele>472</ele>
        <time>2012-08-08T08:24:35Z</time>
      </trkpt>
      <trkpt lat="45.57441" lon="4.58245">
        <ele>472</ele>
        <time>2012-08-08T08:24:36Z</time>
      </trkpt>
      <trkpt lat="45.5744" lon="4.58247">
        <ele>473</ele>
        <time>2012-08-08T08:24:37Z</time>
      </trkpt>
      <trkpt lat="45.57438" lon="4.58248">
        <ele>473</ele>
        <time>2012-08-08T08:24:38Z</time>
      </trkpt>
      <trkpt lat="45.57436" lon="4.5825">
        <ele>473</ele>
        <time>2012-08-08T08:24:39Z</time>
      </trkpt>
      <trkpt lat="45.57434" lon="4.58252">
        <ele>473</ele>
        <time>2012-08-08T08:24:40Z</time>
      </trkpt>
      <trkpt lat="45.57432" lon="4.58254">
        <ele>474</ele>
        <time>2012-08-08T08:24:41Z</time>
      </trkpt>
      <trkpt lat="45.5743" lon="4.58256">
        <ele>474</ele>
        <time>2012-08-08T08:24:42Z</time>
      </trkpt>
      <trkpt lat="45.57429" lon="4.58257">
        <ele>474</ele>
        <time>2012-08-08T08:24:43Z</time>
      </trkpt>
      <trkpt lat="45.57426" lon="4.58259">
        <ele>473</ele>
        <time>2012-08-08T08:24:44Z</time>
      </trkpt>
      <trkpt lat="45.57425" lon="4.5826">
        <ele>474</ele>
        <time>2012-08-08T08:24:45Z</time>
      </trkpt>
      <trkpt lat="45.57424" lon="4.58261">
        <ele>474</ele>
        <time>2012-08-08T08:24:46Z</time>
      </trkpt>
      <trkpt lat="45.57416" lon="4.58265">
        <ele>474</ele>
        <time>2012-08-08T08:24:50Z</time>
      </trkpt>
      <trkpt lat="45.57399" lon="4.58274">
        <ele>475</ele>
        <time>2012-08-08T08:24:57Z</time>
      </trkpt>
      <trkpt lat="45.57385" lon="4.58279">
        <ele>476</ele>
        <time>2012-08-08T08:25:03Z</time>
      </trkpt>
      <trkpt lat="45.57378" lon="4.58281">
        <ele>475</ele>
        <time>2012-08-08T08:25:14Z</time>
      </trkpt>
      <trkpt lat="45.57379" lon="4.58284">
        <ele>475</ele>
        <time>2012-08-08T08:25:21Z</time>
      </trkpt>
      <trkpt lat="45.57384" lon="4.58282">
        <ele>475</ele>
        <time>2012-08-08T08:25:28Z</time>
      </trkpt>
      <trkpt lat="45.57394" lon="4.58277">
        <ele>475</ele>
        <time>2012-08-08T08:25:34Z</time>
      </trkpt>
      <trkpt lat="45.57404" lon="4.58272">
        <ele>473</ele>
        <time>2012-08-08T08:25:41Z</time>
      </trkpt>
      <trkpt lat="45.57406" lon="4.58274">
        <ele>472</ele>
        <time>2012-08-08T08:25:44Z</time>
      </trkpt>
      <trkpt lat="45.57404" lon="4.5828">
        <ele>469</ele>
        <time>2012-08-08T08:25:49Z</time>
      </trkpt>
      <trkpt lat="45.57403" lon="4.58282">
        <ele>469</ele>
        <time>2012-08-08T08:25:50Z</time>
      </trkpt>
      <trkpt lat="45.57402" lon="4.58284">
        <ele>469</ele>
        <time>2012-08-08T08:25:51Z</time>
      </trkpt>
      <trkpt lat="45.57398" lon="4.5829">
        <ele>466</ele>
        <time>2012-08-08T08:25:54Z</time>
      </trkpt>
      <trkpt lat="45.57396" lon="4.58295">
        <ele>465</ele>
        <time>2012-08-08T08:25:58Z</time>
      </trkpt>
      <trkpt lat="45.57393" lon="4.58304">
        <ele>465</ele>
        <time>2012-08-08T08:26:06Z</time>
      </trkpt>
      <trkpt lat="45.57391" lon="4.5831">
        <ele>465</ele>
        <time>2012-08-08T08:26:14Z</time>
      </trkpt>
      <trkpt lat="45.57384" lon="4.58315">
        <ele>464</ele>
        <time>2012-08-08T08:26:20Z</time>
      </trkpt>
      <trkpt lat="45.57376" lon="4.58322">
        <ele>463</ele>
        <time>2012-08-08T08:26:23Z</time>
      </trkpt>
      <trkpt lat="45.57373" lon="4.58323">
        <ele>463</ele>
        <time>2012-08-08T08:26:24Z</time>
      </trkpt>
      <trkpt lat="45.57371" lon="4.58324">
        <ele>463</ele>
        <time>2012-08-08T08:26:25Z</time>
      </trkpt>
      <trkpt lat="45.57368" lon="4.58325">
        <ele>463</ele>
        <time>2012-08-08T08:26:26Z</time>
      </trkpt>
      <trkpt lat="45.57366" lon="4.58329">
        <ele>463</ele>
        <time>2012-08-08T08:26:27Z</time>
      </trkpt>
      <trkpt lat="45.57363" lon="4.58333">
        <ele>463</ele>
        <time>2012-08-08T08:26:28Z</time>
      </trkpt>
      <trkpt lat="45.57362" lon="4.58336">
        <ele>463</ele>
        <time>2012-08-08T08:26:29Z</time>
      </trkpt>
      <trkpt lat="45.57359" lon="4.58343">
        <ele>463</ele>
        <time>2012-08-08T08:26:35Z</time>
      </trkpt>
      <trkpt lat="45.57356" lon="4.58349">
        <ele>463</ele>
        <time>2012-08-08T08:26:42Z</time>
      </trkpt>
      <trkpt lat="45.57351" lon="4.58358">
        <ele>461</ele>
        <time>2012-08-08T08:26:45Z</time>
      </trkpt>
      <trkpt lat="45.57349" lon="4.5836">
        <ele>460</ele>
        <time>2012-08-08T08:26:48Z</time>
      </trkpt>
      <trkpt lat="45.57346" lon="4.58366">
        <ele>460</ele>
        <time>2012-08-08T08:26:55Z</time>
      </trkpt>
      <trkpt lat="45.57345" lon="4.58371">
        <ele>460</ele>
        <time>2012-08-08T08:27:02Z</time>
      </trkpt>
      <trkpt lat="45.57342" lon="4.58376">
        <ele>459</ele>
        <time>2012-08-08T08:27:12Z</time>
      </trkpt>
      <trkpt lat="45.57336" lon="4.58382">
        <ele>459</ele>
        <time>2012-08-08T08:27:26Z</time>
      </trkpt>
      <trkpt lat="45.57326" lon="4.58389">
        <ele>459</ele>
        <time>2012-08-08T08:27:33Z</time>
      </trkpt>
      <trkpt lat="45.5732" lon="4.58396">
        <ele>457</ele>
        <time>2012-08-08T08:27:39Z</time>
      </trkpt>
      <trkpt lat="45.57319" lon="4.58396">
        <ele>457</ele>
        <time>2012-08-08T08:27:50Z</time>
      </trkpt>
      <trkpt lat="45.57314" lon="4.584">
        <ele>457</ele>
        <time>2012-08-08T08:27:59Z</time>
      </trkpt>
      <trkpt lat="45.57304" lon="4.58407">
        <ele>455</ele>
        <time>2012-08-08T08:28:03Z</time>
      </trkpt>
      <trkpt lat="45.573" lon="4.58411">
        <ele>455</ele>
        <time>2012-08-08T08:28:04Z</time>
      </trkpt>
      <trkpt lat="45.5729" lon="4.58425">
        <ele>455</ele>
        <time>2012-08-08T08:28:08Z</time>
      </trkpt>
      <trkpt lat="45.57289" lon="4.58429">
        <ele>455</ele>
        <time>2012-08-08T08:28:09Z</time>
      </trkpt>
      <trkpt lat="45.57285" lon="4.58436">
        <ele>455</ele>
        <time>2012-08-08T08:28:17Z</time>
      </trkpt>
      <trkpt lat="45.5728" lon="4.5844">
        <ele>455</ele>
        <time>2012-08-08T08:28:24Z</time>
      </trkpt>
      <trkpt lat="45.57278" lon="4.58443">
        <ele>455</ele>
        <time>2012-08-08T08:28:32Z</time>
      </trkpt>
      <trkpt lat="45.57277" lon="4.58446">
        <ele>455</ele>
        <time>2012-08-08T08:28:42Z</time>
      </trkpt>
      <trkpt lat="45.57274" lon="4.5845">
        <ele>455</ele>
        <time>2012-08-08T08:28:46Z</time>
      </trkpt>
      <trkpt lat="45.57272" lon="4.58451">
        <ele>456</ele>
        <time>2012-08-08T08:28:47Z</time>
      </trkpt>
      <trkpt lat="45.57271" lon="4.58452">
        <ele>455</ele>
        <time>2012-08-08T08:28:48Z</time>
      </trkpt>
      <trkpt lat="45.57261" lon="4.58459">
        <ele>457</ele>
        <time>2012-08-08T08:28:53Z</time>
      </trkpt>
      <trkpt lat="45.57255" lon="4.58468">
        <ele>456</ele>
        <time>2012-08-08T08:29:00Z</time>
      </trkpt>
      <trkpt lat="45.57253" lon="4.58473">
        <ele>456</ele>
        <time>2012-08-08T08:29:09Z</time>
      </trkpt>
      <trkpt lat="45.57248" lon="4.58477">
        <ele>457</ele>
        <time>2012-08-08T08:29:16Z</time>
      </trkpt>
      <trkpt lat="45.57244" lon="4.5848">
        <ele>456</ele>
        <time>2012-08-08T08:29:23Z</time>
      </trkpt>
      <trkpt lat="45.57243" lon="4.58479">
        <ele>458</ele>
        <time>2012-08-08T08:29:30Z</time>
      </trkpt>
      <trkpt lat="45.57243" lon="4.58485">
        <ele>457</ele>
        <time>2012-08-08T08:29:38Z</time>
      </trkpt>
      <trkpt lat="45.57239" lon="4.58488">
        <ele>457</ele>
        <time>2012-08-08T08:29:44Z</time>
      </trkpt>
      <trkpt lat="45.57231" lon="4.58493">
        <ele>459</ele>
        <time>2012-08-08T08:29:48Z</time>
      </trkpt>
      <trkpt lat="45.5723" lon="4.58495">
        <ele>459</ele>
        <time>2012-08-08T08:29:49Z</time>
      </trkpt>
      <trkpt lat="45.57228" lon="4.58495">
        <ele>460</ele>
        <time>2012-08-08T08:29:51Z</time>
      </trkpt>
      <trkpt lat="45.57226" lon="4.58498">
        <ele>460</ele>
        <time>2012-08-08T08:29:53Z</time>
      </trkpt>
      <trkpt lat="45.57224" lon="4.58499">
        <ele>461</ele>
        <time>2012-08-08T08:29:54Z</time>
      </trkpt>
      <trkpt lat="45.57223" lon="4.58501">
        <ele>460</ele>
        <time>2012-08-08T08:29:55Z</time>
      </trkpt>
      <trkpt lat="45.57216" lon="4.58507">
        <ele>461</ele>
        <time>2012-08-08T08:30:01Z</time>
      </trkpt>
      <trkpt lat="45.57212" lon="4.58509">
        <ele>462</ele>
        <time>2012-08-08T08:30:05Z</time>
      </trkpt>
      <trkpt lat="45.57207" lon="4.58511">
        <ele>462</ele>
        <time>2012-08-08T08:30:11Z</time>
      </trkpt>
      <trkpt lat="45.57204" lon="4.58514">
        <ele>462</ele>
        <time>2012-08-08T08:30:19Z</time>
      </trkpt>
      <trkpt lat="45.572" lon="4.58513">
        <ele>462</ele>
        <time>2012-08-08T08:30:29Z</time>
      </trkpt>
      <trkpt lat="45.57201" lon="4.58514">
        <ele>462</ele>
        <time>2012-08-08T08:30:43Z</time>
      </trkpt>
      <trkpt lat="45.57201" lon="4.58513">
        <ele>463</ele>
        <time>2012-08-08T08:31:00Z</time>
      </trkpt>
      <trkpt lat="45.57198" lon="4.58514">
        <ele>463</ele>
        <time>2012-08-08T08:31:13Z</time>
      </trkpt>
      <trkpt lat="45.57192" lon="4.58518">
        <ele>463</ele>
        <time>2012-08-08T08:31:20Z</time>
      </trkpt>
      <trkpt lat="45.57188" lon="4.58521">
        <ele>463</ele>
        <time>2012-08-08T08:31:29Z</time>
      </trkpt>
      <trkpt lat="45.57183" lon="4.58522">
        <ele>464</ele>
        <time>2012-08-08T08:31:35Z</time>
      </trkpt>
      <trkpt lat="45.57179" lon="4.58522">
        <ele>465</ele>
        <time>2012-08-08T08:31:37Z</time>
      </trkpt>
      <trkpt lat="45.57178" lon="4.58522">
        <ele>465</ele>
        <time>2012-08-08T08:31:38Z</time>
      </trkpt>
      <trkpt lat="45.57174" lon="4.58522">
        <ele>466</ele>
        <time>2012-08-08T08:31:43Z</time>
      </trkpt>
      <trkpt lat="45.57169" lon="4.58519">
        <ele>466</ele>
        <time>2012-08-08T08:31:50Z</time>
      </trkpt>
      <trkpt lat="45.57165" lon="4.58514">
        <ele>468</ele>
        <time>2012-08-08T08:31:57Z</time>
      </trkpt>
      <trkpt lat="45.57162" lon="4.58514">
        <ele>469</ele>
        <time>2012-08-08T08:32:04Z</time>
      </trkpt>
      <trkpt lat="45.57157" lon="4.58515">
        <ele>468</ele>
        <time>2012-08-08T08:32:10Z</time>
      </trkpt>
      <trkpt lat="45.57155" lon="4.58515">
        <ele>469</ele>
        <time>2012-08-08T08:32:12Z</time>
      </trkpt>
      <trkpt lat="45.57149" lon="4.5851">
        <ele>470</ele>
        <time>2012-08-08T08:32:18Z</time>
      </trkpt>
      <trkpt lat="45.57147" lon="4.58503">
        <ele>470</ele>
        <time>2012-08-08T08:32:26Z</time>
      </trkpt>
      <trkpt lat="45.57147" lon="4.58501">
        <ele>470</ele>
        <time>2012-08-08T08:32:35Z</time>
      </trkpt>
      <trkpt lat="45.57147" lon="4.58499">
        <ele>470</ele>
        <time>2012-08-08T08:32:36Z</time>
      </trkpt>
      <trkpt lat="45.57147" lon="4.58497">
        <ele>470</ele>
        <time>2012-08-08T08:32:37Z</time>
      </trkpt>
      <trkpt lat="45.57145" lon="4.58485">
        <ele>471</ele>
        <time>2012-08-08T08:32:43Z</time>
      </trkpt>
      <trkpt lat="45.57143" lon="4.58481">
        <ele>469</ele>
        <time>2012-08-08T08:32:46Z</time>
      </trkpt>
      <trkpt lat="45.57142" lon="4.58479">
        <ele>469</ele>
        <time>2012-08-08T08:32:47Z</time>
      </trkpt>
      <trkpt lat="45.57142" lon="4.58476">
        <ele>469</ele>
        <time>2012-08-08T08:32:48Z</time>
      </trkpt>
      <trkpt lat="45.57142" lon="4.58473">
        <ele>468</ele>
        <time>2012-08-08T08:32:49Z</time>
      </trkpt>
      <trkpt lat="45.57141" lon="4.58465">
        <ele>469</ele>
        <time>2012-08-08T08:32:53Z</time>
      </trkpt>
      <trkpt lat="45.57136" lon="4.58457">
        <ele>465</ele>
        <time>2012-08-08T08:32:58Z</time>
      </trkpt>
      <trkpt lat="45.57136" lon="4.5845">
        <ele>464</ele>
        <time>2012-08-08T08:33:04Z</time>
      </trkpt>
      <trkpt lat="45.57135" lon="4.58445">
        <ele>464</ele>
        <time>2012-08-08T08:33:13Z</time>
      </trkpt>
      <trkpt lat="45.57133" lon="4.58438">
        <ele>463</ele>
        <time>2012-08-08T08:33:21Z</time>
      </trkpt>
      <trkpt lat="45.57132" lon="4.58439">
        <ele>463</ele>
        <time>2012-08-08T08:33:28Z</time>
      </trkpt>
      <trkpt lat="45.57129" lon="4.58444">
        <ele>463</ele>
        <time>2012-08-08T08:33:38Z</time>
      </trkpt>
      <trkpt lat="45.57129" lon="4.58447">
        <ele>463</ele>
        <time>2012-08-08T08:33:39Z</time>
      </trkpt>
      <trkpt lat="45.57128" lon="4.58449">
        <ele>463</ele>
        <time>2012-08-08T08:33:40Z</time>
      </trkpt>
      <trkpt lat="45.57127" lon="4.58452">
        <ele>461</ele>
        <time>2012-08-08T08:33:41Z</time>
      </trkpt>
      <trkpt lat="45.57126" lon="4.58455">
        <ele>460</ele>
        <time>2012-08-08T08:33:42Z</time>
      </trkpt>
      <trkpt lat="45.57125" lon="4.58459">
        <ele>461</ele>
        <time>2012-08-08T08:33:43Z</time>
      </trkpt>
      <trkpt lat="45.57124" lon="4.58463">
        <ele>461</ele>
        <time>2012-08-08T08:33:44Z</time>
      </trkpt>
      <trkpt lat="45.57124" lon="4.58467">
        <ele>461</ele>
        <time>2012-08-08T08:33:45Z</time>
      </trkpt>
      <trkpt lat="45.57121" lon="4.58489">
        <ele>459</ele>
        <time>2012-08-08T08:33:51Z</time>
      </trkpt>
      <trkpt lat="45.5712" lon="4.58501">
        <ele>458</ele>
        <time>2012-08-08T08:33:54Z</time>
      </trkpt>
      <trkpt lat="45.57119" lon="4.58504">
        <ele>458</ele>
        <time>2012-08-08T08:33:55Z</time>
      </trkpt>
      <trkpt lat="45.57119" lon="4.58508">
        <ele>457</ele>
        <time>2012-08-08T08:33:56Z</time>
      </trkpt>
      <trkpt lat="45.57119" lon="4.58511">
        <ele>457</ele>
        <time>2012-08-08T08:33:57Z</time>
      </trkpt>
      <trkpt lat="45.57118" lon="4.58515">
        <ele>455</ele>
        <time>2012-08-08T08:33:58Z</time>
      </trkpt>
      <trkpt lat="45.57119" lon="4.58519">
        <ele>455</ele>
        <time>2012-08-08T08:33:59Z</time>
      </trkpt>
      <trkpt lat="45.57119" lon="4.58522">
        <ele>454</ele>
        <time>2012-08-08T08:34:00Z</time>
      </trkpt>
      <trkpt lat="45.57119" lon="4.58529">
        <ele>453</ele>
        <time>2012-08-08T08:34:02Z</time>
      </trkpt>
      <trkpt lat="45.57118" lon="4.58532">
        <ele>452</ele>
        <time>2012-08-08T08:34:03Z</time>
      </trkpt>
      <trkpt lat="45.57117" lon="4.58536">
        <ele>451</ele>
        <time>2012-08-08T08:34:04Z</time>
      </trkpt>
      <trkpt lat="45.57115" lon="4.58549">
        <ele>449</ele>
        <time>2012-08-08T08:34:07Z</time>
      </trkpt>
      <trkpt lat="45.57114" lon="4.58563">
        <ele>448</ele>
        <time>2012-08-08T08:34:09Z</time>
      </trkpt>
      <trkpt lat="45.57116" lon="4.58589">
        <ele>444</ele>
        <time>2012-08-08T08:34:14Z</time>
      </trkpt>
      <trkpt lat="45.57119" lon="4.58593">
        <ele>444</ele>
        <time>2012-08-08T08:34:15Z</time>
      </trkpt>
      <trkpt lat="45.57121" lon="4.58597">
        <ele>445</ele>
        <time>2012-08-08T08:34:16Z</time>
      </trkpt>
      <trkpt lat="45.57124" lon="4.58598">
        <ele>444</ele>
        <time>2012-08-08T08:34:17Z</time>
      </trkpt>
      <trkpt lat="45.57126" lon="4.58599">
        <ele>445</ele>
        <time>2012-08-08T08:34:18Z</time>
      </trkpt>
      <trkpt lat="45.57128" lon="4.58599">
        <ele>445</ele>
        <time>2012-08-08T08:34:19Z</time>
      </trkpt>
      <trkpt lat="45.57131" lon="4.58602">
        <ele>445</ele>
        <time>2012-08-08T08:34:20Z</time>
      </trkpt>
      <trkpt lat="45.57133" lon="4.58602">
        <ele>445</ele>
        <time>2012-08-08T08:34:21Z</time>
      </trkpt>
      <trkpt lat="45.57142" lon="4.58605">
        <ele>444</ele>
        <time>2012-08-08T08:34:25Z</time>
      </trkpt>
      <trkpt lat="45.57146" lon="4.58606">
        <ele>443</ele>
        <time>2012-08-08T08:34:26Z</time>
      </trkpt>
      <trkpt lat="45.5715" lon="4.58607">
        <ele>443</ele>
        <time>2012-08-08T08:34:27Z</time>
      </trkpt>
      <trkpt lat="45.57154" lon="4.5861">
        <ele>442</ele>
        <time>2012-08-08T08:34:28Z</time>
      </trkpt>
      <trkpt lat="45.57156" lon="4.58614">
        <ele>442</ele>
        <time>2012-08-08T08:34:29Z</time>
      </trkpt>
      <trkpt lat="45.57157" lon="4.5862">
        <ele>442</ele>
        <time>2012-08-08T08:34:30Z</time>
      </trkpt>
      <trkpt lat="45.57156" lon="4.58625">
        <ele>442</ele>
        <time>2012-08-08T08:34:31Z</time>
      </trkpt>
      <trkpt lat="45.57154" lon="4.58629">
        <ele>442</ele>
        <time>2012-08-08T08:34:32Z</time>
      </trkpt>
      <trkpt lat="45.57153" lon="4.58633">
        <ele>442</ele>
        <time>2012-08-08T08:34:33Z</time>
      </trkpt>
      <trkpt lat="45.57152" lon="4.58636">
        <ele>442</ele>
        <time>2012-08-08T08:34:34Z</time>
      </trkpt>
      <trkpt lat="45.5714" lon="4.58657">
        <ele>443</ele>
        <time>2012-08-08T08:34:43Z</time>
      </trkpt>
      <trkpt lat="45.57134" lon="4.5867">
        <ele>445</ele>
        <time>2012-08-08T08:34:48Z</time>
      </trkpt>
      <trkpt lat="45.57128" lon="4.58689">
        <ele>444</ele>
        <time>2012-08-08T08:34:55Z</time>
      </trkpt>
      <trkpt lat="45.57116" lon="4.58712">
        <ele>443</ele>
        <time>2012-08-08T08:35:03Z</time>
      </trkpt>
      <trkpt lat="45.57111" lon="4.5873">
        <ele>443</ele>
        <time>2012-08-08T08:35:09Z</time>
      </trkpt>
      <trkpt lat="45.57115" lon="4.58758">
        <ele>444</ele>
        <time>2012-08-08T08:35:17Z</time>
      </trkpt>
      <trkpt lat="45.57121" lon="4.58783">
        <ele>444</ele>
        <time>2012-08-08T08:35:25Z</time>
      </trkpt>
      <trkpt lat="45.57116" lon="4.58798">
        <ele>443</ele>
        <time>2012-08-08T08:35:29Z</time>
      </trkpt>
      <trkpt lat="45.57114" lon="4.58803">
        <ele>443</ele>
        <time>2012-08-08T08:35:30Z</time>
      </trkpt>
      <trkpt lat="45.5711" lon="4.58815">
        <ele>441</ele>
        <time>2012-08-08T08:35:32Z</time>
      </trkpt>
      <trkpt lat="45.57103" lon="4.58836">
        <ele>439</ele>
        <time>2012-08-08T08:35:35Z</time>
      </trkpt>
      <trkpt lat="45.57102" lon="4.58843">
        <ele>438</ele>
        <time>2012-08-08T08:35:36Z</time>
      </trkpt>
      <trkpt lat="45.57102" lon="4.58851">
        <ele>438</ele>
        <time>2012-08-08T08:35:37Z</time>
      </trkpt>
      <trkpt lat="45.57103" lon="4.58859">
        <ele>437</ele>
        <time>2012-08-08T08:35:38Z</time>
      </trkpt>
      <trkpt lat="45.57105" lon="4.58867">
        <ele>437</ele>
        <time>2012-08-08T08:35:39Z</time>
      </trkpt>
      <trkpt lat="45.5711" lon="4.58885">
        <ele>436</ele>
        <time>2012-08-08T08:35:41Z</time>
      </trkpt>
      <trkpt lat="45.57115" lon="4.58901">
        <ele>435</ele>
        <time>2012-08-08T08:35:43Z</time>
      </trkpt>
      <trkpt lat="45.57126" lon="4.58928">
        <ele>434</ele>
        <time>2012-08-08T08:35:47Z</time>
      </trkpt>
      <trkpt lat="45.57127" lon="4.58936">
        <ele>432</ele>
        <time>2012-08-08T08:35:48Z</time>
      </trkpt>
      <trkpt lat="45.57127" lon="4.58945">
        <ele>432</ele>
        <time>2012-08-08T08:35:49Z</time>
      </trkpt>
      <trkpt lat="45.57127" lon="4.58954">
        <ele>431</ele>
        <time>2012-08-08T08:35:50Z</time>
      </trkpt>
      <trkpt lat="45.57127" lon="4.58963">
        <ele>430</ele>
        <time>2012-08-08T08:35:51Z</time>
      </trkpt>
      <trkpt lat="45.57129" lon="4.58971">
        <ele>429</ele>
        <time>2012-08-08T08:35:52Z</time>
      </trkpt>
      <trkpt lat="45.57132" lon="4.58977">
        <ele>428</ele>
        <time>2012-08-08T08:35:53Z</time>
      </trkpt>
      <trkpt lat="45.57136" lon="4.58982">
        <ele>427</ele>
        <time>2012-08-08T08:35:54Z</time>
      </trkpt>
      <trkpt lat="45.5714" lon="4.58987">
        <ele>426</ele>
        <time>2012-08-08T08:35:55Z</time>
      </trkpt>
      <trkpt lat="45.57144" lon="4.58992">
        <ele>426</ele>
        <time>2012-08-08T08:35:56Z</time>
      </trkpt>
      <trkpt lat="45.57148" lon="4.58998">
        <ele>426</ele>
        <time>2012-08-08T08:35:57Z</time>
      </trkpt>
      <trkpt lat="45.57155" lon="4.59007">
        <ele>426</ele>
        <time>2012-08-08T08:36:01Z</time>
      </trkpt>
      <trkpt lat="45.57153" lon="4.59004">
        <ele>426</ele>
        <time>2012-08-08T08:36:08Z</time>
      </trkpt>
      <trkpt lat="45.5715" lon="4.59005">
        <ele>426</ele>
        <time>2012-08-08T08:36:11Z</time>
      </trkpt>
      <trkpt lat="45.57138" lon="4.59005">
        <ele>426</ele>
        <time>2012-08-08T08:36:17Z</time>
      </trkpt>
      <trkpt lat="45.57133" lon="4.59004">
        <ele>425</ele>
        <time>2012-08-08T08:36:20Z</time>
      </trkpt>
      <trkpt lat="45.57132" lon="4.59005">
        <ele>424</ele>
        <time>2012-08-08T08:36:21Z</time>
      </trkpt>
      <trkpt lat="45.57131" lon="4.59007">
        <ele>423</ele>
        <time>2012-08-08T08:36:22Z</time>
      </trkpt>
      <trkpt lat="45.5713" lon="4.59009">
        <ele>424</ele>
        <time>2012-08-08T08:36:23Z</time>
      </trkpt>
      <trkpt lat="45.5713" lon="4.59011">
        <ele>423</ele>
        <time>2012-08-08T08:36:24Z</time>
      </trkpt>
      <trkpt lat="45.5713" lon="4.59025">
        <ele>425</ele>
        <time>2012-08-08T08:36:32Z</time>
      </trkpt>
      <trkpt lat="45.57128" lon="4.59037">
        <ele>426</ele>
        <time>2012-08-08T08:36:38Z</time>
      </trkpt>
      <trkpt lat="45.57128" lon="4.5904">
        <ele>427</ele>
        <time>2012-08-08T08:36:39Z</time>
      </trkpt>
      <trkpt lat="45.57127" lon="4.59058">
        <ele>428</ele>
        <time>2012-08-08T08:36:48Z</time>
      </trkpt>
      <trkpt lat="45.57127" lon="4.59065">
        <ele>429</ele>
        <time>2012-08-08T08:36:51Z</time>
      </trkpt>
      <trkpt lat="45.57129" lon="4.59083">
        <ele>430</ele>
        <time>2012-08-08T08:37:00Z</time>
      </trkpt>
      <trkpt lat="45.57129" lon="4.59084">
        <ele>430</ele>
        <time>2012-08-08T08:37:01Z</time>
      </trkpt>
      <trkpt lat="45.57129" lon="4.59086">
        <ele>430</ele>
        <time>2012-08-08T08:37:02Z</time>
      </trkpt>
      <trkpt lat="45.5713" lon="4.59093">
        <ele>431</ele>
        <time>2012-08-08T08:37:06Z</time>
      </trkpt>
      <trkpt lat="45.5713" lon="4.59101">
        <ele>432</ele>
        <time>2012-08-08T08:37:12Z</time>
      </trkpt>
      <trkpt lat="45.5713" lon="4.59103">
        <ele>433</ele>
        <time>2012-08-08T08:37:13Z</time>
      </trkpt>
      <trkpt lat="45.5713" lon="4.59106">
        <ele>433</ele>
        <time>2012-08-08T08:37:14Z</time>
      </trkpt>
      <trkpt lat="45.57128" lon="4.59124">
        <ele>435</ele>
        <time>2012-08-08T08:37:22Z</time>
      </trkpt>
      <trkpt lat="45.57126" lon="4.59142">
        <ele>436</ele>
        <time>2012-08-08T08:37:31Z</time>
      </trkpt>
      <trkpt lat="45.57125" lon="4.59159">
        <ele>438</ele>
        <time>2012-08-08T08:37:39Z</time>
      </trkpt>
      <trkpt lat="45.57123" lon="4.59176">
        <ele>438</ele>
        <time>2012-08-08T08:37:47Z</time>
      </trkpt>
      <trkpt lat="45.57116" lon="4.59191">
        <ele>440</ele>
        <time>2012-08-08T08:37:55Z</time>
      </trkpt>
      <trkpt lat="45.57106" lon="4.59202">
        <ele>441</ele>
        <time>2012-08-08T08:38:03Z</time>
      </trkpt>
      <trkpt lat="45.57101" lon="4.59206">
        <ele>441</ele>
        <time>2012-08-08T08:38:07Z</time>
      </trkpt>
      <trkpt lat="45.571" lon="4.59207">
        <ele>441</ele>
        <time>2012-08-08T08:38:08Z</time>
      </trkpt>
      <trkpt lat="45.57099" lon="4.59209">
        <ele>442</ele>
        <time>2012-08-08T08:38:09Z</time>
      </trkpt>
      <trkpt lat="45.57098" lon="4.59212">
        <ele>442</ele>
        <time>2012-08-08T08:38:11Z</time>
      </trkpt>
      <trkpt lat="45.57095" lon="4.5922">
        <ele>443</ele>
        <time>2012-08-08T08:38:15Z</time>
      </trkpt>
      <trkpt lat="45.5709" lon="4.5924">
        <ele>444</ele>
        <time>2012-08-08T08:38:23Z</time>
      </trkpt>
      <trkpt lat="45.57085" lon="4.59266">
        <ele>443</ele>
        <time>2012-08-08T08:38:31Z</time>
      </trkpt>
      <trkpt lat="45.57079" lon="4.59294">
        <ele>443</ele>
        <time>2012-08-08T08:38:39Z</time>
      </trkpt>
      <trkpt lat="45.57071" lon="4.59313">
        <ele>443</ele>
        <time>2012-08-08T08:38:44Z</time>
      </trkpt>
      <trkpt lat="45.57058" lon="4.59346">
        <ele>443</ele>
        <time>2012-08-08T08:38:52Z</time>
      </trkpt>
      <trkpt lat="45.57055" lon="4.59381">
        <ele>443</ele>
        <time>2012-08-08T08:39:00Z</time>
      </trkpt>
      <trkpt lat="45.57052" lon="4.59436">
        <ele>444</ele>
        <time>2012-08-08T08:39:12Z</time>
      </trkpt>
      <trkpt lat="45.5704" lon="4.59484">
        <ele>445</ele>
        <time>2012-08-08T08:39:23Z</time>
      </trkpt>
      <trkpt lat="45.57031" lon="4.59523">
        <ele>446</ele>
        <time>2012-08-08T08:39:32Z</time>
      </trkpt>
      <trkpt lat="45.57022" lon="4.59563">
        <ele>446</ele>
        <time>2012-08-08T08:39:41Z</time>
      </trkpt>
      <trkpt lat="45.57011" lon="4.59607">
        <ele>447</ele>
        <time>2012-08-08T08:39:52Z</time>
      </trkpt>
      <trkpt lat="45.57001" lon="4.59642">
        <ele>448</ele>
        <time>2012-08-08T08:40:00Z</time>
      </trkpt>
      <trkpt lat="45.56983" lon="4.597">
        <ele>448</ele>
        <time>2012-08-08T08:40:12Z</time>
      </trkpt>
      <trkpt lat="45.5697" lon="4.59743">
        <ele>448</ele>
        <time>2012-08-08T08:40:21Z</time>
      </trkpt>
      <trkpt lat="45.56953" lon="4.59789">
        <ele>449</ele>
        <time>2012-08-08T08:40:31Z</time>
      </trkpt>
      <trkpt lat="45.56939" lon="4.5983">
        <ele>450</ele>
        <time>2012-08-08T08:40:40Z</time>
      </trkpt>
      <trkpt lat="45.56928" lon="4.5986">
        <ele>451</ele>
        <time>2012-08-08T08:40:47Z</time>
      </trkpt>
      <trkpt lat="45.56916" lon="4.59885">
        <ele>452</ele>
        <time>2012-08-08T08:40:54Z</time>
      </trkpt>
      <trkpt lat="45.56907" lon="4.59912">
        <ele>451</ele>
        <time>2012-08-08T08:41:00Z</time>
      </trkpt>
      <trkpt lat="45.56887" lon="4.59956">
        <ele>450</ele>
        <time>2012-08-08T08:41:09Z</time>
      </trkpt>
      <trkpt lat="45.56876" lon="4.59974">
        <ele>450</ele>
        <time>2012-08-08T08:41:13Z</time>
      </trkpt>
      <trkpt lat="45.56869" lon="4.59983">
        <ele>449</ele>
        <time>2012-08-08T08:41:15Z</time>
      </trkpt>
      <trkpt lat="45.56865" lon="4.59987">
        <ele>449</ele>
        <time>2012-08-08T08:41:16Z</time>
      </trkpt>
      <trkpt lat="45.56856" lon="4.59994">
        <ele>447</ele>
        <time>2012-08-08T08:41:18Z</time>
      </trkpt>
      <trkpt lat="45.5685" lon="4.59996">
        <ele>447</ele>
        <time>2012-08-08T08:41:19Z</time>
      </trkpt>
      <trkpt lat="45.56844" lon="4.59997">
        <ele>446</ele>
        <time>2012-08-08T08:41:20Z</time>
      </trkpt>
      <trkpt lat="45.56838" lon="4.59996">
        <ele>446</ele>
        <time>2012-08-08T08:41:21Z</time>
      </trkpt>
      <trkpt lat="45.56833" lon="4.59993">
        <ele>445</ele>
        <time>2012-08-08T08:41:22Z</time>
      </trkpt>
      <trkpt lat="45.56827" lon="4.59989">
        <ele>445</ele>
        <time>2012-08-08T08:41:23Z</time>
      </trkpt>
      <trkpt lat="45.56822" lon="4.59985">
        <ele>445</ele>
        <time>2012-08-08T08:41:24Z</time>
      </trkpt>
      <trkpt lat="45.56817" lon="4.5998">
        <ele>445</ele>
        <time>2012-08-08T08:41:25Z</time>
      </trkpt>
      <trkpt lat="45.56811" lon="4.59975">
        <ele>444</ele>
        <time>2012-08-08T08:41:26Z</time>
      </trkpt>
      <trkpt lat="45.56777" lon="4.59949">
        <ele>441</ele>
        <time>2012-08-08T08:41:32Z</time>
      </trkpt>
      <trkpt lat="45.56769" lon="4.5994">
        <ele>441</ele>
        <time>2012-08-08T08:41:34Z</time>
      </trkpt>
      <trkpt lat="45.56766" lon="4.59936">
        <ele>440</ele>
        <time>2012-08-08T08:41:35Z</time>
      </trkpt>
      <trkpt lat="45.56762" lon="4.59932">
        <ele>440</ele>
        <time>2012-08-08T08:41:36Z</time>
      </trkpt>
      <trkpt lat="45.56758" lon="4.59928">
        <ele>439</ele>
        <time>2012-08-08T08:41:37Z</time>
      </trkpt>
      <trkpt lat="45.56754" lon="4.59924">
        <ele>440</ele>
        <time>2012-08-08T08:41:38Z</time>
      </trkpt>
      <trkpt lat="45.5675" lon="4.5992">
        <ele>439</ele>
        <time>2012-08-08T08:41:39Z</time>
      </trkpt>
      <trkpt lat="45.56746" lon="4.59918">
        <ele>439</ele>
        <time>2012-08-08T08:41:40Z</time>
      </trkpt>
      <trkpt lat="45.56742" lon="4.59916">
        <ele>438</ele>
        <time>2012-08-08T08:41:41Z</time>
      </trkpt>
      <trkpt lat="45.56733" lon="4.59911">
        <ele>438</ele>
        <time>2012-08-08T08:41:43Z</time>
      </trkpt>
      <trkpt lat="45.56729" lon="4.59907">
        <ele>438</ele>
        <time>2012-08-08T08:41:44Z</time>
      </trkpt>
      <trkpt lat="45.5672" lon="4.59893">
        <ele>436</ele>
        <time>2012-08-08T08:41:47Z</time>
      </trkpt>
      <trkpt lat="45.56698" lon="4.59844">
        <ele>434</ele>
        <time>2012-08-08T08:41:54Z</time>
      </trkpt>
      <trkpt lat="45.5669" lon="4.59834">
        <ele>433</ele>
        <time>2012-08-08T08:41:57Z</time>
      </trkpt>
      <trkpt lat="45.56688" lon="4.59836">
        <ele>433</ele>
        <time>2012-08-08T08:41:58Z</time>
      </trkpt>
      <trkpt lat="45.56688" lon="4.59838">
        <ele>433</ele>
        <time>2012-08-08T08:41:59Z</time>
      </trkpt>
      <trkpt lat="45.56688" lon="4.5984">
        <ele>432</ele>
        <time>2012-08-08T08:42:00Z</time>
      </trkpt>
      <trkpt lat="45.56688" lon="4.59842">
        <ele>433</ele>
        <time>2012-08-08T08:42:01Z</time>
      </trkpt>
      <trkpt lat="45.56689" lon="4.59844">
        <ele>433</ele>
        <time>2012-08-08T08:42:02Z</time>
      </trkpt>
      <trkpt lat="45.56689" lon="4.59847">
        <ele>433</ele>
        <time>2012-08-08T08:42:03Z</time>
      </trkpt>
      <trkpt lat="45.56689" lon="4.59849">
        <ele>432</ele>
        <time>2012-08-08T08:42:04Z</time>
      </trkpt>
      <trkpt lat="45.5669" lon="4.59858">
        <ele>433</ele>
        <time>2012-08-08T08:42:07Z</time>
      </trkpt>
      <trkpt lat="45.56691" lon="4.5986">
        <ele>433</ele>
        <time>2012-08-08T08:42:08Z</time>
      </trkpt>
      <trkpt lat="45.56691" lon="4.59862">
        <ele>434</ele>
        <time>2012-08-08T08:42:09Z</time>
      </trkpt>
      <trkpt lat="45.56691" lon="4.59872">
        <ele>436</ele>
        <time>2012-08-08T08:42:13Z</time>
      </trkpt>
      <trkpt lat="45.56687" lon="4.5989">
        <ele>437</ele>
        <time>2012-08-08T08:42:20Z</time>
      </trkpt>
      <trkpt lat="45.56687" lon="4.59901">
        <ele>438</ele>
        <time>2012-08-08T08:42:26Z</time>
      </trkpt>
      <trkpt lat="45.56687" lon="4.59904">
        <ele>437</ele>
        <time>2012-08-08T08:42:27Z</time>
      </trkpt>
      <trkpt lat="45.56689" lon="4.59927">
        <ele>437</ele>
        <time>2012-08-08T08:42:35Z</time>
      </trkpt>
      <trkpt lat="45.56691" lon="4.59953">
        <ele>435</ele>
        <time>2012-08-08T08:42:40Z</time>
      </trkpt>
      <trkpt lat="45.56693" lon="4.59977">
        <ele>434</ele>
        <time>2012-08-08T08:42:43Z</time>
      </trkpt>
      <trkpt lat="45.56693" lon="4.59984">
        <ele>434</ele>
        <time>2012-08-08T08:42:44Z</time>
      </trkpt>
      <trkpt lat="45.56692" lon="4.60001">
        <ele>434</ele>
        <time>2012-08-08T08:42:46Z</time>
      </trkpt>
      <trkpt lat="45.56692" lon="4.60008">
        <ele>433</ele>
        <time>2012-08-08T08:42:47Z</time>
      </trkpt>
      <trkpt lat="45.56693" lon="4.60013">
        <ele>433</ele>
        <time>2012-08-08T08:42:48Z</time>
      </trkpt>
      <trkpt lat="45.56696" lon="4.60016">
        <ele>434</ele>
        <time>2012-08-08T08:42:49Z</time>
      </trkpt>
      <trkpt lat="45.56704" lon="4.60022">
        <ele>434</ele>
        <time>2012-08-08T08:42:51Z</time>
      </trkpt>
      <trkpt lat="45.56707" lon="4.60025">
        <ele>434</ele>
        <time>2012-08-08T08:42:52Z</time>
      </trkpt>
      <trkpt lat="45.56709" lon="4.60027">
        <ele>434</ele>
        <time>2012-08-08T08:42:53Z</time>
      </trkpt>
      <trkpt lat="45.56712" lon="4.6003">
        <ele>434</ele>
        <time>2012-08-08T08:42:54Z</time>
      </trkpt>
      <trkpt lat="45.56714" lon="4.60033">
        <ele>435</ele>
        <time>2012-08-08T08:42:55Z</time>
      </trkpt>
      <trkpt lat="45.56727" lon="4.60053">
        <ele>436</ele>
        <time>2012-08-08T08:43:02Z</time>
      </trkpt>
      <trkpt lat="45.56736" lon="4.60076">
        <ele>436</ele>
        <time>2012-08-08T08:43:08Z</time>
      </trkpt>
      <trkpt lat="45.56742" lon="4.60102">
        <ele>438</ele>
        <time>2012-08-08T08:43:15Z</time>
      </trkpt>
      <trkpt lat="45.56742" lon="4.6013">
        <ele>438</ele>
        <time>2012-08-08T08:43:22Z</time>
      </trkpt>
      <trkpt lat="45.56734" lon="4.60155">
        <ele>437</ele>
        <time>2012-08-08T08:43:27Z</time>
      </trkpt>
      <trkpt lat="45.56731" lon="4.60172">
        <ele>437</ele>
        <time>2012-08-08T08:43:30Z</time>
      </trkpt>
      <trkpt lat="45.56733" lon="4.60177">
        <ele>436</ele>
        <time>2012-08-08T08:43:31Z</time>
      </trkpt>
      <trkpt lat="45.56735" lon="4.60181">
        <ele>436</ele>
        <time>2012-08-08T08:43:32Z</time>
      </trkpt>
      <trkpt lat="45.56742" lon="4.60183">
        <ele>436</ele>
        <time>2012-08-08T08:43:34Z</time>
      </trkpt>
      <trkpt lat="45.56746" lon="4.60184">
        <ele>436</ele>
        <time>2012-08-08T08:43:35Z</time>
      </trkpt>
      <trkpt lat="45.56783" lon="4.60195">
        <ele>438</ele>
        <time>2012-08-08T08:43:44Z</time>
      </trkpt>
      <trkpt lat="45.56794" lon="4.6022">
        <ele>438</ele>
        <time>2012-08-08T08:43:50Z</time>
      </trkpt>
      <trkpt lat="45.56808" lon="4.60243">
        <ele>439</ele>
        <time>2012-08-08T08:43:56Z</time>
      </trkpt>
      <trkpt lat="45.56825" lon="4.60264">
        <ele>438</ele>
        <time>2012-08-08T08:44:03Z</time>
      </trkpt>
      <trkpt lat="45.56857" lon="4.60293">
        <ele>437</ele>
        <time>2012-08-08T08:44:11Z</time>
      </trkpt>
      <trkpt lat="45.56881" lon="4.60306">
        <ele>437</ele>
        <time>2012-08-08T08:44:17Z</time>
      </trkpt>
      <trkpt lat="45.56911" lon="4.60323">
        <ele>437</ele>
        <time>2012-08-08T08:44:25Z</time>
      </trkpt>
      <trkpt lat="45.56937" lon="4.60347">
        <ele>438</ele>
        <time>2012-08-08T08:44:33Z</time>
      </trkpt>
      <trkpt lat="45.56957" lon="4.60371">
        <ele>438</ele>
        <time>2012-08-08T08:44:40Z</time>
      </trkpt>
      <trkpt lat="45.56979" lon="4.60399">
        <ele>439</ele>
        <time>2012-08-08T08:44:48Z</time>
      </trkpt>
      <trkpt lat="45.56991" lon="4.60418">
        <ele>439</ele>
        <time>2012-08-08T08:44:54Z</time>
      </trkpt>
      <trkpt lat="45.57001" lon="4.60446">
        <ele>441</ele>
        <time>2012-08-08T08:45:04Z</time>
      </trkpt>
      <trkpt lat="45.57003" lon="4.60469">
        <ele>443</ele>
        <time>2012-08-08T08:45:12Z</time>
      </trkpt>
      <trkpt lat="45.57002" lon="4.605">
        <ele>445</ele>
        <time>2012-08-08T08:45:21Z</time>
      </trkpt>
      <trkpt lat="45.56995" lon="4.6053">
        <ele>444</ele>
        <time>2012-08-08T08:45:30Z</time>
      </trkpt>
      <trkpt lat="45.56989" lon="4.60551">
        <ele>443</ele>
        <time>2012-08-08T08:45:34Z</time>
      </trkpt>
      <trkpt lat="45.56988" lon="4.60564">
        <ele>443</ele>
        <time>2012-08-08T08:45:36Z</time>
      </trkpt>
      <trkpt lat="45.56988" lon="4.60571">
        <ele>442</ele>
        <time>2012-08-08T08:45:37Z</time>
      </trkpt>
      <trkpt lat="45.56989" lon="4.60577">
        <ele>442</ele>
        <time>2012-08-08T08:45:38Z</time>
      </trkpt>
      <trkpt lat="45.5699" lon="4.60589">
        <ele>442</ele>
        <time>2012-08-08T08:45:40Z</time>
      </trkpt>
      <trkpt lat="45.56991" lon="4.60594">
        <ele>443</ele>
        <time>2012-08-08T08:45:41Z</time>
      </trkpt>
      <trkpt lat="45.56996" lon="4.6061">
        <ele>443</ele>
        <time>2012-08-08T08:45:46Z</time>
      </trkpt>
      <trkpt lat="45.57" lon="4.60634">
        <ele>441</ele>
        <time>2012-08-08T08:45:53Z</time>
      </trkpt>
      <trkpt lat="45.57" lon="4.6067">
        <ele>439</ele>
        <time>2012-08-08T08:45:59Z</time>
      </trkpt>
      <trkpt lat="45.56999" lon="4.60678">
        <ele>438</ele>
        <time>2012-08-08T08:46:00Z</time>
      </trkpt>
      <trkpt lat="45.56998" lon="4.60717">
        <ele>437</ele>
        <time>2012-08-08T08:46:05Z</time>
      </trkpt>
      <trkpt lat="45.56989" lon="4.60783">
        <ele>436</ele>
        <time>2012-08-08T08:46:14Z</time>
      </trkpt>
      <trkpt lat="45.56984" lon="4.60816">
        <ele>434</ele>
        <time>2012-08-08T08:46:18Z</time>
      </trkpt>
      <trkpt lat="45.56985" lon="4.60826">
        <ele>433</ele>
        <time>2012-08-08T08:46:19Z</time>
      </trkpt>
      <trkpt lat="45.56985" lon="4.60836">
        <ele>433</ele>
        <time>2012-08-08T08:46:20Z</time>
      </trkpt>
      <trkpt lat="45.56987" lon="4.6089">
        <ele>430</ele>
        <time>2012-08-08T08:46:25Z</time>
      </trkpt>
      <trkpt lat="45.56985" lon="4.60912">
        <ele>429</ele>
        <time>2012-08-08T08:46:27Z</time>
      </trkpt>
      <trkpt lat="45.56984" lon="4.60923">
        <ele>428</ele>
        <time>2012-08-08T08:46:28Z</time>
      </trkpt>
      <trkpt lat="45.56984" lon="4.60933">
        <ele>427</ele>
        <time>2012-08-08T08:46:29Z</time>
      </trkpt>
      <trkpt lat="45.56984" lon="4.60944">
        <ele>427</ele>
        <time>2012-08-08T08:46:30Z</time>
      </trkpt>
      <trkpt lat="45.56985" lon="4.60954">
        <ele>426</ele>
        <time>2012-08-08T08:46:31Z</time>
      </trkpt>
      <trkpt lat="45.56987" lon="4.60982">
        <ele>424</ele>
        <time>2012-08-08T08:46:34Z</time>
      </trkpt>
      <trkpt lat="45.56988" lon="4.61004">
        <ele>423</ele>
        <time>2012-08-08T08:46:36Z</time>
      </trkpt>
      <trkpt lat="45.56984" lon="4.61052">
        <ele>420</ele>
        <time>2012-08-08T08:46:41Z</time>
      </trkpt>
      <trkpt lat="45.56983" lon="4.61063">
        <ele>420</ele>
        <time>2012-08-08T08:46:43Z</time>
      </trkpt>
      <trkpt lat="45.56982" lon="4.61069">
        <ele>420</ele>
        <time>2012-08-08T08:46:44Z</time>
      </trkpt>
      <trkpt lat="45.56979" lon="4.61073">
        <ele>419</ele>
        <time>2012-08-08T08:46:45Z</time>
      </trkpt>
      <trkpt lat="45.56977" lon="4.61077">
        <ele>420</ele>
        <time>2012-08-08T08:46:46Z</time>
      </trkpt>
      <trkpt lat="45.56975" lon="4.6108">
        <ele>419</ele>
        <time>2012-08-08T08:46:47Z</time>
      </trkpt>
      <trkpt lat="45.56973" lon="4.61084">
        <ele>419</ele>
        <time>2012-08-08T08:46:48Z</time>
      </trkpt>
      <trkpt lat="45.56972" lon="4.61087">
        <ele>419</ele>
        <time>2012-08-08T08:46:49Z</time>
      </trkpt>
      <trkpt lat="45.56971" lon="4.6109">
        <ele>418</ele>
        <time>2012-08-08T08:46:50Z</time>
      </trkpt>
      <trkpt lat="45.56963" lon="4.61106">
        <ele>417</ele>
        <time>2012-08-08T08:46:55Z</time>
      </trkpt>
      <trkpt lat="45.56953" lon="4.61129">
        <ele>415</ele>
        <time>2012-08-08T08:47:01Z</time>
      </trkpt>
      <trkpt lat="45.56939" lon="4.61166">
        <ele>414</ele>
        <time>2012-08-08T08:47:08Z</time>
      </trkpt>
      <trkpt lat="45.5693" lon="4.61203">
        <ele>413</ele>
        <time>2012-08-08T08:47:15Z</time>
      </trkpt>
      <trkpt lat="45.56915" lon="4.61242">
        <ele>412</ele>
        <time>2012-08-08T08:47:22Z</time>
      </trkpt>
      <trkpt lat="45.56909" lon="4.61256">
        <ele>411</ele>
        <time>2012-08-08T08:47:24Z</time>
      </trkpt>
      <trkpt lat="45.56891" lon="4.61301">
        <ele>408</ele>
        <time>2012-08-08T08:47:30Z</time>
      </trkpt>
      <trkpt lat="45.56881" lon="4.61326">
        <ele>406</ele>
        <time>2012-08-08T08:47:33Z</time>
      </trkpt>
      <trkpt lat="45.56873" lon="4.61348">
        <ele>404</ele>
        <time>2012-08-08T08:47:36Z</time>
      </trkpt>
      <trkpt lat="45.56872" lon="4.61356">
        <ele>403</ele>
        <time>2012-08-08T08:47:37Z</time>
      </trkpt>
      <trkpt lat="45.56871" lon="4.61363">
        <ele>403</ele>
        <time>2012-08-08T08:47:38Z</time>
      </trkpt>
      <trkpt lat="45.5687" lon="4.61369">
        <ele>403</ele>
        <time>2012-08-08T08:47:39Z</time>
      </trkpt>
      <trkpt lat="45.56867" lon="4.61376">
        <ele>402</ele>
        <time>2012-08-08T08:47:40Z</time>
      </trkpt>
      <trkpt lat="45.56864" lon="4.61383">
        <ele>401</ele>
        <time>2012-08-08T08:47:41Z</time>
      </trkpt>
      <trkpt lat="45.56859" lon="4.61391">
        <ele>401</ele>
        <time>2012-08-08T08:47:42Z</time>
      </trkpt>
      <trkpt lat="45.56855" lon="4.61399">
        <ele>400</ele>
        <time>2012-08-08T08:47:43Z</time>
      </trkpt>
      <trkpt lat="45.56852" lon="4.61408">
        <ele>400</ele>
        <time>2012-08-08T08:47:44Z</time>
      </trkpt>
      <trkpt lat="45.56842" lon="4.6144">
        <ele>398</ele>
        <time>2012-08-08T08:47:47Z</time>
      </trkpt>
      <trkpt lat="45.56827" lon="4.61493">
        <ele>395</ele>
        <time>2012-08-08T08:47:52Z</time>
      </trkpt>
      <trkpt lat="45.5682" lon="4.61513">
        <ele>393</ele>
        <time>2012-08-08T08:47:55Z</time>
      </trkpt>
      <trkpt lat="45.56819" lon="4.61521">
        <ele>392</ele>
        <time>2012-08-08T08:47:57Z</time>
      </trkpt>
      <trkpt lat="45.56821" lon="4.61524">
        <ele>392</ele>
        <time>2012-08-08T08:47:58Z</time>
      </trkpt>
      <trkpt lat="45.56824" lon="4.61526">
        <ele>391</ele>
        <time>2012-08-08T08:47:59Z</time>
      </trkpt>
      <trkpt lat="45.56844" lon="4.61535">
        <ele>392</ele>
        <time>2012-08-08T08:48:05Z</time>
      </trkpt>
      <trkpt lat="45.56874" lon="4.61545">
        <ele>391</ele>
        <time>2012-08-08T08:48:14Z</time>
      </trkpt>
      <trkpt lat="45.56901" lon="4.61554">
        <ele>391</ele>
        <time>2012-08-08T08:48:22Z</time>
      </trkpt>
      <trkpt lat="45.56923" lon="4.61561">
        <ele>390</ele>
        <time>2012-08-08T08:48:29Z</time>
      </trkpt>
      <trkpt lat="45.56942" lon="4.61567">
        <ele>390</ele>
        <time>2012-08-08T08:48:36Z</time>
      </trkpt>
      <trkpt lat="45.56945" lon="4.61568">
        <ele>390</ele>
        <time>2012-08-08T08:48:41Z</time>
      </trkpt>
      <trkpt lat="45.56946" lon="4.61567">
        <ele>390</ele>
        <time>2012-08-08T08:48:50Z</time>
      </trkpt>
      <trkpt lat="45.56947" lon="4.61567">
        <ele>389</ele>
        <time>2012-08-08T08:49:06Z</time>
      </trkpt>
      <trkpt lat="45.56947" lon="4.61567">
        <ele>389</ele>
        <time>2012-08-08T08:49:23Z</time>
      </trkpt>
      <trkpt lat="45.56947" lon="4.61568">
        <ele>389</ele>
        <time>2012-08-08T08:49:47Z</time>
      </trkpt>
      <trkpt lat="45.56947" lon="4.61568">
        <ele>389</ele>
        <time>2012-08-08T08:50:13Z</time>
      </trkpt>
      <trkpt lat="45.56946" lon="4.61569">
        <ele>389</ele>
        <time>2012-08-08T08:50:40Z</time>
      </trkpt>
      <trkpt lat="45.56947" lon="4.61568">
        <ele>388</ele>
        <time>2012-08-08T08:51:04Z</time>
      </trkpt>
      <trkpt lat="45.56946" lon="4.61571">
        <ele>388</ele>
        <time>2012-08-08T08:51:25Z</time>
      </trkpt>
      <trkpt lat="45.56944" lon="4.61571">
        <ele>388</ele>
        <time>2012-08-08T08:51:46Z</time>
      </trkpt>
      <trkpt lat="45.56946" lon="4.61574">
        <ele>388</ele>
        <time>2012-08-08T08:52:09Z</time>
      </trkpt>
      <trkpt lat="45.56946" lon="4.61572">
        <ele>388</ele>
        <time>2012-08-08T08:52:28Z</time>
      </trkpt>
      <trkpt lat="45.56943" lon="4.6157">
        <ele>388</ele>
        <time>2012-08-08T08:52:52Z</time>
      </trkpt>
      <trkpt lat="45.56944" lon="4.61568">
        <ele>388</ele>
        <time>2012-08-08T08:53:12Z</time>
      </trkpt>
      <trkpt lat="45.56945" lon="4.61568">
        <ele>388</ele>
        <time>2012-08-08T08:53:35Z</time>
      </trkpt>
      <trkpt lat="45.56943" lon="4.61569">
        <ele>388</ele>
        <time>2012-08-08T08:53:43Z</time>
      </trkpt>
      <trkpt lat="45.56944" lon="4.61569">
        <ele>388</ele>
        <time>2012-08-08T08:53:54Z</time>
      </trkpt>
      <trkpt lat="45.56946" lon="4.6157">
        <ele>388</ele>
        <time>2012-08-08T08:54:10Z</time>
      </trkpt>
      <trkpt lat="45.56959" lon="4.61577">
        <ele>388</ele>
        <time>2012-08-08T08:54:16Z</time>
      </trkpt>
      <trkpt lat="45.5698" lon="4.61587">
        <ele>389</ele>
        <time>2012-08-08T08:54:24Z</time>
      </trkpt>
      <trkpt lat="45.57001" lon="4.61596">
        <ele>391</ele>
        <time>2012-08-08T08:54:33Z</time>
      </trkpt>
      <trkpt lat="45.57018" lon="4.61605">
        <ele>393</ele>
        <time>2012-08-08T08:54:41Z</time>
      </trkpt>
      <trkpt lat="45.57041" lon="4.61614">
        <ele>395</ele>
        <time>2012-08-08T08:54:51Z</time>
      </trkpt>
      <trkpt lat="45.57059" lon="4.61623">
        <ele>396</ele>
        <time>2012-08-08T08:55:00Z</time>
      </trkpt>
      <trkpt lat="45.57072" lon="4.61637">
        <ele>396</ele>
        <time>2012-08-08T08:55:07Z</time>
      </trkpt>
      <trkpt lat="45.57092" lon="4.61654">
        <ele>396</ele>
        <time>2012-08-08T08:55:15Z</time>
      </trkpt>
      <trkpt lat="45.57117" lon="4.61665">
        <ele>395</ele>
        <time>2012-08-08T08:55:23Z</time>
      </trkpt>
      <trkpt lat="45.57156" lon="4.61664">
        <ele>394</ele>
        <time>2012-08-08T08:55:33Z</time>
      </trkpt>
      <trkpt lat="45.57193" lon="4.61658">
        <ele>393</ele>
        <time>2012-08-08T08:55:42Z</time>
      </trkpt>
      <trkpt lat="45.57218" lon="4.61646">
        <ele>392</ele>
        <time>2012-08-08T08:55:48Z</time>
      </trkpt>
      <trkpt lat="45.57222" lon="4.61644">
        <ele>393</ele>
        <time>2012-08-08T08:55:49Z</time>
      </trkpt>
      <trkpt lat="45.57249" lon="4.61626">
        <ele>392</ele>
        <time>2012-08-08T08:55:56Z</time>
      </trkpt>
      <trkpt lat="45.57253" lon="4.61623">
        <ele>392</ele>
        <time>2012-08-08T08:55:57Z</time>
      </trkpt>
      <trkpt lat="45.57286" lon="4.61608">
        <ele>390</ele>
        <time>2012-08-08T08:56:06Z</time>
      </trkpt>
      <trkpt lat="45.57305" lon="4.6161">
        <ele>388</ele>
        <time>2012-08-08T08:56:11Z</time>
      </trkpt>
      <trkpt lat="45.57325" lon="4.61616">
        <ele>387</ele>
        <time>2012-08-08T08:56:16Z</time>
      </trkpt>
      <trkpt lat="45.5733" lon="4.61615">
        <ele>386</ele>
        <time>2012-08-08T08:56:17Z</time>
      </trkpt>
      <trkpt lat="45.57334" lon="4.61612">
        <ele>386</ele>
        <time>2012-08-08T08:56:18Z</time>
      </trkpt>
      <trkpt lat="45.57338" lon="4.61607">
        <ele>386</ele>
        <time>2012-08-08T08:56:19Z</time>
      </trkpt>
      <trkpt lat="45.57341" lon="4.61602">
        <ele>386</ele>
        <time>2012-08-08T08:56:20Z</time>
      </trkpt>
      <trkpt lat="45.57343" lon="4.61599">
        <ele>386</ele>
        <time>2012-08-08T08:56:21Z</time>
      </trkpt>
      <trkpt lat="45.57351" lon="4.61577">
        <ele>386</ele>
        <time>2012-08-08T08:56:26Z</time>
      </trkpt>
      <trkpt lat="45.57362" lon="4.61554">
        <ele>386</ele>
        <time>2012-08-08T08:56:32Z</time>
      </trkpt>
      <trkpt lat="45.57373" lon="4.61537">
        <ele>384</ele>
        <time>2012-08-08T08:56:38Z</time>
      </trkpt>
      <trkpt lat="45.57384" lon="4.61528">
        <ele>380</ele>
        <time>2012-08-08T08:56:42Z</time>
      </trkpt>
      <trkpt lat="45.57391" lon="4.61524">
        <ele>378</ele>
        <time>2012-08-08T08:56:44Z</time>
      </trkpt>
      <trkpt lat="45.57396" lon="4.61523">
        <ele>377</ele>
        <time>2012-08-08T08:56:45Z</time>
      </trkpt>
      <trkpt lat="45.57402" lon="4.61522">
        <ele>377</ele>
        <time>2012-08-08T08:56:46Z</time>
      </trkpt>
      <trkpt lat="45.57409" lon="4.6152">
        <ele>376</ele>
        <time>2012-08-08T08:56:47Z</time>
      </trkpt>
      <trkpt lat="45.57415" lon="4.61519">
        <ele>376</ele>
        <time>2012-08-08T08:56:48Z</time>
      </trkpt>
      <trkpt lat="45.57419" lon="4.61517">
        <ele>375</ele>
        <time>2012-08-08T08:56:49Z</time>
      </trkpt>
      <trkpt lat="45.57429" lon="4.61515">
        <ele>374</ele>
        <time>2012-08-08T08:56:51Z</time>
      </trkpt>
      <trkpt lat="45.5744" lon="4.61514">
        <ele>373</ele>
        <time>2012-08-08T08:56:53Z</time>
      </trkpt>
      <trkpt lat="45.57444" lon="4.61512">
        <ele>373</ele>
        <time>2012-08-08T08:56:54Z</time>
      </trkpt>
      <trkpt lat="45.57448" lon="4.61509">
        <ele>373</ele>
        <time>2012-08-08T08:56:55Z</time>
      </trkpt>
      <trkpt lat="45.57458" lon="4.61498">
        <ele>370</ele>
        <time>2012-08-08T08:56:59Z</time>
      </trkpt>
      <trkpt lat="45.57459" lon="4.61495">
        <ele>370</ele>
        <time>2012-08-08T08:57:00Z</time>
      </trkpt>
      <trkpt lat="45.5746" lon="4.61491">
        <ele>369</ele>
        <time>2012-08-08T08:57:01Z</time>
      </trkpt>
      <trkpt lat="45.57469" lon="4.61468">
        <ele>366</ele>
        <time>2012-08-08T08:57:06Z</time>
      </trkpt>
      <trkpt lat="45.57482" lon="4.61442">
        <ele>363</ele>
        <time>2012-08-08T08:57:12Z</time>
      </trkpt>
      <trkpt lat="45.57484" lon="4.61438">
        <ele>362</ele>
        <time>2012-08-08T08:57:13Z</time>
      </trkpt>
      <trkpt lat="45.57485" lon="4.61435">
        <ele>362</ele>
        <time>2012-08-08T08:57:14Z</time>
      </trkpt>
      <trkpt lat="45.57487" lon="4.61432">
        <ele>361</ele>
        <time>2012-08-08T08:57:15Z</time>
      </trkpt>
      <trkpt lat="45.57489" lon="4.61431">
        <ele>361</ele>
        <time>2012-08-08T08:57:16Z</time>
      </trkpt>
      <trkpt lat="45.57491" lon="4.6143">
        <ele>360</ele>
        <time>2012-08-08T08:57:17Z</time>
      </trkpt>
      <trkpt lat="45.57505" lon="4.61426">
        <ele>356</ele>
        <time>2012-08-08T08:57:23Z</time>
      </trkpt>
      <trkpt lat="45.5751" lon="4.61424">
        <ele>355</ele>
        <time>2012-08-08T08:57:25Z</time>
      </trkpt>
      <trkpt lat="45.57514" lon="4.61423">
        <ele>354</ele>
        <time>2012-08-08T08:57:27Z</time>
      </trkpt>
      <trkpt lat="45.57515" lon="4.61424">
        <ele>353</ele>
        <time>2012-08-08T08:57:28Z</time>
      </trkpt>
      <trkpt lat="45.57516" lon="4.61428">
        <ele>354</ele>
        <time>2012-08-08T08:57:35Z</time>
      </trkpt>
      <trkpt lat="45.57517" lon="4.6143">
        <ele>354</ele>
        <time>2012-08-08T08:57:38Z</time>
      </trkpt>
      <trkpt lat="45.57517" lon="4.6144">
        <ele>352</ele>
        <time>2012-08-08T08:57:43Z</time>
      </trkpt>
      <trkpt lat="45.57518" lon="4.6146">
        <ele>350</ele>
        <time>2012-08-08T08:57:50Z</time>
      </trkpt>
      <trkpt lat="45.57519" lon="4.61472">
        <ele>348</ele>
        <time>2012-08-08T08:57:56Z</time>
      </trkpt>
      <trkpt lat="45.57519" lon="4.61479">
        <ele>348</ele>
        <time>2012-08-08T08:58:05Z</time>
      </trkpt>
      <trkpt lat="45.57521" lon="4.61486">
        <ele>347</ele>
        <time>2012-08-08T08:58:13Z</time>
      </trkpt>
      <trkpt lat="45.57522" lon="4.61494">
        <ele>348</ele>
        <time>2012-08-08T08:58:20Z</time>
      </trkpt>
      <trkpt lat="45.57523" lon="4.61501">
        <ele>348</ele>
        <time>2012-08-08T08:58:27Z</time>
      </trkpt>
      <trkpt lat="45.57519" lon="4.61514">
        <ele>349</ele>
        <time>2012-08-08T08:58:35Z</time>
      </trkpt>
      <trkpt lat="45.57517" lon="4.61518">
        <ele>349</ele>
        <time>2012-08-08T08:58:42Z</time>
      </trkpt>
      <trkpt lat="45.57514" lon="4.6152">
        <ele>349</ele>
        <time>2012-08-08T08:58:47Z</time>
      </trkpt>
      <trkpt lat="45.57513" lon="4.61521">
        <ele>349</ele>
        <time>2012-08-08T08:58:48Z</time>
      </trkpt>
      <trkpt lat="45.57509" lon="4.61531">
        <ele>349</ele>
        <time>2012-08-08T08:58:54Z</time>
      </trkpt>
      <trkpt lat="45.57509" lon="4.61538">
        <ele>351</ele>
        <time>2012-08-08T08:58:58Z</time>
      </trkpt>
      <trkpt lat="45.57509" lon="4.61552">
        <ele>352</ele>
        <time>2012-08-08T08:59:05Z</time>
      </trkpt>
      <trkpt lat="45.5751" lon="4.61563">
        <ele>352</ele>
        <time>2012-08-08T08:59:12Z</time>
      </trkpt>
      <trkpt lat="45.57508" lon="4.61572">
        <ele>352</ele>
        <time>2012-08-08T08:59:17Z</time>
      </trkpt>
      <trkpt lat="45.57504" lon="4.61582">
        <ele>352</ele>
        <time>2012-08-08T08:59:23Z</time>
      </trkpt>
      <trkpt lat="45.57498" lon="4.61598">
        <ele>352</ele>
        <time>2012-08-08T08:59:30Z</time>
      </trkpt>
      <trkpt lat="45.57492" lon="4.61608">
        <ele>352</ele>
        <time>2012-08-08T08:59:34Z</time>
      </trkpt>
      <trkpt lat="45.57479" lon="4.61618">
        <ele>351</ele>
        <time>2012-08-08T08:59:40Z</time>
      </trkpt>
      <trkpt lat="45.57478" lon="4.61618">
        <ele>350</ele>
        <time>2012-08-08T08:59:41Z</time>
      </trkpt>
      <trkpt lat="45.57471" lon="4.61621">
        <ele>348</ele>
        <time>2012-08-08T08:59:46Z</time>
      </trkpt>
      <trkpt lat="45.57469" lon="4.61623">
        <ele>348</ele>
        <time>2012-08-08T08:59:47Z</time>
      </trkpt>
      <trkpt lat="45.57466" lon="4.61626">
        <ele>348</ele>
        <time>2012-08-08T08:59:48Z</time>
      </trkpt>
      <trkpt lat="45.57463" lon="4.61628">
        <ele>347</ele>
        <time>2012-08-08T08:59:49Z</time>
      </trkpt>
      <trkpt lat="45.5746" lon="4.6163">
        <ele>347</ele>
        <time>2012-08-08T08:59:50Z</time>
      </trkpt>
      <trkpt lat="45.57457" lon="4.61632">
        <ele>347</ele>
        <time>2012-08-08T08:59:51Z</time>
      </trkpt>
      <trkpt lat="45.57454" lon="4.61633">
        <ele>347</ele>
        <time>2012-08-08T08:59:52Z</time>
      </trkpt>
      <trkpt lat="45.57452" lon="4.61635">
        <ele>347</ele>
        <time>2012-08-08T08:59:53Z</time>
      </trkpt>
      <trkpt lat="45.5745" lon="4.61635">
        <ele>346</ele>
        <time>2012-08-08T08:59:54Z</time>
      </trkpt>
      <trkpt lat="45.57448" lon="4.61636">
        <ele>346</ele>
        <time>2012-08-08T08:59:55Z</time>
      </trkpt>
      <trkpt lat="45.57443" lon="4.6164">
        <ele>346</ele>
        <time>2012-08-08T09:00:01Z</time>
      </trkpt>
      <trkpt lat="45.57438" lon="4.61645">
        <ele>347</ele>
        <time>2012-08-08T09:00:08Z</time>
      </trkpt>
      <trkpt lat="45.5743" lon="4.61647">
        <ele>347</ele>
        <time>2012-08-08T09:00:14Z</time>
      </trkpt>
      <trkpt lat="45.57422" lon="4.61655">
        <ele>346</ele>
        <time>2012-08-08T09:00:19Z</time>
      </trkpt>
      <trkpt lat="45.57414" lon="4.61671">
        <ele>346</ele>
        <time>2012-08-08T09:00:25Z</time>
      </trkpt>
      <trkpt lat="45.5741" lon="4.61684">
        <ele>346</ele>
        <time>2012-08-08T09:00:30Z</time>
      </trkpt>
      <trkpt lat="45.57415" lon="4.61701">
        <ele>346</ele>
        <time>2012-08-08T09:00:36Z</time>
      </trkpt>
      <trkpt lat="45.57419" lon="4.61721">
        <ele>346</ele>
        <time>2012-08-08T09:00:42Z</time>
      </trkpt>
      <trkpt lat="45.57423" lon="4.61731">
        <ele>345</ele>
        <time>2012-08-08T09:00:46Z</time>
      </trkpt>
      <trkpt lat="45.57428" lon="4.61741">
        <ele>345</ele>
        <time>2012-08-08T09:00:49Z</time>
      </trkpt>
      <trkpt lat="45.57437" lon="4.61767">
        <ele>346</ele>
        <time>2012-08-08T09:00:56Z</time>
      </trkpt>
      <trkpt lat="45.57437" lon="4.61778">
        <ele>345</ele>
        <time>2012-08-08T09:00:59Z</time>
      </trkpt>
      <trkpt lat="45.57436" lon="4.61809">
        <ele>346</ele>
        <time>2012-08-08T09:01:07Z</time>
      </trkpt>
      <trkpt lat="45.57432" lon="4.61835">
        <ele>346</ele>
        <time>2012-08-08T09:01:12Z</time>
      </trkpt>
      <trkpt lat="45.57421" lon="4.61848">
        <ele>344</ele>
        <time>2012-08-08T09:01:19Z</time>
      </trkpt>
      <trkpt lat="45.57406" lon="4.61866">
        <ele>343</ele>
        <time>2012-08-08T09:01:27Z</time>
      </trkpt>
      <trkpt lat="45.57394" lon="4.61878">
        <ele>342</ele>
        <time>2012-08-08T09:01:34Z</time>
      </trkpt>
      <trkpt lat="45.57391" lon="4.61879">
        <ele>342</ele>
        <time>2012-08-08T09:01:35Z</time>
      </trkpt>
      <trkpt lat="45.57378" lon="4.61891">
        <ele>341</ele>
        <time>2012-08-08T09:01:43Z</time>
      </trkpt>
      <trkpt lat="45.57367" lon="4.61904">
        <ele>342</ele>
        <time>2012-08-08T09:01:51Z</time>
      </trkpt>
      <trkpt lat="45.57358" lon="4.61913">
        <ele>341</ele>
        <time>2012-08-08T09:01:57Z</time>
      </trkpt>
      <trkpt lat="45.5735" lon="4.61931">
        <ele>342</ele>
        <time>2012-08-08T09:02:05Z</time>
      </trkpt>
      <trkpt lat="45.57339" lon="4.61949">
        <ele>341</ele>
        <time>2012-08-08T09:02:13Z</time>
      </trkpt>
      <trkpt lat="45.57338" lon="4.61951">
        <ele>341</ele>
        <time>2012-08-08T09:02:14Z</time>
      </trkpt>
      <trkpt lat="45.57325" lon="4.61959">
        <ele>340</ele>
        <time>2012-08-08T09:02:22Z</time>
      </trkpt>
      <trkpt lat="45.57323" lon="4.61963">
        <ele>340</ele>
        <time>2012-08-08T09:02:27Z</time>
      </trkpt>
      <trkpt lat="45.57319" lon="4.61969">
        <ele>340</ele>
        <time>2012-08-08T09:02:35Z</time>
      </trkpt>
      <trkpt lat="45.57312" lon="4.61975">
        <ele>339</ele>
        <time>2012-08-08T09:02:44Z</time>
      </trkpt>
      <trkpt lat="45.57312" lon="4.61976">
        <ele>340</ele>
        <time>2012-08-08T09:02:45Z</time>
      </trkpt>
      <trkpt lat="45.57309" lon="4.61981">
        <ele>339</ele>
        <time>2012-08-08T09:02:53Z</time>
      </trkpt>
      <trkpt lat="45.57306" lon="4.61981">
        <ele>339</ele>
        <time>2012-08-08T09:03:01Z</time>
      </trkpt>
      <trkpt lat="45.57302" lon="4.61984">
        <ele>339</ele>
        <time>2012-08-08T09:03:10Z</time>
      </trkpt>
      <trkpt lat="45.57301" lon="4.61987">
        <ele>340</ele>
        <time>2012-08-08T09:03:19Z</time>
      </trkpt>
      <trkpt lat="45.57297" lon="4.61986">
        <ele>337</ele>
        <time>2012-08-08T09:03:30Z</time>
      </trkpt>
      <trkpt lat="45.57292" lon="4.61985">
        <ele>336</ele>
        <time>2012-08-08T09:03:39Z</time>
      </trkpt>
      <trkpt lat="45.57286" lon="4.61982">
        <ele>335</ele>
        <time>2012-08-08T09:03:46Z</time>
      </trkpt>
      <trkpt lat="45.57286" lon="4.61977">
        <ele>335</ele>
        <time>2012-08-08T09:04:02Z</time>
      </trkpt>
      <trkpt lat="45.57284" lon="4.61977">
        <ele>335</ele>
        <time>2012-08-08T09:04:09Z</time>
      </trkpt>
      <trkpt lat="45.57282" lon="4.61979">
        <ele>335</ele>
        <time>2012-08-08T09:04:12Z</time>
      </trkpt>
      <trkpt lat="45.57277" lon="4.61986">
        <ele>334</ele>
        <time>2012-08-08T09:04:17Z</time>
      </trkpt>
      <trkpt lat="45.57271" lon="4.61998">
        <ele>334</ele>
        <time>2012-08-08T09:04:25Z</time>
      </trkpt>
      <trkpt lat="45.57266" lon="4.62007">
        <ele>334</ele>
        <time>2012-08-08T09:04:33Z</time>
      </trkpt>
      <trkpt lat="45.5726" lon="4.6201">
        <ele>334</ele>
        <time>2012-08-08T09:04:40Z</time>
      </trkpt>
      <trkpt lat="45.57256" lon="4.62015">
        <ele>333</ele>
        <time>2012-08-08T09:04:47Z</time>
      </trkpt>
      <trkpt lat="45.57252" lon="4.62022">
        <ele>334</ele>
        <time>2012-08-08T09:04:53Z</time>
      </trkpt>
      <trkpt lat="45.57248" lon="4.62028">
        <ele>333</ele>
        <time>2012-08-08T09:04:59Z</time>
      </trkpt>
      <trkpt lat="45.57246" lon="4.62028">
        <ele>333</ele>
        <time>2012-08-08T09:05:04Z</time>
      </trkpt>
      <trkpt lat="45.57241" lon="4.62031">
        <ele>333</ele>
        <time>2012-08-08T09:05:11Z</time>
      </trkpt>
      <trkpt lat="45.57237" lon="4.62033">
        <ele>333</ele>
        <time>2012-08-08T09:05:17Z</time>
      </trkpt>
      <trkpt lat="45.57234" lon="4.62033">
        <ele>333</ele>
        <time>2012-08-08T09:05:19Z</time>
      </trkpt>
      <trkpt lat="45.57229" lon="4.62032">
        <ele>333</ele>
        <time>2012-08-08T09:05:26Z</time>
      </trkpt>
      <trkpt lat="45.57226" lon="4.62032">
        <ele>333</ele>
        <time>2012-08-08T09:05:32Z</time>
      </trkpt>
      <trkpt lat="45.57223" lon="4.62035">
        <ele>333</ele>
        <time>2012-08-08T09:05:34Z</time>
      </trkpt>
      <trkpt lat="45.57221" lon="4.62036">
        <ele>333</ele>
        <time>2012-08-08T09:05:41Z</time>
      </trkpt>
      <trkpt lat="45.57215" lon="4.62036">
        <ele>333</ele>
        <time>2012-08-08T09:05:48Z</time>
      </trkpt>
      <trkpt lat="45.57206" lon="4.62039">
        <ele>332</ele>
        <time>2012-08-08T09:05:53Z</time>
      </trkpt>
      <trkpt lat="45.57201" lon="4.62044">
        <ele>332</ele>
        <time>2012-08-08T09:06:00Z</time>
      </trkpt>
      <trkpt lat="45.57189" lon="4.62048">
        <ele>332</ele>
        <time>2012-08-08T09:06:07Z</time>
      </trkpt>
      <trkpt lat="45.57177" lon="4.62055">
        <ele>332</ele>
        <time>2012-08-08T09:06:12Z</time>
      </trkpt>
      <trkpt lat="45.57172" lon="4.62065">
        <ele>333</ele>
        <time>2012-08-08T09:06:16Z</time>
      </trkpt>
      <trkpt lat="45.5717" lon="4.62076">
        <ele>333</ele>
        <time>2012-08-08T09:06:20Z</time>
      </trkpt>
      <trkpt lat="45.57162" lon="4.6209">
        <ele>333</ele>
        <time>2012-08-08T09:06:27Z</time>
      </trkpt>
      <trkpt lat="45.5716" lon="4.62092">
        <ele>332</ele>
        <time>2012-08-08T09:06:28Z</time>
      </trkpt>
      <trkpt lat="45.57155" lon="4.62098">
        <ele>331</ele>
        <time>2012-08-08T09:06:30Z</time>
      </trkpt>
      <trkpt lat="45.5715" lon="4.62107">
        <ele>330</ele>
        <time>2012-08-08T09:06:34Z</time>
      </trkpt>
      <trkpt lat="45.57144" lon="4.62123">
        <ele>330</ele>
        <time>2012-08-08T09:06:40Z</time>
      </trkpt>
      <trkpt lat="45.57141" lon="4.62138">
        <ele>330</ele>
        <time>2012-08-08T09:06:46Z</time>
      </trkpt>
      <trkpt lat="45.57138" lon="4.62147">
        <ele>330</ele>
        <time>2012-08-08T09:06:49Z</time>
      </trkpt>
      <trkpt lat="45.57138" lon="4.62153">
        <ele>331</ele>
        <time>2012-08-08T09:06:51Z</time>
      </trkpt>
      <trkpt lat="45.57135" lon="4.62162">
        <ele>332</ele>
        <time>2012-08-08T09:06:53Z</time>
      </trkpt>
      <trkpt lat="45.57128" lon="4.62176">
        <ele>332</ele>
        <time>2012-08-08T09:06:59Z</time>
      </trkpt>
      <trkpt lat="45.57122" lon="4.62188">
        <ele>332</ele>
        <time>2012-08-08T09:07:07Z</time>
      </trkpt>
      <trkpt lat="45.57118" lon="4.62196">
        <ele>332</ele>
        <time>2012-08-08T09:07:14Z</time>
      </trkpt>
      <trkpt lat="45.57118" lon="4.62198">
        <ele>332</ele>
        <time>2012-08-08T09:07:15Z</time>
      </trkpt>
      <trkpt lat="45.57117" lon="4.622">
        <ele>333</ele>
        <time>2012-08-08T09:07:16Z</time>
      </trkpt>
      <trkpt lat="45.57115" lon="4.62202">
        <ele>332</ele>
        <time>2012-08-08T09:07:17Z</time>
      </trkpt>
      <trkpt lat="45.57115" lon="4.62205">
        <ele>333</ele>
        <time>2012-08-08T09:07:18Z</time>
      </trkpt>
      <trkpt lat="45.57114" lon="4.62207">
        <ele>332</ele>
        <time>2012-08-08T09:07:19Z</time>
      </trkpt>
      <trkpt lat="45.57112" lon="4.62214">
        <ele>332</ele>
        <time>2012-08-08T09:07:22Z</time>
      </trkpt>
      <trkpt lat="45.57105" lon="4.62218">
        <ele>330</ele>
        <time>2012-08-08T09:07:26Z</time>
      </trkpt>
      <trkpt lat="45.57105" lon="4.62222">
        <ele>330</ele>
        <time>2012-08-08T09:07:28Z</time>
      </trkpt>
      <trkpt lat="45.57104" lon="4.62225">
        <ele>330</ele>
        <time>2012-08-08T09:07:29Z</time>
      </trkpt>
      <trkpt lat="45.57102" lon="4.62227">
        <ele>330</ele>
        <time>2012-08-08T09:07:30Z</time>
      </trkpt>
      <trkpt lat="45.57101" lon="4.62229">
        <ele>330</ele>
        <time>2012-08-08T09:07:31Z</time>
      </trkpt>
      <trkpt lat="45.57101" lon="4.62231">
        <ele>331</ele>
        <time>2012-08-08T09:07:32Z</time>
      </trkpt>
      <trkpt lat="45.57101" lon="4.62234">
        <ele>330</ele>
        <time>2012-08-08T09:07:33Z</time>
      </trkpt>
      <trkpt lat="45.57089" lon="4.62251">
        <ele>329</ele>
        <time>2012-08-08T09:07:40Z</time>
      </trkpt>
      <trkpt lat="45.57081" lon="4.6226">
        <ele>330</ele>
        <time>2012-08-08T09:07:47Z</time>
      </trkpt>
      <trkpt lat="45.57079" lon="4.62263">
        <ele>330</ele>
        <time>2012-08-08T09:07:55Z</time>
      </trkpt>
      <trkpt lat="45.57079" lon="4.62267">
        <ele>329</ele>
        <time>2012-08-08T09:08:02Z</time>
      </trkpt>
      <trkpt lat="45.57078" lon="4.62273">
        <ele>330</ele>
        <time>2012-08-08T09:08:11Z</time>
      </trkpt>
      <trkpt lat="45.57079" lon="4.62276">
        <ele>331</ele>
        <time>2012-08-08T09:08:18Z</time>
      </trkpt>
      <trkpt lat="45.57081" lon="4.62284">
        <ele>332</ele>
        <time>2012-08-08T09:08:27Z</time>
      </trkpt>
      <trkpt lat="45.57082" lon="4.62288">
        <ele>332</ele>
        <time>2012-08-08T09:08:32Z</time>
      </trkpt>
      <trkpt lat="45.57081" lon="4.6229">
        <ele>332</ele>
        <time>2012-08-08T09:08:33Z</time>
      </trkpt>
      <trkpt lat="45.57081" lon="4.62292">
        <ele>332</ele>
        <time>2012-08-08T09:08:34Z</time>
      </trkpt>
      <trkpt lat="45.5708" lon="4.62294">
        <ele>332</ele>
        <time>2012-08-08T09:08:35Z</time>
      </trkpt>
      <trkpt lat="45.57079" lon="4.62297">
        <ele>332</ele>
        <time>2012-08-08T09:08:36Z</time>
      </trkpt>
      <trkpt lat="45.57077" lon="4.62304">
        <ele>331</ele>
        <time>2012-08-08T09:08:42Z</time>
      </trkpt>
      <trkpt lat="45.57076" lon="4.62307">
        <ele>332</ele>
        <time>2012-08-08T09:08:43Z</time>
      </trkpt>
      <trkpt lat="45.57075" lon="4.6231">
        <ele>332</ele>
        <time>2012-08-08T09:08:44Z</time>
      </trkpt>
      <trkpt lat="45.57074" lon="4.62314">
        <ele>332</ele>
        <time>2012-08-08T09:08:45Z</time>
      </trkpt>
      <trkpt lat="45.57074" lon="4.62318">
        <ele>332</ele>
        <time>2012-08-08T09:08:46Z</time>
      </trkpt>
      <trkpt lat="45.57074" lon="4.62321">
        <ele>332</ele>
        <time>2012-08-08T09:08:47Z</time>
      </trkpt>
      <trkpt lat="45.57074" lon="4.62324">
        <ele>332</ele>
        <time>2012-08-08T09:08:48Z</time>
      </trkpt>
      <trkpt lat="45.57074" lon="4.62326">
        <ele>332</ele>
        <time>2012-08-08T09:08:49Z</time>
      </trkpt>
      <trkpt lat="45.57073" lon="4.6233">
        <ele>332</ele>
        <time>2012-08-08T09:08:50Z</time>
      </trkpt>
      <trkpt lat="45.57072" lon="4.62333">
        <ele>332</ele>
        <time>2012-08-08T09:08:51Z</time>
      </trkpt>
      <trkpt lat="45.57071" lon="4.62336">
        <ele>332</ele>
        <time>2012-08-08T09:08:52Z</time>
      </trkpt>
      <trkpt lat="45.5707" lon="4.62339">
        <ele>332</ele>
        <time>2012-08-08T09:08:53Z</time>
      </trkpt>
      <trkpt lat="45.5707" lon="4.62341">
        <ele>332</ele>
        <time>2012-08-08T09:08:54Z</time>
      </trkpt>
      <trkpt lat="45.57069" lon="4.62344">
        <ele>331</ele>
        <time>2012-08-08T09:08:55Z</time>
      </trkpt>
      <trkpt lat="45.57067" lon="4.62347">
        <ele>332</ele>
        <time>2012-08-08T09:08:56Z</time>
      </trkpt>
      <trkpt lat="45.5706" lon="4.62364">
        <ele>332</ele>
        <time>2012-08-08T09:09:03Z</time>
      </trkpt>
      <trkpt lat="45.57043" lon="4.62387">
        <ele>331</ele>
        <time>2012-08-08T09:09:12Z</time>
      </trkpt>
      <trkpt lat="45.57029" lon="4.62402">
        <ele>331</ele>
        <time>2012-08-08T09:09:19Z</time>
      </trkpt>
      <trkpt lat="45.57018" lon="4.62413">
        <ele>331</ele>
        <time>2012-08-08T09:09:26Z</time>
      </trkpt>
      <trkpt lat="45.56999" lon="4.62425">
        <ele>331</ele>
        <time>2012-08-08T09:09:32Z</time>
      </trkpt>
      <trkpt lat="45.56984" lon="4.62443">
        <ele>331</ele>
        <time>2012-08-08T09:09:38Z</time>
      </trkpt>
      <trkpt lat="45.56975" lon="4.62472">
        <ele>331</ele>
        <time>2012-08-08T09:09:45Z</time>
      </trkpt>
      <trkpt lat="45.56975" lon="4.62491">
        <ele>330</ele>
        <time>2012-08-08T09:09:50Z</time>
      </trkpt>
      <trkpt lat="45.56976" lon="4.62511">
        <ele>330</ele>
        <time>2012-08-08T09:09:56Z</time>
      </trkpt>
      <trkpt lat="45.56975" lon="4.62512">
        <ele>331</ele>
        <time>2012-08-08T09:09:57Z</time>
      </trkpt>
      <trkpt lat="45.56974" lon="4.62512">
        <ele>331</ele>
        <time>2012-08-08T09:09:58Z</time>
      </trkpt>
      <trkpt lat="45.56972" lon="4.62513">
        <ele>331</ele>
        <time>2012-08-08T09:09:59Z</time>
      </trkpt>
      <trkpt lat="45.5697" lon="4.62513">
        <ele>331</ele>
        <time>2012-08-08T09:10:00Z</time>
      </trkpt>
      <trkpt lat="45.56967" lon="4.62515">
        <ele>331</ele>
        <time>2012-08-08T09:10:01Z</time>
      </trkpt>
      <trkpt lat="45.56955" lon="4.62525">
        <ele>331</ele>
        <time>2012-08-08T09:10:08Z</time>
      </trkpt>
      <trkpt lat="45.56956" lon="4.62522">
        <ele>331</ele>
        <time>2012-08-08T09:10:20Z</time>
      </trkpt>
      <trkpt lat="45.56958" lon="4.62521">
        <ele>331</ele>
        <time>2012-08-08T09:10:24Z</time>
      </trkpt>
      <trkpt lat="45.56959" lon="4.6252">
        <ele>331</ele>
        <time>2012-08-08T09:10:25Z</time>
      </trkpt>
      <trkpt lat="45.5696" lon="4.62519">
        <ele>331</ele>
        <time>2012-08-08T09:10:26Z</time>
      </trkpt>
      <trkpt lat="45.56962" lon="4.62517">
        <ele>331</ele>
        <time>2012-08-08T09:10:27Z</time>
      </trkpt>
      <trkpt lat="45.56964" lon="4.62517">
        <ele>331</ele>
        <time>2012-08-08T09:10:28Z</time>
      </trkpt>
      <trkpt lat="45.56972" lon="4.62513">
        <ele>331</ele>
        <time>2012-08-08T09:10:32Z</time>
      </trkpt>
      <trkpt lat="45.56973" lon="4.62513">
        <ele>330</ele>
        <time>2012-08-08T09:10:33Z</time>
      </trkpt>
      <trkpt lat="45.56977" lon="4.62514">
        <ele>331</ele>
        <time>2012-08-08T09:10:36Z</time>
      </trkpt>
      <trkpt lat="45.5698" lon="4.62515">
        <ele>331</ele>
        <time>2012-08-08T09:10:42Z</time>
      </trkpt>
      <trkpt lat="45.56983" lon="4.62517">
        <ele>331</ele>
        <time>2012-08-08T09:10:51Z</time>
      </trkpt>
      <trkpt lat="45.56981" lon="4.62521">
        <ele>332</ele>
        <time>2012-08-08T09:11:03Z</time>
      </trkpt>
      <trkpt lat="45.56978" lon="4.62517">
        <ele>331</ele>
        <time>2012-08-08T09:11:10Z</time>
      </trkpt>
      <trkpt lat="45.56979" lon="4.62518">
        <ele>330</ele>
        <time>2012-08-08T09:11:18Z</time>
      </trkpt>
      <trkpt lat="45.56979" lon="4.62515">
        <ele>330</ele>
        <time>2012-08-08T09:11:40Z</time>
      </trkpt>
      <trkpt lat="45.56977" lon="4.62513">
        <ele>330</ele>
        <time>2012-08-08T09:11:56Z</time>
      </trkpt>
      <trkpt lat="45.56978" lon="4.62513">
        <ele>330</ele>
        <time>2012-08-08T09:12:07Z</time>
      </trkpt>
      <trkpt lat="45.56977" lon="4.62514">
        <ele>330</ele>
        <time>2012-08-08T09:12:08Z</time>
      </trkpt>
      <trkpt lat="45.56976" lon="4.62515">
        <ele>330</ele>
        <time>2012-08-08T09:12:09Z</time>
      </trkpt>
      <trkpt lat="45.56975" lon="4.62515">
        <ele>331</ele>
        <time>2012-08-08T09:12:10Z</time>
      </trkpt>
      <trkpt lat="45.56972" lon="4.62516">
        <ele>330</ele>
        <time>2012-08-08T09:12:11Z</time>
      </trkpt>
      <trkpt lat="45.5697" lon="4.62517">
        <ele>330</ele>
        <time>2012-08-08T09:12:12Z</time>
      </trkpt>
      <trkpt lat="45.56968" lon="4.62518">
        <ele>330</ele>
        <time>2012-08-08T09:12:13Z</time>
      </trkpt>
      <trkpt lat="45.56966" lon="4.62519">
        <ele>330</ele>
        <time>2012-08-08T09:12:14Z</time>
      </trkpt>
      <trkpt lat="45.56964" lon="4.6252">
        <ele>331</ele>
        <time>2012-08-08T09:12:15Z</time>
      </trkpt>
      <trkpt lat="45.56949" lon="4.62535">
        <ele>331</ele>
        <time>2012-08-08T09:12:24Z</time>
      </trkpt>
      <trkpt lat="45.5695" lon="4.62535">
        <ele>330</ele>
        <time>2012-08-08T09:12:32Z</time>
      </trkpt>
      <trkpt lat="45.5695" lon="4.62531">
        <ele>330</ele>
        <time>2012-08-08T09:12:54Z</time>
      </trkpt>
      <trkpt lat="45.56949" lon="4.62526">
        <ele>330</ele>
        <time>2012-08-08T09:13:11Z</time>
      </trkpt>
      <trkpt lat="45.56949" lon="4.62531">
        <ele>330</ele>
        <time>2012-08-08T09:13:35Z</time>
      </trkpt>
      <trkpt lat="45.56947" lon="4.62532">
        <ele>331</ele>
        <time>2012-08-08T09:13:44Z</time>
      </trkpt>
      <trkpt lat="45.56939" lon="4.62543">
        <ele>331</ele>
        <time>2012-08-08T09:13:51Z</time>
      </trkpt>
      <trkpt lat="45.56939" lon="4.62545">
        <ele>331</ele>
        <time>2012-08-08T09:13:52Z</time>
      </trkpt>
      <trkpt lat="45.56942" lon="4.62546">
        <ele>332</ele>
        <time>2012-08-08T09:13:58Z</time>
      </trkpt>
      <trkpt lat="45.56943" lon="4.62543">
        <ele>332</ele>
        <time>2012-08-08T09:14:05Z</time>
      </trkpt>
      <trkpt lat="45.56947" lon="4.62543">
        <ele>333</ele>
        <time>2012-08-08T09:14:12Z</time>
      </trkpt>
      <trkpt lat="45.56948" lon="4.62543">
        <ele>333</ele>
        <time>2012-08-08T09:14:20Z</time>
      </trkpt>
      <trkpt lat="45.56952" lon="4.62542">
        <ele>334</ele>
        <time>2012-08-08T09:14:27Z</time>
      </trkpt>
      <trkpt lat="45.56955" lon="4.62541">
        <ele>334</ele>
        <time>2012-08-08T09:14:31Z</time>
      </trkpt>
      <trkpt lat="45.56957" lon="4.62541">
        <ele>335</ele>
        <time>2012-08-08T09:14:32Z</time>
      </trkpt>
      <trkpt lat="45.56961" lon="4.62539">
        <ele>335</ele>
        <time>2012-08-08T09:14:35Z</time>
      </trkpt>
      <trkpt lat="45.56962" lon="4.62538">
        <ele>336</ele>
        <time>2012-08-08T09:14:36Z</time>
      </trkpt>
      <trkpt lat="45.56968" lon="4.62538">
        <ele>337</ele>
        <time>2012-08-08T09:14:41Z</time>
      </trkpt>
      <trkpt lat="45.56969" lon="4.62538">
        <ele>338</ele>
        <time>2012-08-08T09:14:42Z</time>
      </trkpt>
      <trkpt lat="45.56979" lon="4.62541">
        <ele>339</ele>
        <time>2012-08-08T09:14:49Z</time>
      </trkpt>
      <trkpt lat="45.56985" lon="4.62544">
        <ele>340</ele>
        <time>2012-08-08T09:14:55Z</time>
      </trkpt>
      <trkpt lat="45.56987" lon="4.62544">
        <ele>340</ele>
        <time>2012-08-08T09:14:56Z</time>
      </trkpt>
      <trkpt lat="45.56992" lon="4.62547">
        <ele>341</ele>
        <time>2012-08-08T09:15:01Z</time>
      </trkpt>
      <trkpt lat="45.56999" lon="4.62552">
        <ele>342</ele>
        <time>2012-08-08T09:15:08Z</time>
      </trkpt>
      <trkpt lat="45.57002" lon="4.62557">
        <ele>343</ele>
        <time>2012-08-08T09:15:13Z</time>
      </trkpt>
      <trkpt lat="45.57007" lon="4.62563">
        <ele>344</ele>
        <time>2012-08-08T09:15:19Z</time>
      </trkpt>
      <trkpt lat="45.57009" lon="4.62567">
        <ele>344</ele>
        <time>2012-08-08T09:15:22Z</time>
      </trkpt>
      <trkpt lat="45.57016" lon="4.62573">
        <ele>345</ele>
        <time>2012-08-08T09:15:30Z</time>
      </trkpt>
      <trkpt lat="45.57023" lon="4.62578">
        <ele>345</ele>
        <time>2012-08-08T09:15:37Z</time>
      </trkpt>
      <trkpt lat="45.57031" lon="4.62584">
        <ele>346</ele>
        <time>2012-08-08T09:15:43Z</time>
      </trkpt>
      <trkpt lat="45.57036" lon="4.62587">
        <ele>347</ele>
        <time>2012-08-08T09:15:47Z</time>
      </trkpt>
      <trkpt lat="45.57038" lon="4.62587">
        <ele>347</ele>
        <time>2012-08-08T09:15:48Z</time>
      </trkpt>
      <trkpt lat="45.5704" lon="4.62587">
        <ele>347</ele>
        <time>2012-08-08T09:15:49Z</time>
      </trkpt>
      <trkpt lat="45.57053" lon="4.62594">
        <ele>348</ele>
        <time>2012-08-08T09:15:57Z</time>
      </trkpt>
      <trkpt lat="45.57062" lon="4.62601">
        <ele>349</ele>
        <time>2012-08-08T09:16:03Z</time>
      </trkpt>
      <trkpt lat="45.57073" lon="4.62602">
        <ele>348</ele>
        <time>2012-08-08T09:16:09Z</time>
      </trkpt>
      <trkpt lat="45.57078" lon="4.62592">
        <ele>349</ele>
        <time>2012-08-08T09:16:14Z</time>
      </trkpt>
      <trkpt lat="45.57078" lon="4.62587">
        <ele>350</ele>
        <time>2012-08-08T09:16:22Z</time>
      </trkpt>
      <trkpt lat="45.5708" lon="4.62588">
        <ele>350</ele>
        <time>2012-08-08T09:16:34Z</time>
      </trkpt>
      <trkpt lat="45.5708" lon="4.62587">
        <ele>350</ele>
        <time>2012-08-08T09:16:42Z</time>
      </trkpt>
      <trkpt lat="45.5708" lon="4.62584">
        <ele>350</ele>
        <time>2012-08-08T09:16:47Z</time>
      </trkpt>
      <trkpt lat="45.57082" lon="4.62584">
        <ele>350</ele>
        <time>2012-08-08T09:16:53Z</time>
      </trkpt>
      <trkpt lat="45.57084" lon="4.62585">
        <ele>351</ele>
        <time>2012-08-08T09:16:56Z</time>
      </trkpt>
      <trkpt lat="45.57086" lon="4.62587">
        <ele>350</ele>
        <time>2012-08-08T09:16:58Z</time>
      </trkpt>
      <trkpt lat="45.5709" lon="4.62592">
        <ele>352</ele>
        <time>2012-08-08T09:17:02Z</time>
      </trkpt>
      <trkpt lat="45.57096" lon="4.62594">
        <ele>353</ele>
        <time>2012-08-08T09:17:06Z</time>
      </trkpt>
      <trkpt lat="45.57109" lon="4.62598">
        <ele>357</ele>
        <time>2012-08-08T09:17:15Z</time>
      </trkpt>
      <trkpt lat="45.57116" lon="4.62603">
        <ele>359</ele>
        <time>2012-08-08T09:17:20Z</time>
      </trkpt>
      <trkpt lat="45.5712" lon="4.62602">
        <ele>360</ele>
        <time>2012-08-08T09:17:25Z</time>
      </trkpt>
      <trkpt lat="45.57115" lon="4.62591">
        <ele>361</ele>
        <time>2012-08-08T09:17:33Z</time>
      </trkpt>
      <trkpt lat="45.57113" lon="4.62583">
        <ele>362</ele>
        <time>2012-08-08T09:17:38Z</time>
      </trkpt>
      <trkpt lat="45.57112" lon="4.62569">
        <ele>365</ele>
        <time>2012-08-08T09:17:44Z</time>
      </trkpt>
      <trkpt lat="45.5711" lon="4.62561">
        <ele>366</ele>
        <time>2012-08-08T09:17:48Z</time>
      </trkpt>
      <trkpt lat="45.57107" lon="4.62555">
        <ele>367</ele>
        <time>2012-08-08T09:17:54Z</time>
      </trkpt>
      <trkpt lat="45.57104" lon="4.62553">
        <ele>366</ele>
        <time>2012-08-08T09:17:56Z</time>
      </trkpt>
      <trkpt lat="45.571" lon="4.62546">
        <ele>367</ele>
        <time>2012-08-08T09:18:00Z</time>
      </trkpt>
      <trkpt lat="45.5709" lon="4.62532">
        <ele>366</ele>
        <time>2012-08-08T09:18:08Z</time>
      </trkpt>
      <trkpt lat="45.57087" lon="4.62526">
        <ele>367</ele>
        <time>2012-08-08T09:18:15Z</time>
      </trkpt>
      <trkpt lat="45.57085" lon="4.62526">
        <ele>368</ele>
        <time>2012-08-08T09:18:26Z</time>
      </trkpt>
      <trkpt lat="45.57087" lon="4.62519">
        <ele>369</ele>
        <time>2012-08-08T09:18:33Z</time>
      </trkpt>
      <trkpt lat="45.57089" lon="4.62514">
        <ele>371</ele>
        <time>2012-08-08T09:18:40Z</time>
      </trkpt>
      <trkpt lat="45.5709" lon="4.62509">
        <ele>371</ele>
        <time>2012-08-08T09:18:49Z</time>
      </trkpt>
      <trkpt lat="45.57091" lon="4.62501">
        <ele>373</ele>
        <time>2012-08-08T09:18:56Z</time>
      </trkpt>
      <trkpt lat="45.57094" lon="4.62497">
        <ele>375</ele>
        <time>2012-08-08T09:19:03Z</time>
      </trkpt>
      <trkpt lat="45.57098" lon="4.62494">
        <ele>376</ele>
        <time>2012-08-08T09:19:10Z</time>
      </trkpt>
      <trkpt lat="45.57104" lon="4.62487">
        <ele>378</ele>
        <time>2012-08-08T09:19:19Z</time>
      </trkpt>
      <trkpt lat="45.57109" lon="4.62485">
        <ele>379</ele>
        <time>2012-08-08T09:19:26Z</time>
      </trkpt>
      <trkpt lat="45.57117" lon="4.62485">
        <ele>381</ele>
        <time>2012-08-08T09:19:34Z</time>
      </trkpt>
      <trkpt lat="45.57125" lon="4.62485">
        <ele>382</ele>
        <time>2012-08-08T09:19:43Z</time>
      </trkpt>
      <trkpt lat="45.57126" lon="4.62485">
        <ele>382</ele>
        <time>2012-08-08T09:19:44Z</time>
      </trkpt>
      <trkpt lat="45.57135" lon="4.62484">
        <ele>384</ele>
        <time>2012-08-08T09:19:53Z</time>
      </trkpt>
      <trkpt lat="45.57143" lon="4.62483">
        <ele>386</ele>
        <time>2012-08-08T09:20:02Z</time>
      </trkpt>
      <trkpt lat="45.57145" lon="4.62483">
        <ele>386</ele>
        <time>2012-08-08T09:20:03Z</time>
      </trkpt>
      <trkpt lat="45.57155" lon="4.62482">
        <ele>388</ele>
        <time>2012-08-08T09:20:13Z</time>
      </trkpt>
      <trkpt lat="45.57162" lon="4.62482">
        <ele>389</ele>
        <time>2012-08-08T09:20:22Z</time>
      </trkpt>
      <trkpt lat="45.57169" lon="4.62481">
        <ele>391</ele>
        <time>2012-08-08T09:20:31Z</time>
      </trkpt>
      <trkpt lat="45.57176" lon="4.62481">
        <ele>393</ele>
        <time>2012-08-08T09:20:40Z</time>
      </trkpt>
      <trkpt lat="45.57183" lon="4.62482">
        <ele>394</ele>
        <time>2012-08-08T09:20:49Z</time>
      </trkpt>
      <trkpt lat="45.57191" lon="4.62481">
        <ele>397</ele>
        <time>2012-08-08T09:20:58Z</time>
      </trkpt>
      <trkpt lat="45.572" lon="4.62481">
        <ele>400</ele>
        <time>2012-08-08T09:21:09Z</time>
      </trkpt>
      <trkpt lat="45.5721" lon="4.6248">
        <ele>401</ele>
        <time>2012-08-08T09:21:19Z</time>
      </trkpt>
      <trkpt lat="45.57216" lon="4.62479">
        <ele>401</ele>
        <time>2012-08-08T09:21:27Z</time>
      </trkpt>
      <trkpt lat="45.57219" lon="4.62478">
        <ele>401</ele>
        <time>2012-08-08T09:21:34Z</time>
      </trkpt>
      <trkpt lat="45.57231" lon="4.62478">
        <ele>403</ele>
        <time>2012-08-08T09:21:42Z</time>
      </trkpt>
      <trkpt lat="45.57237" lon="4.62477">
        <ele>404</ele>
        <time>2012-08-08T09:21:47Z</time>
      </trkpt>
      <trkpt lat="45.57249" lon="4.62475">
        <ele>405</ele>
        <time>2012-08-08T09:21:56Z</time>
      </trkpt>
      <trkpt lat="45.57262" lon="4.62474">
        <ele>408</ele>
        <time>2012-08-08T09:22:05Z</time>
      </trkpt>
      <trkpt lat="45.57267" lon="4.62475">
        <ele>409</ele>
        <time>2012-08-08T09:22:09Z</time>
      </trkpt>
      <trkpt lat="45.57275" lon="4.62474">
        <ele>410</ele>
        <time>2012-08-08T09:22:14Z</time>
      </trkpt>
      <trkpt lat="45.57287" lon="4.62476">
        <ele>410</ele>
        <time>2012-08-08T09:22:23Z</time>
      </trkpt>
      <trkpt lat="45.57302" lon="4.62478">
        <ele>411</ele>
        <time>2012-08-08T09:22:34Z</time>
      </trkpt>
      <trkpt lat="45.57315" lon="4.6248">
        <ele>413</ele>
        <time>2012-08-08T09:22:43Z</time>
      </trkpt>
      <trkpt lat="45.57327" lon="4.62481">
        <ele>413</ele>
        <time>2012-08-08T09:22:52Z</time>
      </trkpt>
      <trkpt lat="45.57342" lon="4.62482">
        <ele>414</ele>
        <time>2012-08-08T09:23:01Z</time>
      </trkpt>
      <trkpt lat="45.57354" lon="4.62483">
        <ele>416</ele>
        <time>2012-08-08T09:23:09Z</time>
      </trkpt>
      <trkpt lat="45.57373" lon="4.6248">
        <ele>418</ele>
        <time>2012-08-08T09:23:20Z</time>
      </trkpt>
      <trkpt lat="45.57392" lon="4.62476">
        <ele>419</ele>
        <time>2012-08-08T09:23:32Z</time>
      </trkpt>
      <trkpt lat="45.57405" lon="4.62477">
        <ele>419</ele>
        <time>2012-08-08T09:23:40Z</time>
      </trkpt>
      <trkpt lat="45.57415" lon="4.62487">
        <ele>420</ele>
        <time>2012-08-08T09:23:47Z</time>
      </trkpt>
      <trkpt lat="45.57426" lon="4.62502">
        <ele>420</ele>
        <time>2012-08-08T09:23:55Z</time>
      </trkpt>
      <trkpt lat="45.57439" lon="4.62518">
        <ele>421</ele>
        <time>2012-08-08T09:24:03Z</time>
      </trkpt>
      <trkpt lat="45.57455" lon="4.62532">
        <ele>421</ele>
        <time>2012-08-08T09:24:12Z</time>
      </trkpt>
      <trkpt lat="45.57477" lon="4.62537">
        <ele>422</ele>
        <time>2012-08-08T09:24:22Z</time>
      </trkpt>
      <trkpt lat="45.57494" lon="4.62544">
        <ele>423</ele>
        <time>2012-08-08T09:24:30Z</time>
      </trkpt>
      <trkpt lat="45.57515" lon="4.62557">
        <ele>424</ele>
        <time>2012-08-08T09:24:40Z</time>
      </trkpt>
      <trkpt lat="45.57535" lon="4.62571">
        <ele>426</ele>
        <time>2012-08-08T09:24:50Z</time>
      </trkpt>
      <trkpt lat="45.57554" lon="4.62588">
        <ele>427</ele>
        <time>2012-08-08T09:25:01Z</time>
      </trkpt>
      <trkpt lat="45.57568" lon="4.62596">
        <ele>428</ele>
        <time>2012-08-08T09:25:10Z</time>
      </trkpt>
      <trkpt lat="45.57583" lon="4.62609">
        <ele>430</ele>
        <time>2012-08-08T09:25:19Z</time>
      </trkpt>
      <trkpt lat="45.57597" lon="4.62626">
        <ele>431</ele>
        <time>2012-08-08T09:25:29Z</time>
      </trkpt>
      <trkpt lat="45.57606" lon="4.62636">
        <ele>433</ele>
        <time>2012-08-08T09:25:36Z</time>
      </trkpt>
      <trkpt lat="45.57617" lon="4.62651">
        <ele>435</ele>
        <time>2012-08-08T09:25:45Z</time>
      </trkpt>
      <trkpt lat="45.57628" lon="4.62663">
        <ele>437</ele>
        <time>2012-08-08T09:25:54Z</time>
      </trkpt>
      <trkpt lat="45.57639" lon="4.62679">
        <ele>438</ele>
        <time>2012-08-08T09:26:04Z</time>
      </trkpt>
      <trkpt lat="45.57647" lon="4.62691">
        <ele>439</ele>
        <time>2012-08-08T09:26:11Z</time>
      </trkpt>
      <trkpt lat="45.57658" lon="4.62708">
        <ele>440</ele>
        <time>2012-08-08T09:26:20Z</time>
      </trkpt>
      <trkpt lat="45.5767" lon="4.62727">
        <ele>442</ele>
        <time>2012-08-08T09:26:30Z</time>
      </trkpt>
      <trkpt lat="45.57686" lon="4.62748">
        <ele>443</ele>
        <time>2012-08-08T09:26:42Z</time>
      </trkpt>
      <trkpt lat="45.57699" lon="4.62761">
        <ele>445</ele>
        <time>2012-08-08T09:26:51Z</time>
      </trkpt>
      <trkpt lat="45.57709" lon="4.6277">
        <ele>446</ele>
        <time>2012-08-08T09:26:58Z</time>
      </trkpt>
      <trkpt lat="45.5771" lon="4.62771">
        <ele>446</ele>
        <time>2012-08-08T09:26:59Z</time>
      </trkpt>
      <trkpt lat="45.57727" lon="4.62787">
        <ele>447</ele>
        <time>2012-08-08T09:27:10Z</time>
      </trkpt>
      <trkpt lat="45.5774" lon="4.62807">
        <ele>448</ele>
        <time>2012-08-08T09:27:20Z</time>
      </trkpt>
      <trkpt lat="45.57751" lon="4.62824">
        <ele>450</ele>
        <time>2012-08-08T09:27:29Z</time>
      </trkpt>
      <trkpt lat="45.57758" lon="4.62834">
        <ele>451</ele>
        <time>2012-08-08T09:27:36Z</time>
      </trkpt>
      <trkpt lat="45.57761" lon="4.62841">
        <ele>452</ele>
        <time>2012-08-08T09:27:41Z</time>
      </trkpt>
      <trkpt lat="45.57769" lon="4.62856">
        <ele>454</ele>
        <time>2012-08-08T09:27:51Z</time>
      </trkpt>
      <trkpt lat="45.57778" lon="4.62873">
        <ele>455</ele>
        <time>2012-08-08T09:28:01Z</time>
      </trkpt>
      <trkpt lat="45.57789" lon="4.62889">
        <ele>457</ele>
        <time>2012-08-08T09:28:11Z</time>
      </trkpt>
      <trkpt lat="45.57799" lon="4.62906">
        <ele>458</ele>
        <time>2012-08-08T09:28:20Z</time>
      </trkpt>
      <trkpt lat="45.57813" lon="4.62928">
        <ele>459</ele>
        <time>2012-08-08T09:28:31Z</time>
      </trkpt>
      <trkpt lat="45.57828" lon="4.62944">
        <ele>460</ele>
        <time>2012-08-08T09:28:40Z</time>
      </trkpt>
      <trkpt lat="45.57845" lon="4.62954">
        <ele>461</ele>
        <time>2012-08-08T09:28:49Z</time>
      </trkpt>
      <trkpt lat="45.57862" lon="4.62969">
        <ele>462</ele>
        <time>2012-08-08T09:28:57Z</time>
      </trkpt>
      <trkpt lat="45.57884" lon="4.62983">
        <ele>462</ele>
        <time>2012-08-08T09:29:05Z</time>
      </trkpt>
      <trkpt lat="45.57898" lon="4.62994">
        <ele>463</ele>
        <time>2012-08-08T09:29:11Z</time>
      </trkpt>
      <trkpt lat="45.57917" lon="4.63006">
        <ele>464</ele>
        <time>2012-08-08T09:29:19Z</time>
      </trkpt>
      <trkpt lat="45.57932" lon="4.63011">
        <ele>465</ele>
        <time>2012-08-08T09:29:26Z</time>
      </trkpt>
      <trkpt lat="45.57958" lon="4.6302">
        <ele>466</ele>
        <time>2012-08-08T09:29:35Z</time>
      </trkpt>
      <trkpt lat="45.57984" lon="4.63027">
        <ele>466</ele>
        <time>2012-08-08T09:29:44Z</time>
      </trkpt>
      <trkpt lat="45.58005" lon="4.63035">
        <ele>466</ele>
        <time>2012-08-08T09:29:52Z</time>
      </trkpt>
      <trkpt lat="45.58033" lon="4.63046">
        <ele>466</ele>
        <time>2012-08-08T09:30:00Z</time>
      </trkpt>
      <trkpt lat="45.58061" lon="4.63062">
        <ele>467</ele>
        <time>2012-08-08T09:30:10Z</time>
      </trkpt>
      <trkpt lat="45.58077" lon="4.63074">
        <ele>468</ele>
        <time>2012-08-08T09:30:16Z</time>
      </trkpt>
      <trkpt lat="45.58102" lon="4.63088">
        <ele>469</ele>
        <time>2012-08-08T09:30:25Z</time>
      </trkpt>
      <trkpt lat="45.58121" lon="4.63099">
        <ele>471</ele>
        <time>2012-08-08T09:30:32Z</time>
      </trkpt>
      <trkpt lat="45.58148" lon="4.63115">
        <ele>473</ele>
        <time>2012-08-08T09:30:42Z</time>
      </trkpt>
      <trkpt lat="45.58168" lon="4.63125">
        <ele>475</ele>
        <time>2012-08-08T09:30:50Z</time>
      </trkpt>
      <trkpt lat="45.58187" lon="4.63132">
        <ele>476</ele>
        <time>2012-08-08T09:30:57Z</time>
      </trkpt>
      <trkpt lat="45.58203" lon="4.63126">
        <ele>476</ele>
        <time>2012-08-08T09:31:03Z</time>
      </trkpt>
      <trkpt lat="45.5821" lon="4.63107">
        <ele>478</ele>
        <time>2012-08-08T09:31:09Z</time>
      </trkpt>
      <trkpt lat="45.58215" lon="4.63083">
        <ele>480</ele>
        <time>2012-08-08T09:31:16Z</time>
      </trkpt>
      <trkpt lat="45.58214" lon="4.63079">
        <ele>480</ele>
        <time>2012-08-08T09:31:17Z</time>
      </trkpt>
      <trkpt lat="45.58202" lon="4.63042">
        <ele>481</ele>
        <time>2012-08-08T09:31:28Z</time>
      </trkpt>
      <trkpt lat="45.58195" lon="4.63014">
        <ele>483</ele>
        <time>2012-08-08T09:31:37Z</time>
      </trkpt>
      <trkpt lat="45.58196" lon="4.63007">
        <ele>484</ele>
        <time>2012-08-08T09:31:43Z</time>
      </trkpt>
      <trkpt lat="45.58198" lon="4.63005">
        <ele>485</ele>
        <time>2012-08-08T09:32:03Z</time>
      </trkpt>
      <trkpt lat="45.58198" lon="4.63005">
        <ele>479</ele>
        <time>2012-08-08T09:32:05Z</time>
      </trkpt>
    </trkseg>
  </trk>
</gpx>